<?xml version="1.0" encoding="UTF-8" standalone="no" ?>
<gpx xmlns="http://www.topografix.com/GPX/1/1" xmlns:xsi="http://www.w3.org/2001/XMLSchema-instance" xsi:schemaLocation="http://www.topografix.com/GPX/1/1 http://www.topografix.com/GPX/1/1/gpx.xsd" version="1.1" creator="VisuGPX - https://www.visugpx.com">
  <metadata>
    <name>sortie batons du 27/01/12</name>
    <desc><![CDATA[12 GR avec Nini comme Raïs]]></desc>
  </metadata>
  <trk>
    <name><![CDATA[2012-01-27T18:14:46Z]]></name>
    <trkseg>
      <trkpt lat="45.84497" lon="4.83088">
        <ele>171</ele>
        <time>2012-01-27T18:14:46Z</time>
      </trkpt>
      <trkpt lat="45.84497" lon="4.83078">
        <ele>290.2000122</ele>
        <time>2012-01-27T18:14:51Z</time>
      </trkpt>
      <trkpt lat="45.84496" lon="4.83063">
        <ele>289.7999878</ele>
        <time>2012-01-27T18:14:56Z</time>
      </trkpt>
      <trkpt lat="45.84498" lon="4.83058">
        <ele>289.3999939</ele>
        <time>2012-01-27T18:14:57Z</time>
      </trkpt>
      <trkpt lat="45.84507" lon="4.83036">
        <ele>287.7999878</ele>
        <time>2012-01-27T18:15:02Z</time>
      </trkpt>
      <trkpt lat="45.84519" lon="4.83027">
        <ele>286.3999939</ele>
        <time>2012-01-27T18:15:06Z</time>
      </trkpt>
      <trkpt lat="45.84526" lon="4.83024">
        <ele>285.3999939</ele>
        <time>2012-01-27T18:15:08Z</time>
      </trkpt>
      <trkpt lat="45.84543" lon="4.83018">
        <ele>282.7999878</ele>
        <time>2012-01-27T18:15:13Z</time>
      </trkpt>
      <trkpt lat="45.84546" lon="4.83018">
        <ele>282.2000122</ele>
        <time>2012-01-27T18:15:14Z</time>
      </trkpt>
      <trkpt lat="45.84562" lon="4.83016">
        <ele>279.2000122</ele>
        <time>2012-01-27T18:15:19Z</time>
      </trkpt>
      <trkpt lat="45.84563" lon="4.83015">
        <ele>278.6000061</ele>
        <time>2012-01-27T18:15:20Z</time>
      </trkpt>
      <trkpt lat="45.84565" lon="4.83015">
        <ele>278</ele>
        <time>2012-01-27T18:15:21Z</time>
      </trkpt>
      <trkpt lat="45.84566" lon="4.8301">
        <ele>276.7999878</ele>
        <time>2012-01-27T18:15:23Z</time>
      </trkpt>
      <trkpt lat="45.84568" lon="4.82986">
        <ele>272.6000061</ele>
        <time>2012-01-27T18:15:29Z</time>
      </trkpt>
      <trkpt lat="45.84565" lon="4.82976">
        <ele>270</ele>
        <time>2012-01-27T18:15:33Z</time>
      </trkpt>
      <trkpt lat="45.84561" lon="4.82961">
        <ele>266.6000061</ele>
        <time>2012-01-27T18:15:38Z</time>
      </trkpt>
      <trkpt lat="45.84562" lon="4.82947">
        <ele>264</ele>
        <time>2012-01-27T18:15:42Z</time>
      </trkpt>
      <trkpt lat="45.84563" lon="4.82933">
        <ele>260.6000061</ele>
        <time>2012-01-27T18:15:47Z</time>
      </trkpt>
      <trkpt lat="45.84564" lon="4.82928">
        <ele>259.2000122</ele>
        <time>2012-01-27T18:15:49Z</time>
      </trkpt>
      <trkpt lat="45.84569" lon="4.82919">
        <ele>256</ele>
        <time>2012-01-27T18:15:54Z</time>
      </trkpt>
      <trkpt lat="45.84573" lon="4.82916">
        <ele>253.1999969</ele>
        <time>2012-01-27T18:15:59Z</time>
      </trkpt>
      <trkpt lat="45.84573" lon="4.82915">
        <ele>252.6000061</ele>
        <time>2012-01-27T18:16:00Z</time>
      </trkpt>
      <trkpt lat="45.84574" lon="4.82914">
        <ele>252</ele>
        <time>2012-01-27T18:16:01Z</time>
      </trkpt>
      <trkpt lat="45.84575" lon="4.82913">
        <ele>251</ele>
        <time>2012-01-27T18:16:03Z</time>
      </trkpt>
      <trkpt lat="45.84575" lon="4.82908">
        <ele>248.6000061</ele>
        <time>2012-01-27T18:16:08Z</time>
      </trkpt>
      <trkpt lat="45.84572" lon="4.829">
        <ele>247.1999969</ele>
        <time>2012-01-27T18:16:11Z</time>
      </trkpt>
      <trkpt lat="45.84569" lon="4.82897">
        <ele>246.6000061</ele>
        <time>2012-01-27T18:16:12Z</time>
      </trkpt>
      <trkpt lat="45.84565" lon="4.82892">
        <ele>245.6000061</ele>
        <time>2012-01-27T18:16:14Z</time>
      </trkpt>
      <trkpt lat="45.84561" lon="4.82884">
        <ele>244.1999969</ele>
        <time>2012-01-27T18:16:17Z</time>
      </trkpt>
      <trkpt lat="45.84552" lon="4.8288">
        <ele>242</ele>
        <time>2012-01-27T18:16:22Z</time>
      </trkpt>
      <trkpt lat="45.84552" lon="4.82878">
        <ele>241.6000061</ele>
        <time>2012-01-27T18:16:23Z</time>
      </trkpt>
      <trkpt lat="45.84552" lon="4.82876">
        <ele>241</ele>
        <time>2012-01-27T18:16:24Z</time>
      </trkpt>
      <trkpt lat="45.8455" lon="4.82864">
        <ele>239</ele>
        <time>2012-01-27T18:16:29Z</time>
      </trkpt>
      <trkpt lat="45.8454" lon="4.82859">
        <ele>237.3999939</ele>
        <time>2012-01-27T18:16:34Z</time>
      </trkpt>
      <trkpt lat="45.84535" lon="4.82852">
        <ele>236</ele>
        <time>2012-01-27T18:16:38Z</time>
      </trkpt>
      <trkpt lat="45.84535" lon="4.82845">
        <ele>235.6000061</ele>
        <time>2012-01-27T18:16:40Z</time>
      </trkpt>
      <trkpt lat="45.84536" lon="4.82836">
        <ele>234.8000031</ele>
        <time>2012-01-27T18:16:43Z</time>
      </trkpt>
      <trkpt lat="45.84537" lon="4.82832">
        <ele>234.3999939</ele>
        <time>2012-01-27T18:16:44Z</time>
      </trkpt>
      <trkpt lat="45.8454" lon="4.82817">
        <ele>233.1999969</ele>
        <time>2012-01-27T18:16:49Z</time>
      </trkpt>
      <trkpt lat="45.84542" lon="4.82811">
        <ele>232.8000031</ele>
        <time>2012-01-27T18:16:51Z</time>
      </trkpt>
      <trkpt lat="45.84546" lon="4.82803">
        <ele>232.1999969</ele>
        <time>2012-01-27T18:16:54Z</time>
      </trkpt>
      <trkpt lat="45.8455" lon="4.82788">
        <ele>231</ele>
        <time>2012-01-27T18:17:00Z</time>
      </trkpt>
      <trkpt lat="45.84551" lon="4.82782">
        <ele>230.6000061</ele>
        <time>2012-01-27T18:17:02Z</time>
      </trkpt>
      <trkpt lat="45.84553" lon="4.82764">
        <ele>229.6000061</ele>
        <time>2012-01-27T18:17:08Z</time>
      </trkpt>
      <trkpt lat="45.84553" lon="4.82761">
        <ele>229.3999939</ele>
        <time>2012-01-27T18:17:09Z</time>
      </trkpt>
      <trkpt lat="45.84554" lon="4.82749">
        <ele>228.8000031</ele>
        <time>2012-01-27T18:17:13Z</time>
      </trkpt>
      <trkpt lat="45.84554" lon="4.82734">
        <ele>228.1999969</ele>
        <time>2012-01-27T18:17:18Z</time>
      </trkpt>
      <trkpt lat="45.84551" lon="4.82718">
        <ele>227.6000061</ele>
        <time>2012-01-27T18:17:23Z</time>
      </trkpt>
      <trkpt lat="45.84551" lon="4.82709">
        <ele>227.1999969</ele>
        <time>2012-01-27T18:17:26Z</time>
      </trkpt>
      <trkpt lat="45.8455" lon="4.82702">
        <ele>227</ele>
        <time>2012-01-27T18:17:28Z</time>
      </trkpt>
      <trkpt lat="45.84548" lon="4.8269">
        <ele>226.6000061</ele>
        <time>2012-01-27T18:17:32Z</time>
      </trkpt>
      <trkpt lat="45.84548" lon="4.82681">
        <ele>226.3999939</ele>
        <time>2012-01-27T18:17:35Z</time>
      </trkpt>
      <trkpt lat="45.84548" lon="4.82678">
        <ele>226.1999969</ele>
        <time>2012-01-27T18:17:36Z</time>
      </trkpt>
      <trkpt lat="45.84548" lon="4.82675">
        <ele>226</ele>
        <time>2012-01-27T18:17:37Z</time>
      </trkpt>
      <trkpt lat="45.84549" lon="4.82669">
        <ele>225.8000031</ele>
        <time>2012-01-27T18:17:40Z</time>
      </trkpt>
      <trkpt lat="45.84552" lon="4.82656">
        <ele>225.3999939</ele>
        <time>2012-01-27T18:17:45Z</time>
      </trkpt>
      <trkpt lat="45.84553" lon="4.82654">
        <ele>225.3999939</ele>
        <time>2012-01-27T18:17:46Z</time>
      </trkpt>
      <trkpt lat="45.84556" lon="4.82642">
        <ele>225</ele>
        <time>2012-01-27T18:17:51Z</time>
      </trkpt>
      <trkpt lat="45.84557" lon="4.82633">
        <ele>224.6000061</ele>
        <time>2012-01-27T18:17:55Z</time>
      </trkpt>
      <trkpt lat="45.84557" lon="4.82628">
        <ele>224.6000061</ele>
        <time>2012-01-27T18:17:57Z</time>
      </trkpt>
      <trkpt lat="45.84558" lon="4.82622">
        <ele>224.3999939</ele>
        <time>2012-01-27T18:18:00Z</time>
      </trkpt>
      <trkpt lat="45.84559" lon="4.82614">
        <ele>224.1999969</ele>
        <time>2012-01-27T18:18:03Z</time>
      </trkpt>
      <trkpt lat="45.8456" lon="4.82609">
        <ele>224.1999969</ele>
        <time>2012-01-27T18:18:05Z</time>
      </trkpt>
      <trkpt lat="45.8456" lon="4.82604">
        <ele>224</ele>
        <time>2012-01-27T18:18:07Z</time>
      </trkpt>
      <trkpt lat="45.84561" lon="4.82602">
        <ele>224</ele>
        <time>2012-01-27T18:18:08Z</time>
      </trkpt>
      <trkpt lat="45.84561" lon="4.826">
        <ele>224</ele>
        <time>2012-01-27T18:18:09Z</time>
      </trkpt>
      <trkpt lat="45.84563" lon="4.82588">
        <ele>224.1999969</ele>
        <time>2012-01-27T18:18:14Z</time>
      </trkpt>
      <trkpt lat="45.84568" lon="4.8258">
        <ele>225</ele>
        <time>2012-01-27T18:18:18Z</time>
      </trkpt>
      <trkpt lat="45.8457" lon="4.82579">
        <ele>225.1999969</ele>
        <time>2012-01-27T18:18:19Z</time>
      </trkpt>
      <trkpt lat="45.84575" lon="4.82573">
        <ele>227</ele>
        <time>2012-01-27T18:18:24Z</time>
      </trkpt>
      <trkpt lat="45.84585" lon="4.82571">
        <ele>228.8000031</ele>
        <time>2012-01-27T18:18:29Z</time>
      </trkpt>
      <trkpt lat="45.84587" lon="4.82571">
        <ele>229.1999969</ele>
        <time>2012-01-27T18:18:30Z</time>
      </trkpt>
      <trkpt lat="45.84593" lon="4.82571">
        <ele>230</ele>
        <time>2012-01-27T18:18:33Z</time>
      </trkpt>
      <trkpt lat="45.84602" lon="4.82572">
        <ele>232</ele>
        <time>2012-01-27T18:18:39Z</time>
      </trkpt>
      <trkpt lat="45.84604" lon="4.82572">
        <ele>232.6000061</ele>
        <time>2012-01-27T18:18:40Z</time>
      </trkpt>
      <trkpt lat="45.84611" lon="4.82574">
        <ele>235</ele>
        <time>2012-01-27T18:18:46Z</time>
      </trkpt>
      <trkpt lat="45.8462" lon="4.82575">
        <ele>237.3999939</ele>
        <time>2012-01-27T18:18:52Z</time>
      </trkpt>
      <trkpt lat="45.84622" lon="4.82575">
        <ele>238</ele>
        <time>2012-01-27T18:18:54Z</time>
      </trkpt>
      <trkpt lat="45.84624" lon="4.82574">
        <ele>238.3999939</ele>
        <time>2012-01-27T18:18:55Z</time>
      </trkpt>
      <trkpt lat="45.84627" lon="4.82571">
        <ele>239.1999969</ele>
        <time>2012-01-27T18:18:59Z</time>
      </trkpt>
      <trkpt lat="45.84632" lon="4.8256">
        <ele>239.8000031</ele>
        <time>2012-01-27T18:19:06Z</time>
      </trkpt>
      <trkpt lat="45.84633" lon="4.82554">
        <ele>240</ele>
        <time>2012-01-27T18:19:09Z</time>
      </trkpt>
      <trkpt lat="45.84636" lon="4.82543">
        <ele>239.8000031</ele>
        <time>2012-01-27T18:19:15Z</time>
      </trkpt>
      <trkpt lat="45.84641" lon="4.82539">
        <ele>240</ele>
        <time>2012-01-27T18:19:21Z</time>
      </trkpt>
      <trkpt lat="45.84642" lon="4.82538">
        <ele>240.1999969</ele>
        <time>2012-01-27T18:19:22Z</time>
      </trkpt>
      <trkpt lat="45.84645" lon="4.8254">
        <ele>240.6000061</ele>
        <time>2012-01-27T18:19:26Z</time>
      </trkpt>
      <trkpt lat="45.84649" lon="4.82541">
        <ele>241</ele>
        <time>2012-01-27T18:19:29Z</time>
      </trkpt>
      <trkpt lat="45.84655" lon="4.82541">
        <ele>241.3999939</ele>
        <time>2012-01-27T18:19:34Z</time>
      </trkpt>
      <trkpt lat="45.84656" lon="4.82541">
        <ele>241.6000061</ele>
        <time>2012-01-27T18:19:35Z</time>
      </trkpt>
      <trkpt lat="45.8466" lon="4.82542">
        <ele>242</ele>
        <time>2012-01-27T18:19:39Z</time>
      </trkpt>
      <trkpt lat="45.84661" lon="4.82542">
        <ele>242.1999969</ele>
        <time>2012-01-27T18:19:40Z</time>
      </trkpt>
      <trkpt lat="45.84664" lon="4.82544">
        <ele>243.1999969</ele>
        <time>2012-01-27T18:19:44Z</time>
      </trkpt>
      <trkpt lat="45.84664" lon="4.82545">
        <ele>243.3999939</ele>
        <time>2012-01-27T18:19:45Z</time>
      </trkpt>
      <trkpt lat="45.84666" lon="4.82547">
        <ele>244.1999969</ele>
        <time>2012-01-27T18:19:48Z</time>
      </trkpt>
      <trkpt lat="45.84669" lon="4.82548">
        <ele>245</ele>
        <time>2012-01-27T18:19:51Z</time>
      </trkpt>
      <trkpt lat="45.84675" lon="4.82547">
        <ele>247.1999969</ele>
        <time>2012-01-27T18:19:58Z</time>
      </trkpt>
      <trkpt lat="45.84677" lon="4.82547">
        <ele>248.1999969</ele>
        <time>2012-01-27T18:20:01Z</time>
      </trkpt>
      <trkpt lat="45.84678" lon="4.82547">
        <ele>249</ele>
        <time>2012-01-27T18:20:03Z</time>
      </trkpt>
      <trkpt lat="45.84681" lon="4.82546">
        <ele>250.6000061</ele>
        <time>2012-01-27T18:20:07Z</time>
      </trkpt>
      <trkpt lat="45.84684" lon="4.82546">
        <ele>252.6000061</ele>
        <time>2012-01-27T18:20:11Z</time>
      </trkpt>
      <trkpt lat="45.84691" lon="4.82543">
        <ele>256</ele>
        <time>2012-01-27T18:20:19Z</time>
      </trkpt>
      <trkpt lat="45.84695" lon="4.82534">
        <ele>258.6000061</ele>
        <time>2012-01-27T18:20:26Z</time>
      </trkpt>
      <trkpt lat="45.84695" lon="4.82533">
        <ele>259</ele>
        <time>2012-01-27T18:20:27Z</time>
      </trkpt>
      <trkpt lat="45.84698" lon="4.82528">
        <ele>260.6000061</ele>
        <time>2012-01-27T18:20:32Z</time>
      </trkpt>
      <trkpt lat="45.84699" lon="4.82526">
        <ele>261</ele>
        <time>2012-01-27T18:20:34Z</time>
      </trkpt>
      <trkpt lat="45.84702" lon="4.82524">
        <ele>262.2000122</ele>
        <time>2012-01-27T18:20:38Z</time>
      </trkpt>
      <trkpt lat="45.84706" lon="4.8252">
        <ele>263.3999939</ele>
        <time>2012-01-27T18:20:43Z</time>
      </trkpt>
      <trkpt lat="45.84708" lon="4.82518">
        <ele>263.7999878</ele>
        <time>2012-01-27T18:20:45Z</time>
      </trkpt>
      <trkpt lat="45.84709" lon="4.82516">
        <ele>264.2000122</ele>
        <time>2012-01-27T18:20:48Z</time>
      </trkpt>
      <trkpt lat="45.84709" lon="4.82516">
        <ele>264.3999939</ele>
        <time>2012-01-27T18:20:49Z</time>
      </trkpt>
      <trkpt lat="45.84711" lon="4.82514">
        <ele>264.7999878</ele>
        <time>2012-01-27T18:20:51Z</time>
      </trkpt>
      <trkpt lat="45.84715" lon="4.82511">
        <ele>265.6000061</ele>
        <time>2012-01-27T18:20:57Z</time>
      </trkpt>
      <trkpt lat="45.84719" lon="4.82509">
        <ele>266.7999878</ele>
        <time>2012-01-27T18:21:03Z</time>
      </trkpt>
      <trkpt lat="45.84723" lon="4.82509">
        <ele>268</ele>
        <time>2012-01-27T18:21:08Z</time>
      </trkpt>
      <trkpt lat="45.84725" lon="4.82508">
        <ele>268.7999878</ele>
        <time>2012-01-27T18:21:11Z</time>
      </trkpt>
      <trkpt lat="45.84727" lon="4.82508">
        <ele>269</ele>
        <time>2012-01-27T18:21:12Z</time>
      </trkpt>
      <trkpt lat="45.84729" lon="4.82507">
        <ele>269.6000061</ele>
        <time>2012-01-27T18:21:14Z</time>
      </trkpt>
      <trkpt lat="45.8473" lon="4.82506">
        <ele>269.7999878</ele>
        <time>2012-01-27T18:21:15Z</time>
      </trkpt>
      <trkpt lat="45.84733" lon="4.82504">
        <ele>270.7999878</ele>
        <time>2012-01-27T18:21:19Z</time>
      </trkpt>
      <trkpt lat="45.84737" lon="4.82503">
        <ele>272.2000122</ele>
        <time>2012-01-27T18:21:24Z</time>
      </trkpt>
      <trkpt lat="45.84741" lon="4.82502">
        <ele>273</ele>
        <time>2012-01-27T18:21:28Z</time>
      </trkpt>
      <trkpt lat="45.84743" lon="4.82502">
        <ele>273.2000122</ele>
        <time>2012-01-27T18:21:30Z</time>
      </trkpt>
      <trkpt lat="45.84744" lon="4.82502">
        <ele>273.3999939</ele>
        <time>2012-01-27T18:21:31Z</time>
      </trkpt>
      <trkpt lat="45.84746" lon="4.82501">
        <ele>273.3999939</ele>
        <time>2012-01-27T18:21:32Z</time>
      </trkpt>
      <trkpt lat="45.84749" lon="4.82499">
        <ele>273.3999939</ele>
        <time>2012-01-27T18:21:35Z</time>
      </trkpt>
      <trkpt lat="45.84753" lon="4.82498">
        <ele>273.2000122</ele>
        <time>2012-01-27T18:21:39Z</time>
      </trkpt>
      <trkpt lat="45.84754" lon="4.82498">
        <ele>273.2000122</ele>
        <time>2012-01-27T18:21:40Z</time>
      </trkpt>
      <trkpt lat="45.8476" lon="4.82497">
        <ele>273.2000122</ele>
        <time>2012-01-27T18:21:44Z</time>
      </trkpt>
      <trkpt lat="45.84761" lon="4.82497">
        <ele>273.2000122</ele>
        <time>2012-01-27T18:21:45Z</time>
      </trkpt>
      <trkpt lat="45.84763" lon="4.82498">
        <ele>273.3999939</ele>
        <time>2012-01-27T18:21:47Z</time>
      </trkpt>
      <trkpt lat="45.84766" lon="4.82496">
        <ele>273.7999878</ele>
        <time>2012-01-27T18:21:51Z</time>
      </trkpt>
      <trkpt lat="45.84768" lon="4.82496">
        <ele>273.7999878</ele>
        <time>2012-01-27T18:21:52Z</time>
      </trkpt>
      <trkpt lat="45.84773" lon="4.82496">
        <ele>274.2000122</ele>
        <time>2012-01-27T18:21:56Z</time>
      </trkpt>
      <trkpt lat="45.84776" lon="4.82495">
        <ele>274.7999878</ele>
        <time>2012-01-27T18:21:58Z</time>
      </trkpt>
      <trkpt lat="45.84778" lon="4.82494">
        <ele>275.2000122</ele>
        <time>2012-01-27T18:22:00Z</time>
      </trkpt>
      <trkpt lat="45.84781" lon="4.82494">
        <ele>275.7999878</ele>
        <time>2012-01-27T18:22:03Z</time>
      </trkpt>
      <trkpt lat="45.84786" lon="4.82493">
        <ele>276.7999878</ele>
        <time>2012-01-27T18:22:07Z</time>
      </trkpt>
      <trkpt lat="45.84788" lon="4.82493">
        <ele>277</ele>
        <time>2012-01-27T18:22:08Z</time>
      </trkpt>
      <trkpt lat="45.84788" lon="4.82493">
        <ele>277.3999939</ele>
        <time>2012-01-27T18:22:09Z</time>
      </trkpt>
      <trkpt lat="45.84794" lon="4.82492">
        <ele>279</ele>
        <time>2012-01-27T18:22:15Z</time>
      </trkpt>
      <trkpt lat="45.84796" lon="4.82491">
        <ele>279.6000061</ele>
        <time>2012-01-27T18:22:17Z</time>
      </trkpt>
      <trkpt lat="45.84798" lon="4.82491">
        <ele>280.6000061</ele>
        <time>2012-01-27T18:22:20Z</time>
      </trkpt>
      <trkpt lat="45.848" lon="4.8249">
        <ele>282</ele>
        <time>2012-01-27T18:22:23Z</time>
      </trkpt>
      <trkpt lat="45.848" lon="4.8249">
        <ele>283</ele>
        <time>2012-01-27T18:22:25Z</time>
      </trkpt>
      <trkpt lat="45.84803" lon="4.8249">
        <ele>290.3999939</ele>
        <time>2012-01-27T18:22:48Z</time>
      </trkpt>
      <trkpt lat="45.84803" lon="4.82489">
        <ele>290.7999878</ele>
        <time>2012-01-27T18:22:49Z</time>
      </trkpt>
      <trkpt lat="45.84805" lon="4.82487">
        <ele>292.3999939</ele>
        <time>2012-01-27T18:22:54Z</time>
      </trkpt>
      <trkpt lat="45.8481" lon="4.8248">
        <ele>294.3999939</ele>
        <time>2012-01-27T18:23:01Z</time>
      </trkpt>
      <trkpt lat="45.84813" lon="4.82476">
        <ele>295.6000061</ele>
        <time>2012-01-27T18:23:06Z</time>
      </trkpt>
      <trkpt lat="45.84813" lon="4.82475">
        <ele>296</ele>
        <time>2012-01-27T18:23:07Z</time>
      </trkpt>
      <trkpt lat="45.84817" lon="4.82473">
        <ele>297.2000122</ele>
        <time>2012-01-27T18:23:12Z</time>
      </trkpt>
      <trkpt lat="45.84821" lon="4.82471">
        <ele>298.3999939</ele>
        <time>2012-01-27T18:23:17Z</time>
      </trkpt>
      <trkpt lat="45.84821" lon="4.82471">
        <ele>298.6000061</ele>
        <time>2012-01-27T18:23:18Z</time>
      </trkpt>
      <trkpt lat="45.84819" lon="4.82468">
        <ele>299.7999878</ele>
        <time>2012-01-27T18:23:21Z</time>
      </trkpt>
      <trkpt lat="45.84819" lon="4.82467">
        <ele>300.2000122</ele>
        <time>2012-01-27T18:23:22Z</time>
      </trkpt>
      <trkpt lat="45.84818" lon="4.82462">
        <ele>301</ele>
        <time>2012-01-27T18:23:25Z</time>
      </trkpt>
      <trkpt lat="45.84818" lon="4.82461">
        <ele>301.3999939</ele>
        <time>2012-01-27T18:23:26Z</time>
      </trkpt>
      <trkpt lat="45.84818" lon="4.8246">
        <ele>301.7999878</ele>
        <time>2012-01-27T18:23:27Z</time>
      </trkpt>
      <trkpt lat="45.84818" lon="4.82459">
        <ele>302</ele>
        <time>2012-01-27T18:23:28Z</time>
      </trkpt>
      <trkpt lat="45.84818" lon="4.82456">
        <ele>303</ele>
        <time>2012-01-27T18:23:31Z</time>
      </trkpt>
      <trkpt lat="45.84819" lon="4.82453">
        <ele>303.7999878</ele>
        <time>2012-01-27T18:23:34Z</time>
      </trkpt>
      <trkpt lat="45.84819" lon="4.82452">
        <ele>304.6000061</ele>
        <time>2012-01-27T18:23:36Z</time>
      </trkpt>
      <trkpt lat="45.84819" lon="4.82448">
        <ele>306.2000122</ele>
        <time>2012-01-27T18:23:42Z</time>
      </trkpt>
      <trkpt lat="45.84819" lon="4.82445">
        <ele>309.3999939</ele>
        <time>2012-01-27T18:23:54Z</time>
      </trkpt>
      <trkpt lat="45.84817" lon="4.82444">
        <ele>310.6000061</ele>
        <time>2012-01-27T18:23:59Z</time>
      </trkpt>
      <trkpt lat="45.84817" lon="4.8244">
        <ele>311.6000061</ele>
        <time>2012-01-27T18:24:03Z</time>
      </trkpt>
      <trkpt lat="45.84819" lon="4.82437">
        <ele>312.7999878</ele>
        <time>2012-01-27T18:24:08Z</time>
      </trkpt>
      <trkpt lat="45.8482" lon="4.82437">
        <ele>313</ele>
        <time>2012-01-27T18:24:09Z</time>
      </trkpt>
      <trkpt lat="45.84819" lon="4.8243">
        <ele>321.2000122</ele>
        <time>2012-01-27T18:24:37Z</time>
      </trkpt>
      <trkpt lat="45.84819" lon="4.82425">
        <ele>322</ele>
        <time>2012-01-27T18:24:41Z</time>
      </trkpt>
      <trkpt lat="45.84818" lon="4.82424">
        <ele>322.3999939</ele>
        <time>2012-01-27T18:24:42Z</time>
      </trkpt>
      <trkpt lat="45.8481" lon="4.8242">
        <ele>324.3999939</ele>
        <time>2012-01-27T18:24:47Z</time>
      </trkpt>
      <trkpt lat="45.84809" lon="4.82416">
        <ele>325</ele>
        <time>2012-01-27T18:24:50Z</time>
      </trkpt>
      <trkpt lat="45.84805" lon="4.82414">
        <ele>326.7999878</ele>
        <time>2012-01-27T18:24:52Z</time>
      </trkpt>
      <trkpt lat="45.84804" lon="4.82412">
        <ele>328.2000122</ele>
        <time>2012-01-27T18:24:57Z</time>
      </trkpt>
      <trkpt lat="45.84802" lon="4.82407">
        <ele>329.3999939</ele>
        <time>2012-01-27T18:25:02Z</time>
      </trkpt>
      <trkpt lat="45.84801" lon="4.82401">
        <ele>329.6000061</ele>
        <time>2012-01-27T18:25:05Z</time>
      </trkpt>
      <trkpt lat="45.84802" lon="4.82399">
        <ele>329.7999878</ele>
        <time>2012-01-27T18:25:06Z</time>
      </trkpt>
      <trkpt lat="45.84803" lon="4.82398">
        <ele>329.7999878</ele>
        <time>2012-01-27T18:25:07Z</time>
      </trkpt>
      <trkpt lat="45.8481" lon="4.82394">
        <ele>330.6000061</ele>
        <time>2012-01-27T18:25:13Z</time>
      </trkpt>
      <trkpt lat="45.84814" lon="4.82392">
        <ele>330.7999878</ele>
        <time>2012-01-27T18:25:16Z</time>
      </trkpt>
      <trkpt lat="45.84819" lon="4.82389">
        <ele>331.7999878</ele>
        <time>2012-01-27T18:25:21Z</time>
      </trkpt>
      <trkpt lat="45.84821" lon="4.82388">
        <ele>332</ele>
        <time>2012-01-27T18:25:23Z</time>
      </trkpt>
      <trkpt lat="45.84828" lon="4.82383">
        <ele>332.7999878</ele>
        <time>2012-01-27T18:25:28Z</time>
      </trkpt>
      <trkpt lat="45.84829" lon="4.82382">
        <ele>333</ele>
        <time>2012-01-27T18:25:29Z</time>
      </trkpt>
      <trkpt lat="45.84832" lon="4.82379">
        <ele>333.3999939</ele>
        <time>2012-01-27T18:25:32Z</time>
      </trkpt>
      <trkpt lat="45.84835" lon="4.82377">
        <ele>333.6000061</ele>
        <time>2012-01-27T18:25:34Z</time>
      </trkpt>
      <trkpt lat="45.84836" lon="4.82377">
        <ele>333.7999878</ele>
        <time>2012-01-27T18:25:35Z</time>
      </trkpt>
      <trkpt lat="45.84841" lon="4.82371">
        <ele>334.2000122</ele>
        <time>2012-01-27T18:25:40Z</time>
      </trkpt>
      <trkpt lat="45.84845" lon="4.82364">
        <ele>333.3999939</ele>
        <time>2012-01-27T18:25:45Z</time>
      </trkpt>
      <trkpt lat="45.84843" lon="4.82356">
        <ele>333</ele>
        <time>2012-01-27T18:25:48Z</time>
      </trkpt>
      <trkpt lat="45.84842" lon="4.82349">
        <ele>332.6000061</ele>
        <time>2012-01-27T18:25:50Z</time>
      </trkpt>
      <trkpt lat="45.8484" lon="4.82342">
        <ele>332.2000122</ele>
        <time>2012-01-27T18:25:52Z</time>
      </trkpt>
      <trkpt lat="45.84836" lon="4.82328">
        <ele>331.2000122</ele>
        <time>2012-01-27T18:25:56Z</time>
      </trkpt>
      <trkpt lat="45.84836" lon="4.82324">
        <ele>330.7999878</ele>
        <time>2012-01-27T18:25:57Z</time>
      </trkpt>
      <trkpt lat="45.84839" lon="4.8232">
        <ele>330.2000122</ele>
        <time>2012-01-27T18:26:00Z</time>
      </trkpt>
      <trkpt lat="45.84845" lon="4.82317">
        <ele>329.2000122</ele>
        <time>2012-01-27T18:26:05Z</time>
      </trkpt>
      <trkpt lat="45.84846" lon="4.82317">
        <ele>329</ele>
        <time>2012-01-27T18:26:06Z</time>
      </trkpt>
      <trkpt lat="45.8485" lon="4.82315">
        <ele>328</ele>
        <time>2012-01-27T18:26:14Z</time>
      </trkpt>
      <trkpt lat="45.84853" lon="4.82313">
        <ele>327.6000061</ele>
        <time>2012-01-27T18:26:17Z</time>
      </trkpt>
      <trkpt lat="45.84855" lon="4.82311">
        <ele>327.3999939</ele>
        <time>2012-01-27T18:26:19Z</time>
      </trkpt>
      <trkpt lat="45.84861" lon="4.82309">
        <ele>327.2000122</ele>
        <time>2012-01-27T18:26:26Z</time>
      </trkpt>
      <trkpt lat="45.84864" lon="4.82307">
        <ele>327.2000122</ele>
        <time>2012-01-27T18:26:30Z</time>
      </trkpt>
      <trkpt lat="45.84867" lon="4.82305">
        <ele>327.2000122</ele>
        <time>2012-01-27T18:26:33Z</time>
      </trkpt>
      <trkpt lat="45.84871" lon="4.82301">
        <ele>328.2000122</ele>
        <time>2012-01-27T18:26:40Z</time>
      </trkpt>
      <trkpt lat="45.84878" lon="4.82298">
        <ele>328.7999878</ele>
        <time>2012-01-27T18:26:46Z</time>
      </trkpt>
      <trkpt lat="45.84884" lon="4.82293">
        <ele>328.7999878</ele>
        <time>2012-01-27T18:26:51Z</time>
      </trkpt>
      <trkpt lat="45.84887" lon="4.82292">
        <ele>328.6000061</ele>
        <time>2012-01-27T18:26:53Z</time>
      </trkpt>
      <trkpt lat="45.84891" lon="4.82291">
        <ele>328.3999939</ele>
        <time>2012-01-27T18:26:56Z</time>
      </trkpt>
      <trkpt lat="45.84896" lon="4.82288">
        <ele>328.2000122</ele>
        <time>2012-01-27T18:27:00Z</time>
      </trkpt>
      <trkpt lat="45.849" lon="4.82285">
        <ele>328.2000122</ele>
        <time>2012-01-27T18:27:05Z</time>
      </trkpt>
      <trkpt lat="45.84902" lon="4.82283">
        <ele>328.2000122</ele>
        <time>2012-01-27T18:27:07Z</time>
      </trkpt>
      <trkpt lat="45.84903" lon="4.82281">
        <ele>328.6000061</ele>
        <time>2012-01-27T18:27:10Z</time>
      </trkpt>
      <trkpt lat="45.84903" lon="4.82269">
        <ele>330.3999939</ele>
        <time>2012-01-27T18:27:18Z</time>
      </trkpt>
      <trkpt lat="45.84901" lon="4.82258">
        <ele>332.3999939</ele>
        <time>2012-01-27T18:27:25Z</time>
      </trkpt>
      <trkpt lat="45.84902" lon="4.82252">
        <ele>333.6000061</ele>
        <time>2012-01-27T18:27:30Z</time>
      </trkpt>
      <trkpt lat="45.849" lon="4.82247">
        <ele>334.6000061</ele>
        <time>2012-01-27T18:27:34Z</time>
      </trkpt>
      <trkpt lat="45.84897" lon="4.8224">
        <ele>336</ele>
        <time>2012-01-27T18:27:39Z</time>
      </trkpt>
      <trkpt lat="45.84895" lon="4.82233">
        <ele>337.3999939</ele>
        <time>2012-01-27T18:27:44Z</time>
      </trkpt>
      <trkpt lat="45.84894" lon="4.82233">
        <ele>337.6000061</ele>
        <time>2012-01-27T18:27:45Z</time>
      </trkpt>
      <trkpt lat="45.84893" lon="4.82231">
        <ele>337.7999878</ele>
        <time>2012-01-27T18:27:46Z</time>
      </trkpt>
      <trkpt lat="45.84889" lon="4.82225">
        <ele>339.6000061</ele>
        <time>2012-01-27T18:27:52Z</time>
      </trkpt>
      <trkpt lat="45.84882" lon="4.82219">
        <ele>341.3999939</ele>
        <time>2012-01-27T18:27:59Z</time>
      </trkpt>
      <trkpt lat="45.8488" lon="4.82217">
        <ele>342</ele>
        <time>2012-01-27T18:28:01Z</time>
      </trkpt>
      <trkpt lat="45.84876" lon="4.82215">
        <ele>342.6000061</ele>
        <time>2012-01-27T18:28:04Z</time>
      </trkpt>
      <trkpt lat="45.84874" lon="4.82215">
        <ele>343.2000122</ele>
        <time>2012-01-27T18:28:06Z</time>
      </trkpt>
      <trkpt lat="45.84871" lon="4.82213">
        <ele>343.6000061</ele>
        <time>2012-01-27T18:28:08Z</time>
      </trkpt>
      <trkpt lat="45.84865" lon="4.82209">
        <ele>344.6000061</ele>
        <time>2012-01-27T18:28:13Z</time>
      </trkpt>
      <trkpt lat="45.84861" lon="4.82208">
        <ele>344.7999878</ele>
        <time>2012-01-27T18:28:15Z</time>
      </trkpt>
      <trkpt lat="45.84854" lon="4.82203">
        <ele>345.6000061</ele>
        <time>2012-01-27T18:28:19Z</time>
      </trkpt>
      <trkpt lat="45.84847" lon="4.82194">
        <ele>346.3999939</ele>
        <time>2012-01-27T18:28:24Z</time>
      </trkpt>
      <trkpt lat="45.84846" lon="4.82191">
        <ele>346.6000061</ele>
        <time>2012-01-27T18:28:25Z</time>
      </trkpt>
      <trkpt lat="45.84842" lon="4.82183">
        <ele>347.2000122</ele>
        <time>2012-01-27T18:28:29Z</time>
      </trkpt>
      <trkpt lat="45.84841" lon="4.82178">
        <ele>348.3999939</ele>
        <time>2012-01-27T18:28:33Z</time>
      </trkpt>
      <trkpt lat="45.84841" lon="4.82177">
        <ele>348.7999878</ele>
        <time>2012-01-27T18:28:34Z</time>
      </trkpt>
      <trkpt lat="45.8484" lon="4.82171">
        <ele>350</ele>
        <time>2012-01-27T18:28:38Z</time>
      </trkpt>
      <trkpt lat="45.84839" lon="4.82168">
        <ele>350.6000061</ele>
        <time>2012-01-27T18:28:40Z</time>
      </trkpt>
      <trkpt lat="45.84837" lon="4.82158">
        <ele>352.3999939</ele>
        <time>2012-01-27T18:28:46Z</time>
      </trkpt>
      <trkpt lat="45.84836" lon="4.8215">
        <ele>353.7999878</ele>
        <time>2012-01-27T18:28:50Z</time>
      </trkpt>
      <trkpt lat="45.84836" lon="4.82145">
        <ele>354.6000061</ele>
        <time>2012-01-27T18:28:53Z</time>
      </trkpt>
      <trkpt lat="45.84835" lon="4.82142">
        <ele>354.7999878</ele>
        <time>2012-01-27T18:28:54Z</time>
      </trkpt>
      <trkpt lat="45.84836" lon="4.82133">
        <ele>356.2000122</ele>
        <time>2012-01-27T18:28:59Z</time>
      </trkpt>
      <trkpt lat="45.84837" lon="4.82126">
        <ele>357.6000061</ele>
        <time>2012-01-27T18:29:03Z</time>
      </trkpt>
      <trkpt lat="45.84838" lon="4.82116">
        <ele>359</ele>
        <time>2012-01-27T18:29:08Z</time>
      </trkpt>
      <trkpt lat="45.8484" lon="4.82113">
        <ele>359.7999878</ele>
        <time>2012-01-27T18:29:10Z</time>
      </trkpt>
      <trkpt lat="45.84844" lon="4.82104">
        <ele>361.7999878</ele>
        <time>2012-01-27T18:29:16Z</time>
      </trkpt>
      <trkpt lat="45.84846" lon="4.82096">
        <ele>364.2000122</ele>
        <time>2012-01-27T18:29:22Z</time>
      </trkpt>
      <trkpt lat="45.84847" lon="4.82091">
        <ele>364.6000061</ele>
        <time>2012-01-27T18:29:24Z</time>
      </trkpt>
      <trkpt lat="45.84848" lon="4.82084">
        <ele>366</ele>
        <time>2012-01-27T18:29:28Z</time>
      </trkpt>
      <trkpt lat="45.8485" lon="4.82079">
        <ele>367</ele>
        <time>2012-01-27T18:29:31Z</time>
      </trkpt>
      <trkpt lat="45.84851" lon="4.82075">
        <ele>367.6000061</ele>
        <time>2012-01-27T18:29:33Z</time>
      </trkpt>
      <trkpt lat="45.84854" lon="4.82068">
        <ele>368.7999878</ele>
        <time>2012-01-27T18:29:37Z</time>
      </trkpt>
      <trkpt lat="45.84856" lon="4.82064">
        <ele>369.6000061</ele>
        <time>2012-01-27T18:29:40Z</time>
      </trkpt>
      <trkpt lat="45.84859" lon="4.82059">
        <ele>370.6000061</ele>
        <time>2012-01-27T18:29:43Z</time>
      </trkpt>
      <trkpt lat="45.8486" lon="4.82055">
        <ele>371.6000061</ele>
        <time>2012-01-27T18:29:46Z</time>
      </trkpt>
      <trkpt lat="45.84861" lon="4.82051">
        <ele>372.2000122</ele>
        <time>2012-01-27T18:29:48Z</time>
      </trkpt>
      <trkpt lat="45.84862" lon="4.82049">
        <ele>372.6000061</ele>
        <time>2012-01-27T18:29:50Z</time>
      </trkpt>
      <trkpt lat="45.84864" lon="4.82047">
        <ele>373</ele>
        <time>2012-01-27T18:29:52Z</time>
      </trkpt>
      <trkpt lat="45.84867" lon="4.82041">
        <ele>373.7999878</ele>
        <time>2012-01-27T18:29:56Z</time>
      </trkpt>
      <trkpt lat="45.84869" lon="4.82038">
        <ele>374.2000122</ele>
        <time>2012-01-27T18:29:58Z</time>
      </trkpt>
      <trkpt lat="45.84872" lon="4.8203">
        <ele>375.3999939</ele>
        <time>2012-01-27T18:30:04Z</time>
      </trkpt>
      <trkpt lat="45.84876" lon="4.82025">
        <ele>376.3999939</ele>
        <time>2012-01-27T18:30:08Z</time>
      </trkpt>
      <trkpt lat="45.84878" lon="4.8202">
        <ele>377.2000122</ele>
        <time>2012-01-27T18:30:11Z</time>
      </trkpt>
      <trkpt lat="45.8488" lon="4.82016">
        <ele>377.7999878</ele>
        <time>2012-01-27T18:30:14Z</time>
      </trkpt>
      <trkpt lat="45.84882" lon="4.82011">
        <ele>378.6000061</ele>
        <time>2012-01-27T18:30:17Z</time>
      </trkpt>
      <trkpt lat="45.84885" lon="4.82007">
        <ele>379.2000122</ele>
        <time>2012-01-27T18:30:20Z</time>
      </trkpt>
      <trkpt lat="45.84887" lon="4.82004">
        <ele>379.6000061</ele>
        <time>2012-01-27T18:30:22Z</time>
      </trkpt>
      <trkpt lat="45.84888" lon="4.82002">
        <ele>379.7999878</ele>
        <time>2012-01-27T18:30:23Z</time>
      </trkpt>
      <trkpt lat="45.84893" lon="4.81992">
        <ele>381.3999939</ele>
        <time>2012-01-27T18:30:30Z</time>
      </trkpt>
      <trkpt lat="45.84899" lon="4.81985">
        <ele>383</ele>
        <time>2012-01-27T18:30:36Z</time>
      </trkpt>
      <trkpt lat="45.849" lon="4.81983">
        <ele>383.2000122</ele>
        <time>2012-01-27T18:30:37Z</time>
      </trkpt>
      <trkpt lat="45.84904" lon="4.81976">
        <ele>384.6000061</ele>
        <time>2012-01-27T18:30:43Z</time>
      </trkpt>
      <trkpt lat="45.84908" lon="4.81968">
        <ele>386</ele>
        <time>2012-01-27T18:30:49Z</time>
      </trkpt>
      <trkpt lat="45.84909" lon="4.81967">
        <ele>386.6000061</ele>
        <time>2012-01-27T18:30:51Z</time>
      </trkpt>
      <trkpt lat="45.84912" lon="4.81963">
        <ele>387.3999939</ele>
        <time>2012-01-27T18:30:54Z</time>
      </trkpt>
      <trkpt lat="45.84914" lon="4.81956">
        <ele>388</ele>
        <time>2012-01-27T18:30:58Z</time>
      </trkpt>
      <trkpt lat="45.84916" lon="4.81952">
        <ele>388.7999878</ele>
        <time>2012-01-27T18:31:01Z</time>
      </trkpt>
      <trkpt lat="45.84918" lon="4.81948">
        <ele>389.3999939</ele>
        <time>2012-01-27T18:31:04Z</time>
      </trkpt>
      <trkpt lat="45.84923" lon="4.81942">
        <ele>390.2000122</ele>
        <time>2012-01-27T18:31:09Z</time>
      </trkpt>
      <trkpt lat="45.84926" lon="4.8194">
        <ele>390.3999939</ele>
        <time>2012-01-27T18:31:11Z</time>
      </trkpt>
      <trkpt lat="45.84928" lon="4.81937">
        <ele>390.6000061</ele>
        <time>2012-01-27T18:31:14Z</time>
      </trkpt>
      <trkpt lat="45.84931" lon="4.81931">
        <ele>391.2000122</ele>
        <time>2012-01-27T18:31:18Z</time>
      </trkpt>
      <trkpt lat="45.84932" lon="4.81929">
        <ele>391.3999939</ele>
        <time>2012-01-27T18:31:19Z</time>
      </trkpt>
      <trkpt lat="45.84936" lon="4.81924">
        <ele>391.7999878</ele>
        <time>2012-01-27T18:31:23Z</time>
      </trkpt>
      <trkpt lat="45.84937" lon="4.81922">
        <ele>392</ele>
        <time>2012-01-27T18:31:24Z</time>
      </trkpt>
      <trkpt lat="45.84938" lon="4.81921">
        <ele>392.2000122</ele>
        <time>2012-01-27T18:31:25Z</time>
      </trkpt>
      <trkpt lat="45.84939" lon="4.81918">
        <ele>392.3999939</ele>
        <time>2012-01-27T18:31:27Z</time>
      </trkpt>
      <trkpt lat="45.84942" lon="4.81914">
        <ele>393.2000122</ele>
        <time>2012-01-27T18:31:31Z</time>
      </trkpt>
      <trkpt lat="45.84944" lon="4.81911">
        <ele>393.6000061</ele>
        <time>2012-01-27T18:31:34Z</time>
      </trkpt>
      <trkpt lat="45.84948" lon="4.81902">
        <ele>394.3999939</ele>
        <time>2012-01-27T18:31:39Z</time>
      </trkpt>
      <trkpt lat="45.84949" lon="4.819">
        <ele>394.6000061</ele>
        <time>2012-01-27T18:31:40Z</time>
      </trkpt>
      <trkpt lat="45.84951" lon="4.81896">
        <ele>395.2000122</ele>
        <time>2012-01-27T18:31:43Z</time>
      </trkpt>
      <trkpt lat="45.84954" lon="4.8189">
        <ele>395.3999939</ele>
        <time>2012-01-27T18:31:47Z</time>
      </trkpt>
      <trkpt lat="45.84958" lon="4.81882">
        <ele>396.6000061</ele>
        <time>2012-01-27T18:31:54Z</time>
      </trkpt>
      <trkpt lat="45.8496" lon="4.8188">
        <ele>396.7999878</ele>
        <time>2012-01-27T18:31:56Z</time>
      </trkpt>
      <trkpt lat="45.84962" lon="4.81877">
        <ele>397.2000122</ele>
        <time>2012-01-27T18:31:58Z</time>
      </trkpt>
      <trkpt lat="45.84963" lon="4.81876">
        <ele>397.3999939</ele>
        <time>2012-01-27T18:31:59Z</time>
      </trkpt>
      <trkpt lat="45.84966" lon="4.8187">
        <ele>398</ele>
        <time>2012-01-27T18:32:03Z</time>
      </trkpt>
      <trkpt lat="45.84968" lon="4.81867">
        <ele>398.2000122</ele>
        <time>2012-01-27T18:32:05Z</time>
      </trkpt>
      <trkpt lat="45.84972" lon="4.81861">
        <ele>399</ele>
        <time>2012-01-27T18:32:09Z</time>
      </trkpt>
      <trkpt lat="45.84973" lon="4.8186">
        <ele>399.2000122</ele>
        <time>2012-01-27T18:32:10Z</time>
      </trkpt>
      <trkpt lat="45.84977" lon="4.81853">
        <ele>400.2000122</ele>
        <time>2012-01-27T18:32:15Z</time>
      </trkpt>
      <trkpt lat="45.84982" lon="4.81846">
        <ele>401.3999939</ele>
        <time>2012-01-27T18:32:20Z</time>
      </trkpt>
      <trkpt lat="45.84983" lon="4.81844">
        <ele>401.6000061</ele>
        <time>2012-01-27T18:32:21Z</time>
      </trkpt>
      <trkpt lat="45.84985" lon="4.8184">
        <ele>402.2000122</ele>
        <time>2012-01-27T18:32:23Z</time>
      </trkpt>
      <trkpt lat="45.84987" lon="4.81837">
        <ele>403</ele>
        <time>2012-01-27T18:32:26Z</time>
      </trkpt>
      <trkpt lat="45.84988" lon="4.81833">
        <ele>403.6000061</ele>
        <time>2012-01-27T18:32:28Z</time>
      </trkpt>
      <trkpt lat="45.84993" lon="4.81823">
        <ele>405.6000061</ele>
        <time>2012-01-27T18:32:35Z</time>
      </trkpt>
      <trkpt lat="45.84996" lon="4.8182">
        <ele>406.6000061</ele>
        <time>2012-01-27T18:32:38Z</time>
      </trkpt>
      <trkpt lat="45.84998" lon="4.81817">
        <ele>407.3999939</ele>
        <time>2012-01-27T18:32:41Z</time>
      </trkpt>
      <trkpt lat="45.85003" lon="4.81811">
        <ele>409.2000122</ele>
        <time>2012-01-27T18:32:47Z</time>
      </trkpt>
      <trkpt lat="45.85006" lon="4.81805">
        <ele>410.2000122</ele>
        <time>2012-01-27T18:32:51Z</time>
      </trkpt>
      <trkpt lat="45.85007" lon="4.81804">
        <ele>410.7999878</ele>
        <time>2012-01-27T18:32:53Z</time>
      </trkpt>
      <trkpt lat="45.85008" lon="4.81803">
        <ele>411</ele>
        <time>2012-01-27T18:32:54Z</time>
      </trkpt>
      <trkpt lat="45.8501" lon="4.81801">
        <ele>411.6000061</ele>
        <time>2012-01-27T18:32:56Z</time>
      </trkpt>
      <trkpt lat="45.85013" lon="4.81798">
        <ele>412.3999939</ele>
        <time>2012-01-27T18:32:59Z</time>
      </trkpt>
      <trkpt lat="45.85013" lon="4.81796">
        <ele>412.6000061</ele>
        <time>2012-01-27T18:33:00Z</time>
      </trkpt>
      <trkpt lat="45.85017" lon="4.81788">
        <ele>413.3999939</ele>
        <time>2012-01-27T18:33:04Z</time>
      </trkpt>
      <trkpt lat="45.85018" lon="4.81784">
        <ele>414</ele>
        <time>2012-01-27T18:33:06Z</time>
      </trkpt>
      <trkpt lat="45.85019" lon="4.81783">
        <ele>414.3999939</ele>
        <time>2012-01-27T18:33:07Z</time>
      </trkpt>
      <trkpt lat="45.85021" lon="4.81779">
        <ele>415</ele>
        <time>2012-01-27T18:33:09Z</time>
      </trkpt>
      <trkpt lat="45.85022" lon="4.81777">
        <ele>415.2000122</ele>
        <time>2012-01-27T18:33:10Z</time>
      </trkpt>
      <trkpt lat="45.85023" lon="4.81774">
        <ele>415.3999939</ele>
        <time>2012-01-27T18:33:12Z</time>
      </trkpt>
      <trkpt lat="45.85026" lon="4.81769">
        <ele>416</ele>
        <time>2012-01-27T18:33:15Z</time>
      </trkpt>
      <trkpt lat="45.85026" lon="4.81765">
        <ele>416.6000061</ele>
        <time>2012-01-27T18:33:17Z</time>
      </trkpt>
      <trkpt lat="45.85029" lon="4.81762">
        <ele>417.2000122</ele>
        <time>2012-01-27T18:33:20Z</time>
      </trkpt>
      <trkpt lat="45.85031" lon="4.81757">
        <ele>417.7999878</ele>
        <time>2012-01-27T18:33:23Z</time>
      </trkpt>
      <trkpt lat="45.85035" lon="4.81751">
        <ele>418.7999878</ele>
        <time>2012-01-27T18:33:28Z</time>
      </trkpt>
      <trkpt lat="45.85035" lon="4.81749">
        <ele>419</ele>
        <time>2012-01-27T18:33:29Z</time>
      </trkpt>
      <trkpt lat="45.85038" lon="4.81739">
        <ele>420.3999939</ele>
        <time>2012-01-27T18:33:36Z</time>
      </trkpt>
      <trkpt lat="45.85041" lon="4.81736">
        <ele>421</ele>
        <time>2012-01-27T18:33:39Z</time>
      </trkpt>
      <trkpt lat="45.85045" lon="4.81735">
        <ele>421.3999939</ele>
        <time>2012-01-27T18:33:42Z</time>
      </trkpt>
      <trkpt lat="45.85046" lon="4.81735">
        <ele>421.6000061</ele>
        <time>2012-01-27T18:33:43Z</time>
      </trkpt>
      <trkpt lat="45.8505" lon="4.81737">
        <ele>421.6000061</ele>
        <time>2012-01-27T18:33:46Z</time>
      </trkpt>
      <trkpt lat="45.85051" lon="4.81737">
        <ele>421.7999878</ele>
        <time>2012-01-27T18:33:48Z</time>
      </trkpt>
      <trkpt lat="45.85057" lon="4.81737">
        <ele>422.6000061</ele>
        <time>2012-01-27T18:33:53Z</time>
      </trkpt>
      <trkpt lat="45.85057" lon="4.81736">
        <ele>422.7999878</ele>
        <time>2012-01-27T18:33:54Z</time>
      </trkpt>
      <trkpt lat="45.85059" lon="4.81735">
        <ele>422.7999878</ele>
        <time>2012-01-27T18:33:56Z</time>
      </trkpt>
      <trkpt lat="45.8506" lon="4.81733">
        <ele>423.2000122</ele>
        <time>2012-01-27T18:33:58Z</time>
      </trkpt>
      <trkpt lat="45.85066" lon="4.81726">
        <ele>424.2000122</ele>
        <time>2012-01-27T18:34:04Z</time>
      </trkpt>
      <trkpt lat="45.85073" lon="4.81725">
        <ele>425.2000122</ele>
        <time>2012-01-27T18:34:10Z</time>
      </trkpt>
      <trkpt lat="45.85074" lon="4.81725">
        <ele>425.3999939</ele>
        <time>2012-01-27T18:34:11Z</time>
      </trkpt>
      <trkpt lat="45.85075" lon="4.81726">
        <ele>425.6000061</ele>
        <time>2012-01-27T18:34:14Z</time>
      </trkpt>
      <trkpt lat="45.85075" lon="4.81726">
        <ele>426.3999939</ele>
        <time>2012-01-27T18:34:19Z</time>
      </trkpt>
      <trkpt lat="45.85079" lon="4.81727">
        <ele>426.7999878</ele>
        <time>2012-01-27T18:34:28Z</time>
      </trkpt>
      <trkpt lat="45.85079" lon="4.81726">
        <ele>426.7999878</ele>
        <time>2012-01-27T18:34:32Z</time>
      </trkpt>
      <trkpt lat="45.85079" lon="4.81724">
        <ele>427.7999878</ele>
        <time>2012-01-27T18:34:49Z</time>
      </trkpt>
      <trkpt lat="45.85076" lon="4.81724">
        <ele>428.2000122</ele>
        <time>2012-01-27T18:34:56Z</time>
      </trkpt>
      <trkpt lat="45.85074" lon="4.81726">
        <ele>428</ele>
        <time>2012-01-27T18:35:02Z</time>
      </trkpt>
      <trkpt lat="45.85071" lon="4.81724">
        <ele>428.2000122</ele>
        <time>2012-01-27T18:35:07Z</time>
      </trkpt>
      <trkpt lat="45.85068" lon="4.81727">
        <ele>428</ele>
        <time>2012-01-27T18:35:09Z</time>
      </trkpt>
      <trkpt lat="45.85067" lon="4.81728">
        <ele>428</ele>
        <time>2012-01-27T18:35:10Z</time>
      </trkpt>
      <trkpt lat="45.85066" lon="4.81732">
        <ele>428</ele>
        <time>2012-01-27T18:35:12Z</time>
      </trkpt>
      <trkpt lat="45.85059" lon="4.81741">
        <ele>427.7999878</ele>
        <time>2012-01-27T18:35:17Z</time>
      </trkpt>
      <trkpt lat="45.85057" lon="4.81742">
        <ele>427.7999878</ele>
        <time>2012-01-27T18:35:18Z</time>
      </trkpt>
      <trkpt lat="45.85053" lon="4.81742">
        <ele>427.7999878</ele>
        <time>2012-01-27T18:35:20Z</time>
      </trkpt>
      <trkpt lat="45.85052" lon="4.81742">
        <ele>427.7999878</ele>
        <time>2012-01-27T18:35:21Z</time>
      </trkpt>
      <trkpt lat="45.85051" lon="4.81742">
        <ele>427.7999878</ele>
        <time>2012-01-27T18:35:22Z</time>
      </trkpt>
      <trkpt lat="45.85046" lon="4.81741">
        <ele>427.6000061</ele>
        <time>2012-01-27T18:35:25Z</time>
      </trkpt>
      <trkpt lat="45.85045" lon="4.81742">
        <ele>427.6000061</ele>
        <time>2012-01-27T18:35:26Z</time>
      </trkpt>
      <trkpt lat="45.85041" lon="4.81747">
        <ele>427.6000061</ele>
        <time>2012-01-27T18:35:30Z</time>
      </trkpt>
      <trkpt lat="45.8504" lon="4.81754">
        <ele>427.6000061</ele>
        <time>2012-01-27T18:35:32Z</time>
      </trkpt>
      <trkpt lat="45.85037" lon="4.81759">
        <ele>427.6000061</ele>
        <time>2012-01-27T18:35:35Z</time>
      </trkpt>
      <trkpt lat="45.85035" lon="4.81761">
        <ele>427.6000061</ele>
        <time>2012-01-27T18:35:37Z</time>
      </trkpt>
      <trkpt lat="45.85031" lon="4.81767">
        <ele>427.3999939</ele>
        <time>2012-01-27T18:35:40Z</time>
      </trkpt>
      <trkpt lat="45.85028" lon="4.81771">
        <ele>427.2000122</ele>
        <time>2012-01-27T18:35:43Z</time>
      </trkpt>
      <trkpt lat="45.85027" lon="4.81773">
        <ele>427.2000122</ele>
        <time>2012-01-27T18:35:44Z</time>
      </trkpt>
      <trkpt lat="45.85027" lon="4.81774">
        <ele>427</ele>
        <time>2012-01-27T18:35:45Z</time>
      </trkpt>
      <trkpt lat="45.85024" lon="4.81777">
        <ele>426.6000061</ele>
        <time>2012-01-27T18:35:51Z</time>
      </trkpt>
      <trkpt lat="45.85018" lon="4.81777">
        <ele>427.2000122</ele>
        <time>2012-01-27T18:36:15Z</time>
      </trkpt>
      <trkpt lat="45.85017" lon="4.81776">
        <ele>427.2000122</ele>
        <time>2012-01-27T18:36:16Z</time>
      </trkpt>
      <trkpt lat="45.85013" lon="4.81774">
        <ele>427</ele>
        <time>2012-01-27T18:36:20Z</time>
      </trkpt>
      <trkpt lat="45.85011" lon="4.81774">
        <ele>427</ele>
        <time>2012-01-27T18:36:21Z</time>
      </trkpt>
      <trkpt lat="45.85011" lon="4.81769">
        <ele>426.7999878</ele>
        <time>2012-01-27T18:36:22Z</time>
      </trkpt>
      <trkpt lat="45.8501" lon="4.81765">
        <ele>426.6000061</ele>
        <time>2012-01-27T18:36:24Z</time>
      </trkpt>
      <trkpt lat="45.85006" lon="4.81767">
        <ele>426.2000122</ele>
        <time>2012-01-27T18:36:29Z</time>
      </trkpt>
      <trkpt lat="45.85005" lon="4.81771">
        <ele>425.7999878</ele>
        <time>2012-01-27T18:36:36Z</time>
      </trkpt>
      <trkpt lat="45.85003" lon="4.81769">
        <ele>425.6000061</ele>
        <time>2012-01-27T18:36:38Z</time>
      </trkpt>
      <trkpt lat="45.85001" lon="4.81766">
        <ele>425.6000061</ele>
        <time>2012-01-27T18:36:40Z</time>
      </trkpt>
      <trkpt lat="45.85" lon="4.81765">
        <ele>425.3999939</ele>
        <time>2012-01-27T18:36:41Z</time>
      </trkpt>
      <trkpt lat="45.84995" lon="4.81757">
        <ele>425</ele>
        <time>2012-01-27T18:36:47Z</time>
      </trkpt>
      <trkpt lat="45.84992" lon="4.81749">
        <ele>424.3999939</ele>
        <time>2012-01-27T18:36:52Z</time>
      </trkpt>
      <trkpt lat="45.84989" lon="4.81747">
        <ele>424</ele>
        <time>2012-01-27T18:36:55Z</time>
      </trkpt>
      <trkpt lat="45.84987" lon="4.81744">
        <ele>423.6000061</ele>
        <time>2012-01-27T18:36:57Z</time>
      </trkpt>
      <trkpt lat="45.84985" lon="4.81741">
        <ele>423.2000122</ele>
        <time>2012-01-27T18:37:00Z</time>
      </trkpt>
      <trkpt lat="45.84984" lon="4.81739">
        <ele>422.7999878</ele>
        <time>2012-01-27T18:37:02Z</time>
      </trkpt>
      <trkpt lat="45.84983" lon="4.81738">
        <ele>422.6000061</ele>
        <time>2012-01-27T18:37:04Z</time>
      </trkpt>
      <trkpt lat="45.84981" lon="4.81738">
        <ele>422</ele>
        <time>2012-01-27T18:37:08Z</time>
      </trkpt>
      <trkpt lat="45.8498" lon="4.81733">
        <ele>421</ele>
        <time>2012-01-27T18:37:13Z</time>
      </trkpt>
      <trkpt lat="45.84977" lon="4.81732">
        <ele>420</ele>
        <time>2012-01-27T18:37:18Z</time>
      </trkpt>
      <trkpt lat="45.84975" lon="4.81731">
        <ele>419.3999939</ele>
        <time>2012-01-27T18:37:20Z</time>
      </trkpt>
      <trkpt lat="45.84972" lon="4.81731">
        <ele>418.2000122</ele>
        <time>2012-01-27T18:37:25Z</time>
      </trkpt>
      <trkpt lat="45.84969" lon="4.81727">
        <ele>416.7999878</ele>
        <time>2012-01-27T18:37:30Z</time>
      </trkpt>
      <trkpt lat="45.84967" lon="4.81726">
        <ele>415.7999878</ele>
        <time>2012-01-27T18:37:34Z</time>
      </trkpt>
      <trkpt lat="45.84963" lon="4.8173">
        <ele>414.7999878</ele>
        <time>2012-01-27T18:37:38Z</time>
      </trkpt>
      <trkpt lat="45.8496" lon="4.81732">
        <ele>414.2000122</ele>
        <time>2012-01-27T18:37:40Z</time>
      </trkpt>
      <trkpt lat="45.84959" lon="4.81733">
        <ele>414</ele>
        <time>2012-01-27T18:37:41Z</time>
      </trkpt>
      <trkpt lat="45.84957" lon="4.81736">
        <ele>413.6000061</ele>
        <time>2012-01-27T18:37:43Z</time>
      </trkpt>
      <trkpt lat="45.84953" lon="4.81744">
        <ele>412.3999939</ele>
        <time>2012-01-27T18:37:48Z</time>
      </trkpt>
      <trkpt lat="45.84953" lon="4.81744">
        <ele>412</ele>
        <time>2012-01-27T18:37:50Z</time>
      </trkpt>
      <trkpt lat="45.84951" lon="4.81743">
        <ele>411.3999939</ele>
        <time>2012-01-27T18:37:53Z</time>
      </trkpt>
      <trkpt lat="45.8495" lon="4.8174">
        <ele>410.7999878</ele>
        <time>2012-01-27T18:37:55Z</time>
      </trkpt>
      <trkpt lat="45.84949" lon="4.81737">
        <ele>410</ele>
        <time>2012-01-27T18:37:59Z</time>
      </trkpt>
      <trkpt lat="45.84948" lon="4.81735">
        <ele>409.3999939</ele>
        <time>2012-01-27T18:38:01Z</time>
      </trkpt>
      <trkpt lat="45.84948" lon="4.81729">
        <ele>407.7999878</ele>
        <time>2012-01-27T18:38:08Z</time>
      </trkpt>
      <trkpt lat="45.84945" lon="4.81727">
        <ele>406.7999878</ele>
        <time>2012-01-27T18:38:12Z</time>
      </trkpt>
      <trkpt lat="45.84939" lon="4.81726">
        <ele>405.3999939</ele>
        <time>2012-01-27T18:38:18Z</time>
      </trkpt>
      <trkpt lat="45.84939" lon="4.81725">
        <ele>405.2000122</ele>
        <time>2012-01-27T18:38:19Z</time>
      </trkpt>
      <trkpt lat="45.84938" lon="4.81724">
        <ele>404.6000061</ele>
        <time>2012-01-27T18:38:21Z</time>
      </trkpt>
      <trkpt lat="45.84935" lon="4.81725">
        <ele>404.2000122</ele>
        <time>2012-01-27T18:38:23Z</time>
      </trkpt>
      <trkpt lat="45.84934" lon="4.81723">
        <ele>404</ele>
        <time>2012-01-27T18:38:24Z</time>
      </trkpt>
      <trkpt lat="45.84927" lon="4.81716">
        <ele>403.2000122</ele>
        <time>2012-01-27T18:38:28Z</time>
      </trkpt>
      <trkpt lat="45.84924" lon="4.81714">
        <ele>402</ele>
        <time>2012-01-27T18:38:33Z</time>
      </trkpt>
      <trkpt lat="45.84923" lon="4.81707">
        <ele>399.3999939</ele>
        <time>2012-01-27T18:38:46Z</time>
      </trkpt>
      <trkpt lat="45.84925" lon="4.81703">
        <ele>398.7999878</ele>
        <time>2012-01-27T18:38:50Z</time>
      </trkpt>
      <trkpt lat="45.84926" lon="4.81701">
        <ele>398.6000061</ele>
        <time>2012-01-27T18:38:52Z</time>
      </trkpt>
      <trkpt lat="45.84927" lon="4.81699">
        <ele>398.3999939</ele>
        <time>2012-01-27T18:38:54Z</time>
      </trkpt>
      <trkpt lat="45.84928" lon="4.81697">
        <ele>398.2000122</ele>
        <time>2012-01-27T18:38:56Z</time>
      </trkpt>
      <trkpt lat="45.84929" lon="4.81695">
        <ele>397.7999878</ele>
        <time>2012-01-27T18:38:58Z</time>
      </trkpt>
      <trkpt lat="45.84932" lon="4.81687">
        <ele>397</ele>
        <time>2012-01-27T18:39:03Z</time>
      </trkpt>
      <trkpt lat="45.84933" lon="4.81684">
        <ele>396.7999878</ele>
        <time>2012-01-27T18:39:05Z</time>
      </trkpt>
      <trkpt lat="45.84934" lon="4.81681">
        <ele>396.3999939</ele>
        <time>2012-01-27T18:39:09Z</time>
      </trkpt>
      <trkpt lat="45.84936" lon="4.81676">
        <ele>395.7999878</ele>
        <time>2012-01-27T18:39:13Z</time>
      </trkpt>
      <trkpt lat="45.84938" lon="4.81671">
        <ele>395.2000122</ele>
        <time>2012-01-27T18:39:17Z</time>
      </trkpt>
      <trkpt lat="45.84938" lon="4.81671">
        <ele>395</ele>
        <time>2012-01-27T18:39:18Z</time>
      </trkpt>
      <trkpt lat="45.84939" lon="4.81669">
        <ele>395</ele>
        <time>2012-01-27T18:39:20Z</time>
      </trkpt>
      <trkpt lat="45.8494" lon="4.81667">
        <ele>394.7999878</ele>
        <time>2012-01-27T18:39:22Z</time>
      </trkpt>
      <trkpt lat="45.84943" lon="4.81663">
        <ele>394.3999939</ele>
        <time>2012-01-27T18:39:25Z</time>
      </trkpt>
      <trkpt lat="45.84944" lon="4.8166">
        <ele>394.2000122</ele>
        <time>2012-01-27T18:39:27Z</time>
      </trkpt>
      <trkpt lat="45.84944" lon="4.81657">
        <ele>394.2000122</ele>
        <time>2012-01-27T18:39:29Z</time>
      </trkpt>
      <trkpt lat="45.84944" lon="4.81651">
        <ele>394.2000122</ele>
        <time>2012-01-27T18:39:33Z</time>
      </trkpt>
      <trkpt lat="45.84945" lon="4.8165">
        <ele>394.2000122</ele>
        <time>2012-01-27T18:39:34Z</time>
      </trkpt>
      <trkpt lat="45.84946" lon="4.81649">
        <ele>394</ele>
        <time>2012-01-27T18:39:35Z</time>
      </trkpt>
      <trkpt lat="45.84947" lon="4.81645">
        <ele>394</ele>
        <time>2012-01-27T18:39:37Z</time>
      </trkpt>
      <trkpt lat="45.84948" lon="4.81641">
        <ele>394.6000061</ele>
        <time>2012-01-27T18:39:40Z</time>
      </trkpt>
      <trkpt lat="45.84948" lon="4.81639">
        <ele>394.6000061</ele>
        <time>2012-01-27T18:39:41Z</time>
      </trkpt>
      <trkpt lat="45.84949" lon="4.81637">
        <ele>394.3999939</ele>
        <time>2012-01-27T18:39:42Z</time>
      </trkpt>
      <trkpt lat="45.84951" lon="4.81633">
        <ele>394.6000061</ele>
        <time>2012-01-27T18:39:45Z</time>
      </trkpt>
      <trkpt lat="45.84951" lon="4.8163">
        <ele>394.7999878</ele>
        <time>2012-01-27T18:39:47Z</time>
      </trkpt>
      <trkpt lat="45.84951" lon="4.81624">
        <ele>395.2000122</ele>
        <time>2012-01-27T18:39:50Z</time>
      </trkpt>
      <trkpt lat="45.84954" lon="4.81618">
        <ele>395.7999878</ele>
        <time>2012-01-27T18:39:54Z</time>
      </trkpt>
      <trkpt lat="45.84954" lon="4.81617">
        <ele>396</ele>
        <time>2012-01-27T18:39:55Z</time>
      </trkpt>
      <trkpt lat="45.84955" lon="4.81611">
        <ele>396.7999878</ele>
        <time>2012-01-27T18:39:59Z</time>
      </trkpt>
      <trkpt lat="45.84955" lon="4.8161">
        <ele>397</ele>
        <time>2012-01-27T18:40:00Z</time>
      </trkpt>
      <trkpt lat="45.84957" lon="4.81602">
        <ele>397.6000061</ele>
        <time>2012-01-27T18:40:04Z</time>
      </trkpt>
      <trkpt lat="45.84957" lon="4.81595">
        <ele>398.3999939</ele>
        <time>2012-01-27T18:40:08Z</time>
      </trkpt>
      <trkpt lat="45.84957" lon="4.81594">
        <ele>398.6000061</ele>
        <time>2012-01-27T18:40:09Z</time>
      </trkpt>
      <trkpt lat="45.84959" lon="4.81588">
        <ele>399.3999939</ele>
        <time>2012-01-27T18:40:13Z</time>
      </trkpt>
      <trkpt lat="45.8496" lon="4.81586">
        <ele>399.7999878</ele>
        <time>2012-01-27T18:40:15Z</time>
      </trkpt>
      <trkpt lat="45.84961" lon="4.8158">
        <ele>400</ele>
        <time>2012-01-27T18:40:18Z</time>
      </trkpt>
      <trkpt lat="45.84961" lon="4.81575">
        <ele>399.7999878</ele>
        <time>2012-01-27T18:40:20Z</time>
      </trkpt>
      <trkpt lat="45.84961" lon="4.81571">
        <ele>400</ele>
        <time>2012-01-27T18:40:23Z</time>
      </trkpt>
      <trkpt lat="45.84961" lon="4.81571">
        <ele>399.7999878</ele>
        <time>2012-01-27T18:40:24Z</time>
      </trkpt>
      <trkpt lat="45.8496" lon="4.81573">
        <ele>399.7999878</ele>
        <time>2012-01-27T18:40:26Z</time>
      </trkpt>
      <trkpt lat="45.84958" lon="4.81575">
        <ele>399.6000061</ele>
        <time>2012-01-27T18:40:29Z</time>
      </trkpt>
      <trkpt lat="45.84955" lon="4.81581">
        <ele>399.3999939</ele>
        <time>2012-01-27T18:40:34Z</time>
      </trkpt>
      <trkpt lat="45.84953" lon="4.81583">
        <ele>399.2000122</ele>
        <time>2012-01-27T18:40:36Z</time>
      </trkpt>
      <trkpt lat="45.84949" lon="4.81586">
        <ele>398.7999878</ele>
        <time>2012-01-27T18:40:39Z</time>
      </trkpt>
      <trkpt lat="45.84949" lon="4.81587">
        <ele>398.7999878</ele>
        <time>2012-01-27T18:40:40Z</time>
      </trkpt>
      <trkpt lat="45.84944" lon="4.81591">
        <ele>398.3999939</ele>
        <time>2012-01-27T18:40:45Z</time>
      </trkpt>
      <trkpt lat="45.84942" lon="4.81593">
        <ele>398.3999939</ele>
        <time>2012-01-27T18:40:47Z</time>
      </trkpt>
      <trkpt lat="45.84939" lon="4.81594">
        <ele>398</ele>
        <time>2012-01-27T18:40:50Z</time>
      </trkpt>
      <trkpt lat="45.84938" lon="4.81595">
        <ele>398</ele>
        <time>2012-01-27T18:40:51Z</time>
      </trkpt>
      <trkpt lat="45.84937" lon="4.81597">
        <ele>398</ele>
        <time>2012-01-27T18:40:52Z</time>
      </trkpt>
      <trkpt lat="45.84932" lon="4.81602">
        <ele>397.7999878</ele>
        <time>2012-01-27T18:40:57Z</time>
      </trkpt>
      <trkpt lat="45.84924" lon="4.81604">
        <ele>397.3999939</ele>
        <time>2012-01-27T18:41:03Z</time>
      </trkpt>
      <trkpt lat="45.84923" lon="4.81604">
        <ele>397.3999939</ele>
        <time>2012-01-27T18:41:04Z</time>
      </trkpt>
      <trkpt lat="45.84922" lon="4.81605">
        <ele>397.3999939</ele>
        <time>2012-01-27T18:41:05Z</time>
      </trkpt>
      <trkpt lat="45.84918" lon="4.81606">
        <ele>397.2000122</ele>
        <time>2012-01-27T18:41:08Z</time>
      </trkpt>
      <trkpt lat="45.84918" lon="4.81606">
        <ele>397.2000122</ele>
        <time>2012-01-27T18:41:09Z</time>
      </trkpt>
      <trkpt lat="45.8491" lon="4.81608">
        <ele>397.3999939</ele>
        <time>2012-01-27T18:41:15Z</time>
      </trkpt>
      <trkpt lat="45.84905" lon="4.8161">
        <ele>397.6000061</ele>
        <time>2012-01-27T18:41:19Z</time>
      </trkpt>
      <trkpt lat="45.84903" lon="4.81611">
        <ele>397.6000061</ele>
        <time>2012-01-27T18:41:21Z</time>
      </trkpt>
      <trkpt lat="45.84897" lon="4.81621">
        <ele>397.6000061</ele>
        <time>2012-01-27T18:41:26Z</time>
      </trkpt>
      <trkpt lat="45.84891" lon="4.81626">
        <ele>397.6000061</ele>
        <time>2012-01-27T18:41:29Z</time>
      </trkpt>
      <trkpt lat="45.84887" lon="4.81628">
        <ele>397.7999878</ele>
        <time>2012-01-27T18:41:31Z</time>
      </trkpt>
      <trkpt lat="45.84878" lon="4.81635">
        <ele>398.2000122</ele>
        <time>2012-01-27T18:41:36Z</time>
      </trkpt>
      <trkpt lat="45.84874" lon="4.81638">
        <ele>398.2000122</ele>
        <time>2012-01-27T18:41:38Z</time>
      </trkpt>
      <trkpt lat="45.84868" lon="4.81641">
        <ele>398.2000122</ele>
        <time>2012-01-27T18:41:41Z</time>
      </trkpt>
      <trkpt lat="45.84866" lon="4.81641">
        <ele>398.2000122</ele>
        <time>2012-01-27T18:41:42Z</time>
      </trkpt>
      <trkpt lat="45.84856" lon="4.81637">
        <ele>398.6000061</ele>
        <time>2012-01-27T18:41:47Z</time>
      </trkpt>
      <trkpt lat="45.84847" lon="4.81634">
        <ele>398.7999878</ele>
        <time>2012-01-27T18:41:52Z</time>
      </trkpt>
      <trkpt lat="45.84843" lon="4.81634">
        <ele>399</ele>
        <time>2012-01-27T18:41:54Z</time>
      </trkpt>
      <trkpt lat="45.84839" lon="4.81633">
        <ele>399.2000122</ele>
        <time>2012-01-27T18:41:56Z</time>
      </trkpt>
      <trkpt lat="45.84838" lon="4.81632">
        <ele>399.3999939</ele>
        <time>2012-01-27T18:41:57Z</time>
      </trkpt>
      <trkpt lat="45.84836" lon="4.81632">
        <ele>399.3999939</ele>
        <time>2012-01-27T18:41:58Z</time>
      </trkpt>
      <trkpt lat="45.8483" lon="4.81631">
        <ele>399.7999878</ele>
        <time>2012-01-27T18:42:01Z</time>
      </trkpt>
      <trkpt lat="45.84829" lon="4.81631">
        <ele>400</ele>
        <time>2012-01-27T18:42:02Z</time>
      </trkpt>
      <trkpt lat="45.84827" lon="4.81632">
        <ele>400.2000122</ele>
        <time>2012-01-27T18:42:03Z</time>
      </trkpt>
      <trkpt lat="45.8482" lon="4.81635">
        <ele>401</ele>
        <time>2012-01-27T18:42:09Z</time>
      </trkpt>
      <trkpt lat="45.84818" lon="4.81635">
        <ele>401.2000122</ele>
        <time>2012-01-27T18:42:11Z</time>
      </trkpt>
      <trkpt lat="45.84814" lon="4.81632">
        <ele>401.7999878</ele>
        <time>2012-01-27T18:42:15Z</time>
      </trkpt>
      <trkpt lat="45.84813" lon="4.8163">
        <ele>401.7999878</ele>
        <time>2012-01-27T18:42:16Z</time>
      </trkpt>
      <trkpt lat="45.84811" lon="4.81621">
        <ele>402.7999878</ele>
        <time>2012-01-27T18:42:22Z</time>
      </trkpt>
      <trkpt lat="45.8481" lon="4.81619">
        <ele>403</ele>
        <time>2012-01-27T18:42:23Z</time>
      </trkpt>
      <trkpt lat="45.84808" lon="4.81616">
        <ele>403.3999939</ele>
        <time>2012-01-27T18:42:25Z</time>
      </trkpt>
      <trkpt lat="45.84806" lon="4.81613">
        <ele>403.7999878</ele>
        <time>2012-01-27T18:42:28Z</time>
      </trkpt>
      <trkpt lat="45.84804" lon="4.81613">
        <ele>404</ele>
        <time>2012-01-27T18:42:29Z</time>
      </trkpt>
      <trkpt lat="45.8479" lon="4.81613">
        <ele>404.3999939</ele>
        <time>2012-01-27T18:42:35Z</time>
      </trkpt>
      <trkpt lat="45.84779" lon="4.81611">
        <ele>404.7999878</ele>
        <time>2012-01-27T18:42:40Z</time>
      </trkpt>
      <trkpt lat="45.84774" lon="4.81601">
        <ele>405.2000122</ele>
        <time>2012-01-27T18:42:44Z</time>
      </trkpt>
      <trkpt lat="45.84772" lon="4.81599">
        <ele>405.3999939</ele>
        <time>2012-01-27T18:42:45Z</time>
      </trkpt>
      <trkpt lat="45.84766" lon="4.81596">
        <ele>405.7999878</ele>
        <time>2012-01-27T18:42:48Z</time>
      </trkpt>
      <trkpt lat="45.84764" lon="4.81594">
        <ele>405.7999878</ele>
        <time>2012-01-27T18:42:49Z</time>
      </trkpt>
      <trkpt lat="45.84757" lon="4.81588">
        <ele>406.3999939</ele>
        <time>2012-01-27T18:42:54Z</time>
      </trkpt>
      <trkpt lat="45.84747" lon="4.8158">
        <ele>406.7999878</ele>
        <time>2012-01-27T18:42:59Z</time>
      </trkpt>
      <trkpt lat="45.8474" lon="4.81574">
        <ele>407.2000122</ele>
        <time>2012-01-27T18:43:03Z</time>
      </trkpt>
      <trkpt lat="45.84738" lon="4.81574">
        <ele>407.2000122</ele>
        <time>2012-01-27T18:43:04Z</time>
      </trkpt>
      <trkpt lat="45.84731" lon="4.81571">
        <ele>407.7999878</ele>
        <time>2012-01-27T18:43:09Z</time>
      </trkpt>
      <trkpt lat="45.8473" lon="4.81572">
        <ele>408.2000122</ele>
        <time>2012-01-27T18:43:14Z</time>
      </trkpt>
      <trkpt lat="45.84729" lon="4.81574">
        <ele>410.3999939</ele>
        <time>2012-01-27T18:43:40Z</time>
      </trkpt>
      <trkpt lat="45.84724" lon="4.81574">
        <ele>412</ele>
        <time>2012-01-27T18:43:59Z</time>
      </trkpt>
      <trkpt lat="45.84724" lon="4.81573">
        <ele>412</ele>
        <time>2012-01-27T18:44:00Z</time>
      </trkpt>
      <trkpt lat="45.84718" lon="4.81569">
        <ele>412.2000122</ele>
        <time>2012-01-27T18:44:06Z</time>
      </trkpt>
      <trkpt lat="45.84715" lon="4.81566">
        <ele>412.2000122</ele>
        <time>2012-01-27T18:44:09Z</time>
      </trkpt>
      <trkpt lat="45.84712" lon="4.81563">
        <ele>412</ele>
        <time>2012-01-27T18:44:12Z</time>
      </trkpt>
      <trkpt lat="45.84708" lon="4.8156">
        <ele>411.7999878</ele>
        <time>2012-01-27T18:44:15Z</time>
      </trkpt>
      <trkpt lat="45.84707" lon="4.81559">
        <ele>411.7999878</ele>
        <time>2012-01-27T18:44:16Z</time>
      </trkpt>
      <trkpt lat="45.84706" lon="4.81558">
        <ele>411.7999878</ele>
        <time>2012-01-27T18:44:17Z</time>
      </trkpt>
      <trkpt lat="45.84704" lon="4.81554">
        <ele>411.3999939</ele>
        <time>2012-01-27T18:44:23Z</time>
      </trkpt>
      <trkpt lat="45.84702" lon="4.81545">
        <ele>410.7999878</ele>
        <time>2012-01-27T18:44:29Z</time>
      </trkpt>
      <trkpt lat="45.847" lon="4.81537">
        <ele>410</ele>
        <time>2012-01-27T18:44:35Z</time>
      </trkpt>
      <trkpt lat="45.84699" lon="4.81537">
        <ele>409.3999939</ele>
        <time>2012-01-27T18:44:40Z</time>
      </trkpt>
      <trkpt lat="45.84695" lon="4.81538">
        <ele>409</ele>
        <time>2012-01-27T18:44:43Z</time>
      </trkpt>
      <trkpt lat="45.84694" lon="4.81535">
        <ele>408.6000061</ele>
        <time>2012-01-27T18:44:45Z</time>
      </trkpt>
      <trkpt lat="45.84693" lon="4.81529">
        <ele>408.2000122</ele>
        <time>2012-01-27T18:44:48Z</time>
      </trkpt>
      <trkpt lat="45.84692" lon="4.81524">
        <ele>407.6000061</ele>
        <time>2012-01-27T18:44:51Z</time>
      </trkpt>
      <trkpt lat="45.84692" lon="4.81519">
        <ele>407</ele>
        <time>2012-01-27T18:44:54Z</time>
      </trkpt>
      <trkpt lat="45.84689" lon="4.81516">
        <ele>406.6000061</ele>
        <time>2012-01-27T18:44:57Z</time>
      </trkpt>
      <trkpt lat="45.84683" lon="4.81516">
        <ele>405.7999878</ele>
        <time>2012-01-27T18:45:02Z</time>
      </trkpt>
      <trkpt lat="45.8468" lon="4.81516">
        <ele>405.2000122</ele>
        <time>2012-01-27T18:45:06Z</time>
      </trkpt>
      <trkpt lat="45.84679" lon="4.81517">
        <ele>405</ele>
        <time>2012-01-27T18:45:07Z</time>
      </trkpt>
      <trkpt lat="45.84678" lon="4.81517">
        <ele>404.7999878</ele>
        <time>2012-01-27T18:45:08Z</time>
      </trkpt>
      <trkpt lat="45.84674" lon="4.81515">
        <ele>404</ele>
        <time>2012-01-27T18:45:13Z</time>
      </trkpt>
      <trkpt lat="45.84673" lon="4.81515">
        <ele>403.7999878</ele>
        <time>2012-01-27T18:45:14Z</time>
      </trkpt>
      <trkpt lat="45.84667" lon="4.81515">
        <ele>403</ele>
        <time>2012-01-27T18:45:20Z</time>
      </trkpt>
      <trkpt lat="45.84666" lon="4.81515">
        <ele>402.6000061</ele>
        <time>2012-01-27T18:45:22Z</time>
      </trkpt>
      <trkpt lat="45.84663" lon="4.81513">
        <ele>402</ele>
        <time>2012-01-27T18:45:25Z</time>
      </trkpt>
      <trkpt lat="45.8466" lon="4.81509">
        <ele>401.3999939</ele>
        <time>2012-01-27T18:45:29Z</time>
      </trkpt>
      <trkpt lat="45.8466" lon="4.81505">
        <ele>400.6000061</ele>
        <time>2012-01-27T18:45:33Z</time>
      </trkpt>
      <trkpt lat="45.84659" lon="4.81501">
        <ele>400</ele>
        <time>2012-01-27T18:45:36Z</time>
      </trkpt>
      <trkpt lat="45.84657" lon="4.81492">
        <ele>399</ele>
        <time>2012-01-27T18:45:41Z</time>
      </trkpt>
      <trkpt lat="45.84657" lon="4.8149">
        <ele>398.7999878</ele>
        <time>2012-01-27T18:45:42Z</time>
      </trkpt>
      <trkpt lat="45.84656" lon="4.81483">
        <ele>397.6000061</ele>
        <time>2012-01-27T18:45:47Z</time>
      </trkpt>
      <trkpt lat="45.84656" lon="4.81481">
        <ele>397.3999939</ele>
        <time>2012-01-27T18:45:48Z</time>
      </trkpt>
      <trkpt lat="45.84659" lon="4.81472">
        <ele>396.3999939</ele>
        <time>2012-01-27T18:45:52Z</time>
      </trkpt>
      <trkpt lat="45.84663" lon="4.81463">
        <ele>395.2000122</ele>
        <time>2012-01-27T18:45:57Z</time>
      </trkpt>
      <trkpt lat="45.84664" lon="4.81457">
        <ele>394.3999939</ele>
        <time>2012-01-27T18:46:00Z</time>
      </trkpt>
      <trkpt lat="45.84666" lon="4.81453">
        <ele>393.7999878</ele>
        <time>2012-01-27T18:46:03Z</time>
      </trkpt>
      <trkpt lat="45.84665" lon="4.81451">
        <ele>393.6000061</ele>
        <time>2012-01-27T18:46:04Z</time>
      </trkpt>
      <trkpt lat="45.84666" lon="4.81443">
        <ele>392</ele>
        <time>2012-01-27T18:46:10Z</time>
      </trkpt>
      <trkpt lat="45.84667" lon="4.81439">
        <ele>390.3999939</ele>
        <time>2012-01-27T18:46:17Z</time>
      </trkpt>
      <trkpt lat="45.84667" lon="4.81437">
        <ele>389.7999878</ele>
        <time>2012-01-27T18:46:19Z</time>
      </trkpt>
      <trkpt lat="45.84666" lon="4.81433">
        <ele>389</ele>
        <time>2012-01-27T18:46:22Z</time>
      </trkpt>
      <trkpt lat="45.84666" lon="4.81432">
        <ele>388.6000061</ele>
        <time>2012-01-27T18:46:24Z</time>
      </trkpt>
      <trkpt lat="45.84665" lon="4.81432">
        <ele>388.3999939</ele>
        <time>2012-01-27T18:46:25Z</time>
      </trkpt>
      <trkpt lat="45.84661" lon="4.81429">
        <ele>386.7999878</ele>
        <time>2012-01-27T18:46:31Z</time>
      </trkpt>
      <trkpt lat="45.84659" lon="4.81427">
        <ele>385.7999878</ele>
        <time>2012-01-27T18:46:35Z</time>
      </trkpt>
      <trkpt lat="45.84658" lon="4.81426">
        <ele>385.6000061</ele>
        <time>2012-01-27T18:46:36Z</time>
      </trkpt>
      <trkpt lat="45.84655" lon="4.8142">
        <ele>384.7999878</ele>
        <time>2012-01-27T18:46:40Z</time>
      </trkpt>
      <trkpt lat="45.84651" lon="4.81416">
        <ele>383.7999878</ele>
        <time>2012-01-27T18:46:44Z</time>
      </trkpt>
      <trkpt lat="45.8465" lon="4.81414">
        <ele>383.3999939</ele>
        <time>2012-01-27T18:46:46Z</time>
      </trkpt>
      <trkpt lat="45.84648" lon="4.81412">
        <ele>383</ele>
        <time>2012-01-27T18:46:48Z</time>
      </trkpt>
      <trkpt lat="45.84649" lon="4.81407">
        <ele>382.6000061</ele>
        <time>2012-01-27T18:46:51Z</time>
      </trkpt>
      <trkpt lat="45.8465" lon="4.81402">
        <ele>381.7999878</ele>
        <time>2012-01-27T18:46:55Z</time>
      </trkpt>
      <trkpt lat="45.84649" lon="4.814">
        <ele>381.6000061</ele>
        <time>2012-01-27T18:46:57Z</time>
      </trkpt>
      <trkpt lat="45.84648" lon="4.814">
        <ele>381.3999939</ele>
        <time>2012-01-27T18:46:58Z</time>
      </trkpt>
      <trkpt lat="45.84648" lon="4.81398">
        <ele>381.2000122</ele>
        <time>2012-01-27T18:46:59Z</time>
      </trkpt>
      <trkpt lat="45.84645" lon="4.81395">
        <ele>380.7999878</ele>
        <time>2012-01-27T18:47:02Z</time>
      </trkpt>
      <trkpt lat="45.84644" lon="4.81391">
        <ele>380.2000122</ele>
        <time>2012-01-27T18:47:05Z</time>
      </trkpt>
      <trkpt lat="45.84644" lon="4.81383">
        <ele>379.3999939</ele>
        <time>2012-01-27T18:47:10Z</time>
      </trkpt>
      <trkpt lat="45.84644" lon="4.81376">
        <ele>378.7999878</ele>
        <time>2012-01-27T18:47:14Z</time>
      </trkpt>
      <trkpt lat="45.84644" lon="4.81375">
        <ele>378.7999878</ele>
        <time>2012-01-27T18:47:15Z</time>
      </trkpt>
      <trkpt lat="45.84642" lon="4.81374">
        <ele>378.2000122</ele>
        <time>2012-01-27T18:47:19Z</time>
      </trkpt>
      <trkpt lat="45.84641" lon="4.81374">
        <ele>378</ele>
        <time>2012-01-27T18:47:21Z</time>
      </trkpt>
      <trkpt lat="45.8464" lon="4.81374">
        <ele>377.7999878</ele>
        <time>2012-01-27T18:47:22Z</time>
      </trkpt>
      <trkpt lat="45.84637" lon="4.81372">
        <ele>377.2000122</ele>
        <time>2012-01-27T18:47:27Z</time>
      </trkpt>
      <trkpt lat="45.84634" lon="4.81367">
        <ele>376.6000061</ele>
        <time>2012-01-27T18:47:33Z</time>
      </trkpt>
      <trkpt lat="45.84633" lon="4.81364">
        <ele>376.2000122</ele>
        <time>2012-01-27T18:47:38Z</time>
      </trkpt>
      <trkpt lat="45.8463" lon="4.81363">
        <ele>375.7999878</ele>
        <time>2012-01-27T18:47:42Z</time>
      </trkpt>
      <trkpt lat="45.84632" lon="4.81363">
        <ele>375.7999878</ele>
        <time>2012-01-27T18:47:48Z</time>
      </trkpt>
      <trkpt lat="45.84634" lon="4.81363">
        <ele>375.7999878</ele>
        <time>2012-01-27T18:47:51Z</time>
      </trkpt>
      <trkpt lat="45.84636" lon="4.81362">
        <ele>375.7999878</ele>
        <time>2012-01-27T18:47:53Z</time>
      </trkpt>
      <trkpt lat="45.84637" lon="4.81357">
        <ele>375.6000061</ele>
        <time>2012-01-27T18:47:56Z</time>
      </trkpt>
      <trkpt lat="45.84637" lon="4.81353">
        <ele>375.6000061</ele>
        <time>2012-01-27T18:47:58Z</time>
      </trkpt>
      <trkpt lat="45.8464" lon="4.81348">
        <ele>375.3999939</ele>
        <time>2012-01-27T18:48:04Z</time>
      </trkpt>
      <trkpt lat="45.84641" lon="4.81354">
        <ele>375.3999939</ele>
        <time>2012-01-27T18:48:11Z</time>
      </trkpt>
      <trkpt lat="45.84643" lon="4.81352">
        <ele>375.3999939</ele>
        <time>2012-01-27T18:48:13Z</time>
      </trkpt>
      <trkpt lat="45.84643" lon="4.81351">
        <ele>375.3999939</ele>
        <time>2012-01-27T18:48:14Z</time>
      </trkpt>
      <trkpt lat="45.84642" lon="4.8135">
        <ele>375.3999939</ele>
        <time>2012-01-27T18:48:16Z</time>
      </trkpt>
      <trkpt lat="45.84641" lon="4.81349">
        <ele>375.3999939</ele>
        <time>2012-01-27T18:48:17Z</time>
      </trkpt>
      <trkpt lat="45.84638" lon="4.81346">
        <ele>375.3999939</ele>
        <time>2012-01-27T18:48:20Z</time>
      </trkpt>
      <trkpt lat="45.84632" lon="4.81342">
        <ele>375.6000061</ele>
        <time>2012-01-27T18:48:25Z</time>
      </trkpt>
      <trkpt lat="45.84631" lon="4.81341">
        <ele>375.7999878</ele>
        <time>2012-01-27T18:48:26Z</time>
      </trkpt>
      <trkpt lat="45.84629" lon="4.81339">
        <ele>375.7999878</ele>
        <time>2012-01-27T18:48:28Z</time>
      </trkpt>
      <trkpt lat="45.84627" lon="4.81339">
        <ele>375.7999878</ele>
        <time>2012-01-27T18:48:30Z</time>
      </trkpt>
      <trkpt lat="45.84627" lon="4.8134">
        <ele>375.7999878</ele>
        <time>2012-01-27T18:48:31Z</time>
      </trkpt>
      <trkpt lat="45.84626" lon="4.81339">
        <ele>376</ele>
        <time>2012-01-27T18:48:36Z</time>
      </trkpt>
      <trkpt lat="45.84624" lon="4.81341">
        <ele>376</ele>
        <time>2012-01-27T18:48:42Z</time>
      </trkpt>
      <trkpt lat="45.84622" lon="4.81343">
        <ele>376</ele>
        <time>2012-01-27T18:48:44Z</time>
      </trkpt>
      <trkpt lat="45.84619" lon="4.81343">
        <ele>376</ele>
        <time>2012-01-27T18:48:46Z</time>
      </trkpt>
      <trkpt lat="45.84615" lon="4.81341">
        <ele>376</ele>
        <time>2012-01-27T18:48:50Z</time>
      </trkpt>
      <trkpt lat="45.84613" lon="4.81339">
        <ele>376</ele>
        <time>2012-01-27T18:48:52Z</time>
      </trkpt>
      <trkpt lat="45.84611" lon="4.81337">
        <ele>376.2000122</ele>
        <time>2012-01-27T18:48:57Z</time>
      </trkpt>
      <trkpt lat="45.84609" lon="4.81337">
        <ele>376.6000061</ele>
        <time>2012-01-27T18:49:02Z</time>
      </trkpt>
      <trkpt lat="45.84607" lon="4.81335">
        <ele>377.7999878</ele>
        <time>2012-01-27T18:49:11Z</time>
      </trkpt>
      <trkpt lat="45.84607" lon="4.8133">
        <ele>378.3999939</ele>
        <time>2012-01-27T18:49:16Z</time>
      </trkpt>
      <trkpt lat="45.84607" lon="4.81328">
        <ele>378.6000061</ele>
        <time>2012-01-27T18:49:17Z</time>
      </trkpt>
      <trkpt lat="45.84607" lon="4.81325">
        <ele>379.3999939</ele>
        <time>2012-01-27T18:49:21Z</time>
      </trkpt>
      <trkpt lat="45.84604" lon="4.8132">
        <ele>386.6000061</ele>
        <time>2012-01-27T18:49:45Z</time>
      </trkpt>
      <trkpt lat="45.84603" lon="4.81319">
        <ele>387</ele>
        <time>2012-01-27T18:49:47Z</time>
      </trkpt>
      <trkpt lat="45.84602" lon="4.81313">
        <ele>388.6000061</ele>
        <time>2012-01-27T18:49:52Z</time>
      </trkpt>
      <trkpt lat="45.84601" lon="4.81308">
        <ele>390.2000122</ele>
        <time>2012-01-27T18:49:58Z</time>
      </trkpt>
      <trkpt lat="45.846" lon="4.81306">
        <ele>391</ele>
        <time>2012-01-27T18:50:02Z</time>
      </trkpt>
      <trkpt lat="45.846" lon="4.81303">
        <ele>394.2000122</ele>
        <time>2012-01-27T18:50:14Z</time>
      </trkpt>
      <trkpt lat="45.84599" lon="4.813">
        <ele>396</ele>
        <time>2012-01-27T18:50:21Z</time>
      </trkpt>
      <trkpt lat="45.84601" lon="4.81302">
        <ele>399.7999878</ele>
        <time>2012-01-27T18:50:54Z</time>
      </trkpt>
      <trkpt lat="45.846" lon="4.813">
        <ele>400</ele>
        <time>2012-01-27T18:50:56Z</time>
      </trkpt>
      <trkpt lat="45.846" lon="4.81294">
        <ele>400.7999878</ele>
        <time>2012-01-27T18:51:02Z</time>
      </trkpt>
      <trkpt lat="45.84599" lon="4.8129">
        <ele>401.7999878</ele>
        <time>2012-01-27T18:51:09Z</time>
      </trkpt>
      <trkpt lat="45.84597" lon="4.81285">
        <ele>402.2000122</ele>
        <time>2012-01-27T18:51:15Z</time>
      </trkpt>
      <trkpt lat="45.84594" lon="4.81281">
        <ele>402.6000061</ele>
        <time>2012-01-27T18:51:20Z</time>
      </trkpt>
      <trkpt lat="45.84594" lon="4.81276">
        <ele>402.7999878</ele>
        <time>2012-01-27T18:51:24Z</time>
      </trkpt>
      <trkpt lat="45.84594" lon="4.81275">
        <ele>403</ele>
        <time>2012-01-27T18:51:25Z</time>
      </trkpt>
      <trkpt lat="45.84591" lon="4.8127">
        <ele>403.6000061</ele>
        <time>2012-01-27T18:51:31Z</time>
      </trkpt>
      <trkpt lat="45.84589" lon="4.81267">
        <ele>404</ele>
        <time>2012-01-27T18:51:36Z</time>
      </trkpt>
      <trkpt lat="45.84587" lon="4.81266">
        <ele>404.7999878</ele>
        <time>2012-01-27T18:51:41Z</time>
      </trkpt>
      <trkpt lat="45.84584" lon="4.81266">
        <ele>410.2000122</ele>
        <time>2012-01-27T18:52:07Z</time>
      </trkpt>
      <trkpt lat="45.84582" lon="4.81268">
        <ele>410.3999939</ele>
        <time>2012-01-27T18:52:09Z</time>
      </trkpt>
      <trkpt lat="45.84578" lon="4.81271">
        <ele>410.7999878</ele>
        <time>2012-01-27T18:52:14Z</time>
      </trkpt>
      <trkpt lat="45.84577" lon="4.81272">
        <ele>411</ele>
        <time>2012-01-27T18:52:15Z</time>
      </trkpt>
      <trkpt lat="45.84573" lon="4.81274">
        <ele>411</ele>
        <time>2012-01-27T18:52:18Z</time>
      </trkpt>
      <trkpt lat="45.8457" lon="4.81274">
        <ele>411</ele>
        <time>2012-01-27T18:52:20Z</time>
      </trkpt>
      <trkpt lat="45.84568" lon="4.81275">
        <ele>411</ele>
        <time>2012-01-27T18:52:22Z</time>
      </trkpt>
      <trkpt lat="45.84564" lon="4.81276">
        <ele>410.7999878</ele>
        <time>2012-01-27T18:52:27Z</time>
      </trkpt>
      <trkpt lat="45.84563" lon="4.81276">
        <ele>410.7999878</ele>
        <time>2012-01-27T18:52:28Z</time>
      </trkpt>
      <trkpt lat="45.84563" lon="4.81277">
        <ele>410.3999939</ele>
        <time>2012-01-27T18:52:38Z</time>
      </trkpt>
      <trkpt lat="45.84559" lon="4.81277">
        <ele>410.2000122</ele>
        <time>2012-01-27T18:52:46Z</time>
      </trkpt>
      <trkpt lat="45.84558" lon="4.81277">
        <ele>410</ele>
        <time>2012-01-27T18:52:47Z</time>
      </trkpt>
      <trkpt lat="45.84549" lon="4.81277">
        <ele>409.7999878</ele>
        <time>2012-01-27T18:52:52Z</time>
      </trkpt>
      <trkpt lat="45.84536" lon="4.81277">
        <ele>409.6000061</ele>
        <time>2012-01-27T18:52:57Z</time>
      </trkpt>
      <trkpt lat="45.8453" lon="4.81274">
        <ele>409.3999939</ele>
        <time>2012-01-27T18:52:59Z</time>
      </trkpt>
      <trkpt lat="45.84525" lon="4.81271">
        <ele>409.3999939</ele>
        <time>2012-01-27T18:53:01Z</time>
      </trkpt>
      <trkpt lat="45.84515" lon="4.81262">
        <ele>409.2000122</ele>
        <time>2012-01-27T18:53:05Z</time>
      </trkpt>
      <trkpt lat="45.84513" lon="4.8126">
        <ele>409</ele>
        <time>2012-01-27T18:53:06Z</time>
      </trkpt>
      <trkpt lat="45.84507" lon="4.81253">
        <ele>408.7999878</ele>
        <time>2012-01-27T18:53:09Z</time>
      </trkpt>
      <trkpt lat="45.84504" lon="4.81247">
        <ele>408.7999878</ele>
        <time>2012-01-27T18:53:11Z</time>
      </trkpt>
      <trkpt lat="45.845" lon="4.81241">
        <ele>408.6000061</ele>
        <time>2012-01-27T18:53:13Z</time>
      </trkpt>
      <trkpt lat="45.84493" lon="4.81233">
        <ele>408.3999939</ele>
        <time>2012-01-27T18:53:16Z</time>
      </trkpt>
      <trkpt lat="45.84484" lon="4.81222">
        <ele>408.2000122</ele>
        <time>2012-01-27T18:53:20Z</time>
      </trkpt>
      <trkpt lat="45.84473" lon="4.81209">
        <ele>408</ele>
        <time>2012-01-27T18:53:25Z</time>
      </trkpt>
      <trkpt lat="45.8447" lon="4.81202">
        <ele>407.7999878</ele>
        <time>2012-01-27T18:53:27Z</time>
      </trkpt>
      <trkpt lat="45.84466" lon="4.81192">
        <ele>407.6000061</ele>
        <time>2012-01-27T18:53:30Z</time>
      </trkpt>
      <trkpt lat="45.84458" lon="4.81181">
        <ele>407.6000061</ele>
        <time>2012-01-27T18:53:35Z</time>
      </trkpt>
      <trkpt lat="45.84457" lon="4.81178">
        <ele>407.6000061</ele>
        <time>2012-01-27T18:53:36Z</time>
      </trkpt>
      <trkpt lat="45.84452" lon="4.81164">
        <ele>408.2000122</ele>
        <time>2012-01-27T18:53:42Z</time>
      </trkpt>
      <trkpt lat="45.84452" lon="4.81162">
        <ele>408.2000122</ele>
        <time>2012-01-27T18:53:43Z</time>
      </trkpt>
      <trkpt lat="45.84451" lon="4.81154">
        <ele>408.7999878</ele>
        <time>2012-01-27T18:53:47Z</time>
      </trkpt>
      <trkpt lat="45.8445" lon="4.81142">
        <ele>409.2000122</ele>
        <time>2012-01-27T18:53:52Z</time>
      </trkpt>
      <trkpt lat="45.8445" lon="4.8114">
        <ele>409.2000122</ele>
        <time>2012-01-27T18:53:53Z</time>
      </trkpt>
      <trkpt lat="45.84452" lon="4.81135">
        <ele>409.2000122</ele>
        <time>2012-01-27T18:53:57Z</time>
      </trkpt>
      <trkpt lat="45.84453" lon="4.81128">
        <ele>408.7999878</ele>
        <time>2012-01-27T18:54:01Z</time>
      </trkpt>
      <trkpt lat="45.84454" lon="4.81126">
        <ele>408.7999878</ele>
        <time>2012-01-27T18:54:02Z</time>
      </trkpt>
      <trkpt lat="45.84451" lon="4.81116">
        <ele>408.6000061</ele>
        <time>2012-01-27T18:54:08Z</time>
      </trkpt>
      <trkpt lat="45.84452" lon="4.81109">
        <ele>408.3999939</ele>
        <time>2012-01-27T18:54:12Z</time>
      </trkpt>
      <trkpt lat="45.84453" lon="4.81105">
        <ele>408.2000122</ele>
        <time>2012-01-27T18:54:14Z</time>
      </trkpt>
      <trkpt lat="45.84454" lon="4.81103">
        <ele>408.2000122</ele>
        <time>2012-01-27T18:54:15Z</time>
      </trkpt>
      <trkpt lat="45.84454" lon="4.811">
        <ele>408</ele>
        <time>2012-01-27T18:54:17Z</time>
      </trkpt>
      <trkpt lat="45.84456" lon="4.81093">
        <ele>407.6000061</ele>
        <time>2012-01-27T18:54:22Z</time>
      </trkpt>
      <trkpt lat="45.84459" lon="4.81085">
        <ele>408</ele>
        <time>2012-01-27T18:54:27Z</time>
      </trkpt>
      <trkpt lat="45.84459" lon="4.81082">
        <ele>408.2000122</ele>
        <time>2012-01-27T18:54:28Z</time>
      </trkpt>
      <trkpt lat="45.84458" lon="4.81078">
        <ele>408.7999878</ele>
        <time>2012-01-27T18:54:31Z</time>
      </trkpt>
      <trkpt lat="45.84458" lon="4.81076">
        <ele>409</ele>
        <time>2012-01-27T18:54:32Z</time>
      </trkpt>
      <trkpt lat="45.8446" lon="4.81072">
        <ele>410</ele>
        <time>2012-01-27T18:54:36Z</time>
      </trkpt>
      <trkpt lat="45.84462" lon="4.81068">
        <ele>410.7999878</ele>
        <time>2012-01-27T18:54:38Z</time>
      </trkpt>
      <trkpt lat="45.84463" lon="4.81064">
        <ele>412.6000061</ele>
        <time>2012-01-27T18:54:42Z</time>
      </trkpt>
      <trkpt lat="45.84466" lon="4.81054">
        <ele>414.6000061</ele>
        <time>2012-01-27T18:54:47Z</time>
      </trkpt>
      <trkpt lat="45.84469" lon="4.81045">
        <ele>415.7999878</ele>
        <time>2012-01-27T18:54:52Z</time>
      </trkpt>
      <trkpt lat="45.84469" lon="4.81044">
        <ele>416</ele>
        <time>2012-01-27T18:54:53Z</time>
      </trkpt>
      <trkpt lat="45.84469" lon="4.81034">
        <ele>418.6000061</ele>
        <time>2012-01-27T18:55:00Z</time>
      </trkpt>
      <trkpt lat="45.8447" lon="4.81029">
        <ele>419.6000061</ele>
        <time>2012-01-27T18:55:03Z</time>
      </trkpt>
      <trkpt lat="45.84469" lon="4.81026">
        <ele>420</ele>
        <time>2012-01-27T18:55:05Z</time>
      </trkpt>
      <trkpt lat="45.84472" lon="4.81015">
        <ele>422</ele>
        <time>2012-01-27T18:55:12Z</time>
      </trkpt>
      <trkpt lat="45.84471" lon="4.81009">
        <ele>423</ele>
        <time>2012-01-27T18:55:17Z</time>
      </trkpt>
      <trkpt lat="45.84471" lon="4.81007">
        <ele>423</ele>
        <time>2012-01-27T18:55:18Z</time>
      </trkpt>
      <trkpt lat="45.84471" lon="4.81003">
        <ele>423.6000061</ele>
        <time>2012-01-27T18:55:21Z</time>
      </trkpt>
      <trkpt lat="45.84471" lon="4.81">
        <ele>424</ele>
        <time>2012-01-27T18:55:23Z</time>
      </trkpt>
      <trkpt lat="45.84471" lon="4.80999">
        <ele>424.3999939</ele>
        <time>2012-01-27T18:55:24Z</time>
      </trkpt>
      <trkpt lat="45.84472" lon="4.80992">
        <ele>424.6000061</ele>
        <time>2012-01-27T18:55:28Z</time>
      </trkpt>
      <trkpt lat="45.84472" lon="4.80991">
        <ele>424.7999878</ele>
        <time>2012-01-27T18:55:29Z</time>
      </trkpt>
      <trkpt lat="45.84472" lon="4.80988">
        <ele>425</ele>
        <time>2012-01-27T18:55:33Z</time>
      </trkpt>
      <trkpt lat="45.84473" lon="4.80984">
        <ele>424.7999878</ele>
        <time>2012-01-27T18:55:35Z</time>
      </trkpt>
      <trkpt lat="45.84474" lon="4.80974">
        <ele>425</ele>
        <time>2012-01-27T18:55:40Z</time>
      </trkpt>
      <trkpt lat="45.84474" lon="4.80968">
        <ele>426.6000061</ele>
        <time>2012-01-27T18:55:46Z</time>
      </trkpt>
      <trkpt lat="45.84475" lon="4.80959">
        <ele>426.6000061</ele>
        <time>2012-01-27T18:55:50Z</time>
      </trkpt>
      <trkpt lat="45.84477" lon="4.80953">
        <ele>427.2000122</ele>
        <time>2012-01-27T18:55:53Z</time>
      </trkpt>
      <trkpt lat="45.84476" lon="4.80951">
        <ele>427.3999939</ele>
        <time>2012-01-27T18:55:54Z</time>
      </trkpt>
      <trkpt lat="45.84475" lon="4.80948">
        <ele>427.7999878</ele>
        <time>2012-01-27T18:55:56Z</time>
      </trkpt>
      <trkpt lat="45.84475" lon="4.80947">
        <ele>427.3999939</ele>
        <time>2012-01-27T18:55:57Z</time>
      </trkpt>
      <trkpt lat="45.84475" lon="4.80945">
        <ele>427.3999939</ele>
        <time>2012-01-27T18:55:58Z</time>
      </trkpt>
      <trkpt lat="45.84475" lon="4.80937">
        <ele>427.3999939</ele>
        <time>2012-01-27T18:56:02Z</time>
      </trkpt>
      <trkpt lat="45.84477" lon="4.80931">
        <ele>427.2000122</ele>
        <time>2012-01-27T18:56:07Z</time>
      </trkpt>
      <trkpt lat="45.84478" lon="4.80925">
        <ele>427.2000122</ele>
        <time>2012-01-27T18:56:12Z</time>
      </trkpt>
      <trkpt lat="45.84478" lon="4.80924">
        <ele>427.6000061</ele>
        <time>2012-01-27T18:56:13Z</time>
      </trkpt>
      <trkpt lat="45.84478" lon="4.80922">
        <ele>428</ele>
        <time>2012-01-27T18:56:14Z</time>
      </trkpt>
      <trkpt lat="45.84478" lon="4.80915">
        <ele>428.3999939</ele>
        <time>2012-01-27T18:56:17Z</time>
      </trkpt>
      <trkpt lat="45.8448" lon="4.8091">
        <ele>429.2000122</ele>
        <time>2012-01-27T18:56:22Z</time>
      </trkpt>
      <trkpt lat="45.8448" lon="4.80905">
        <ele>430</ele>
        <time>2012-01-27T18:56:25Z</time>
      </trkpt>
      <trkpt lat="45.84481" lon="4.80905">
        <ele>430.2000122</ele>
        <time>2012-01-27T18:56:26Z</time>
      </trkpt>
      <trkpt lat="45.84482" lon="4.80903">
        <ele>430.7999878</ele>
        <time>2012-01-27T18:56:28Z</time>
      </trkpt>
      <trkpt lat="45.84482" lon="4.80902">
        <ele>431</ele>
        <time>2012-01-27T18:56:29Z</time>
      </trkpt>
      <trkpt lat="45.84482" lon="4.80901">
        <ele>431.7999878</ele>
        <time>2012-01-27T18:56:31Z</time>
      </trkpt>
      <trkpt lat="45.84482" lon="4.809">
        <ele>432.6000061</ele>
        <time>2012-01-27T18:56:33Z</time>
      </trkpt>
      <trkpt lat="45.84481" lon="4.80899">
        <ele>433.3999939</ele>
        <time>2012-01-27T18:56:35Z</time>
      </trkpt>
      <trkpt lat="45.84481" lon="4.80897">
        <ele>434.6000061</ele>
        <time>2012-01-27T18:56:38Z</time>
      </trkpt>
      <trkpt lat="45.84485" lon="4.80888">
        <ele>437</ele>
        <time>2012-01-27T18:56:44Z</time>
      </trkpt>
      <trkpt lat="45.84486" lon="4.80884">
        <ele>437.3999939</ele>
        <time>2012-01-27T18:56:46Z</time>
      </trkpt>
      <trkpt lat="45.84488" lon="4.80882">
        <ele>437.7999878</ele>
        <time>2012-01-27T18:56:48Z</time>
      </trkpt>
      <trkpt lat="45.8449" lon="4.80878">
        <ele>438.2000122</ele>
        <time>2012-01-27T18:56:51Z</time>
      </trkpt>
      <trkpt lat="45.8449" lon="4.80877">
        <ele>438.6000061</ele>
        <time>2012-01-27T18:56:52Z</time>
      </trkpt>
      <trkpt lat="45.84491" lon="4.80876">
        <ele>438.6000061</ele>
        <time>2012-01-27T18:56:53Z</time>
      </trkpt>
      <trkpt lat="45.84492" lon="4.80871">
        <ele>438.6000061</ele>
        <time>2012-01-27T18:56:58Z</time>
      </trkpt>
      <trkpt lat="45.84494" lon="4.80867">
        <ele>438.6000061</ele>
        <time>2012-01-27T18:57:00Z</time>
      </trkpt>
      <trkpt lat="45.84497" lon="4.80857">
        <ele>438.6000061</ele>
        <time>2012-01-27T18:57:06Z</time>
      </trkpt>
      <trkpt lat="45.84497" lon="4.80853">
        <ele>438.6000061</ele>
        <time>2012-01-27T18:57:08Z</time>
      </trkpt>
      <trkpt lat="45.84499" lon="4.80851">
        <ele>438.6000061</ele>
        <time>2012-01-27T18:57:11Z</time>
      </trkpt>
      <trkpt lat="45.84501" lon="4.80843">
        <ele>438.6000061</ele>
        <time>2012-01-27T18:57:16Z</time>
      </trkpt>
      <trkpt lat="45.84501" lon="4.8084">
        <ele>438.6000061</ele>
        <time>2012-01-27T18:57:18Z</time>
      </trkpt>
      <trkpt lat="45.84501" lon="4.80839">
        <ele>438.7999878</ele>
        <time>2012-01-27T18:57:19Z</time>
      </trkpt>
      <trkpt lat="45.845" lon="4.80838">
        <ele>439.6000061</ele>
        <time>2012-01-27T18:57:21Z</time>
      </trkpt>
      <trkpt lat="45.84504" lon="4.80841">
        <ele>449.7999878</ele>
        <time>2012-01-27T18:57:48Z</time>
      </trkpt>
      <trkpt lat="45.84504" lon="4.80839">
        <ele>450.6000061</ele>
        <time>2012-01-27T18:57:53Z</time>
      </trkpt>
      <trkpt lat="45.84505" lon="4.80835">
        <ele>451</ele>
        <time>2012-01-27T18:58:00Z</time>
      </trkpt>
      <trkpt lat="45.84505" lon="4.80831">
        <ele>451.2000122</ele>
        <time>2012-01-27T18:58:19Z</time>
      </trkpt>
      <trkpt lat="45.84503" lon="4.80826">
        <ele>451.7999878</ele>
        <time>2012-01-27T18:58:22Z</time>
      </trkpt>
      <trkpt lat="45.84502" lon="4.8082">
        <ele>452.7999878</ele>
        <time>2012-01-27T18:58:27Z</time>
      </trkpt>
      <trkpt lat="45.845" lon="4.80819">
        <ele>454.7999878</ele>
        <time>2012-01-27T18:58:33Z</time>
      </trkpt>
      <trkpt lat="45.845" lon="4.80814">
        <ele>457.3999939</ele>
        <time>2012-01-27T18:58:39Z</time>
      </trkpt>
      <trkpt lat="45.845" lon="4.80812">
        <ele>457.7999878</ele>
        <time>2012-01-27T18:58:40Z</time>
      </trkpt>
      <trkpt lat="45.84502" lon="4.80806">
        <ele>459.2000122</ele>
        <time>2012-01-27T18:58:44Z</time>
      </trkpt>
      <trkpt lat="45.84502" lon="4.80805">
        <ele>459.6000061</ele>
        <time>2012-01-27T18:58:45Z</time>
      </trkpt>
      <trkpt lat="45.84504" lon="4.80799">
        <ele>460.6000061</ele>
        <time>2012-01-27T18:58:48Z</time>
      </trkpt>
      <trkpt lat="45.84505" lon="4.80798">
        <ele>461</ele>
        <time>2012-01-27T18:58:49Z</time>
      </trkpt>
      <trkpt lat="45.84509" lon="4.80794">
        <ele>461.2000122</ele>
        <time>2012-01-27T18:58:52Z</time>
      </trkpt>
      <trkpt lat="45.84511" lon="4.80789">
        <ele>462</ele>
        <time>2012-01-27T18:58:56Z</time>
      </trkpt>
      <trkpt lat="45.84512" lon="4.80781">
        <ele>462.6000061</ele>
        <time>2012-01-27T18:59:01Z</time>
      </trkpt>
      <trkpt lat="45.84512" lon="4.80778">
        <ele>462.7999878</ele>
        <time>2012-01-27T18:59:03Z</time>
      </trkpt>
      <trkpt lat="45.84515" lon="4.80771">
        <ele>464</ele>
        <time>2012-01-27T18:59:09Z</time>
      </trkpt>
      <trkpt lat="45.84515" lon="4.80769">
        <ele>464.6000061</ele>
        <time>2012-01-27T18:59:11Z</time>
      </trkpt>
      <trkpt lat="45.84516" lon="4.80765">
        <ele>465.2000122</ele>
        <time>2012-01-27T18:59:14Z</time>
      </trkpt>
      <trkpt lat="45.84516" lon="4.80763">
        <ele>465.3999939</ele>
        <time>2012-01-27T18:59:15Z</time>
      </trkpt>
      <trkpt lat="45.84517" lon="4.80755">
        <ele>466</ele>
        <time>2012-01-27T18:59:20Z</time>
      </trkpt>
      <trkpt lat="45.84522" lon="4.80742">
        <ele>465.7999878</ele>
        <time>2012-01-27T18:59:27Z</time>
      </trkpt>
      <trkpt lat="45.84523" lon="4.8074">
        <ele>465.7999878</ele>
        <time>2012-01-27T18:59:28Z</time>
      </trkpt>
      <trkpt lat="45.84525" lon="4.80734">
        <ele>465.7999878</ele>
        <time>2012-01-27T18:59:32Z</time>
      </trkpt>
      <trkpt lat="45.84526" lon="4.80732">
        <ele>465.7999878</ele>
        <time>2012-01-27T18:59:33Z</time>
      </trkpt>
      <trkpt lat="45.84528" lon="4.80726">
        <ele>465.7999878</ele>
        <time>2012-01-27T18:59:37Z</time>
      </trkpt>
      <trkpt lat="45.84529" lon="4.80718">
        <ele>465.7999878</ele>
        <time>2012-01-27T18:59:42Z</time>
      </trkpt>
      <trkpt lat="45.84529" lon="4.80717">
        <ele>465.7999878</ele>
        <time>2012-01-27T18:59:43Z</time>
      </trkpt>
      <trkpt lat="45.8453" lon="4.80712">
        <ele>465.6000061</ele>
        <time>2012-01-27T18:59:45Z</time>
      </trkpt>
      <trkpt lat="45.84529" lon="4.80708">
        <ele>465.7999878</ele>
        <time>2012-01-27T18:59:47Z</time>
      </trkpt>
      <trkpt lat="45.84528" lon="4.80704">
        <ele>465.7999878</ele>
        <time>2012-01-27T18:59:49Z</time>
      </trkpt>
      <trkpt lat="45.84529" lon="4.80698">
        <ele>466.2000122</ele>
        <time>2012-01-27T18:59:52Z</time>
      </trkpt>
      <trkpt lat="45.84526" lon="4.80691">
        <ele>466.6000061</ele>
        <time>2012-01-27T18:59:57Z</time>
      </trkpt>
      <trkpt lat="45.84525" lon="4.80688">
        <ele>466.7999878</ele>
        <time>2012-01-27T18:59:59Z</time>
      </trkpt>
      <trkpt lat="45.84522" lon="4.80681">
        <ele>467.6000061</ele>
        <time>2012-01-27T19:00:04Z</time>
      </trkpt>
      <trkpt lat="45.84522" lon="4.80671">
        <ele>469</ele>
        <time>2012-01-27T19:00:09Z</time>
      </trkpt>
      <trkpt lat="45.84521" lon="4.8067">
        <ele>469.2000122</ele>
        <time>2012-01-27T19:00:10Z</time>
      </trkpt>
      <trkpt lat="45.8452" lon="4.80668">
        <ele>469.2000122</ele>
        <time>2012-01-27T19:00:11Z</time>
      </trkpt>
      <trkpt lat="45.84521" lon="4.80666">
        <ele>469.3999939</ele>
        <time>2012-01-27T19:00:12Z</time>
      </trkpt>
      <trkpt lat="45.84521" lon="4.80663">
        <ele>470</ele>
        <time>2012-01-27T19:00:14Z</time>
      </trkpt>
      <trkpt lat="45.84525" lon="4.80654">
        <ele>472</ele>
        <time>2012-01-27T19:00:20Z</time>
      </trkpt>
      <trkpt lat="45.8453" lon="4.80647">
        <ele>474</ele>
        <time>2012-01-27T19:00:26Z</time>
      </trkpt>
      <trkpt lat="45.84531" lon="4.80644">
        <ele>474.3999939</ele>
        <time>2012-01-27T19:00:28Z</time>
      </trkpt>
      <trkpt lat="45.84534" lon="4.80637">
        <ele>474.6000061</ele>
        <time>2012-01-27T19:00:31Z</time>
      </trkpt>
      <trkpt lat="45.84536" lon="4.80629">
        <ele>474.7999878</ele>
        <time>2012-01-27T19:00:35Z</time>
      </trkpt>
      <trkpt lat="45.84537" lon="4.80624">
        <ele>474.7999878</ele>
        <time>2012-01-27T19:00:37Z</time>
      </trkpt>
      <trkpt lat="45.84539" lon="4.80619">
        <ele>474.7999878</ele>
        <time>2012-01-27T19:00:40Z</time>
      </trkpt>
      <trkpt lat="45.84539" lon="4.80618">
        <ele>474.7999878</ele>
        <time>2012-01-27T19:00:41Z</time>
      </trkpt>
      <trkpt lat="45.84541" lon="4.80616">
        <ele>474.6000061</ele>
        <time>2012-01-27T19:00:43Z</time>
      </trkpt>
      <trkpt lat="45.84544" lon="4.80609">
        <ele>474.3999939</ele>
        <time>2012-01-27T19:00:49Z</time>
      </trkpt>
      <trkpt lat="45.84546" lon="4.80607">
        <ele>474.2000122</ele>
        <time>2012-01-27T19:00:56Z</time>
      </trkpt>
      <trkpt lat="45.84544" lon="4.80597">
        <ele>475.7999878</ele>
        <time>2012-01-27T19:01:40Z</time>
      </trkpt>
      <trkpt lat="45.84543" lon="4.80609">
        <ele>473.6000061</ele>
        <time>2012-01-27T19:03:12Z</time>
      </trkpt>
      <trkpt lat="45.84546" lon="4.80603">
        <ele>472.2000122</ele>
        <time>2012-01-27T19:03:25Z</time>
      </trkpt>
      <trkpt lat="45.84544" lon="4.80601">
        <ele>472</ele>
        <time>2012-01-27T19:03:28Z</time>
      </trkpt>
      <trkpt lat="45.84543" lon="4.80597">
        <ele>472</ele>
        <time>2012-01-27T19:03:30Z</time>
      </trkpt>
      <trkpt lat="45.84544" lon="4.80592">
        <ele>471.7999878</ele>
        <time>2012-01-27T19:03:34Z</time>
      </trkpt>
      <trkpt lat="45.84546" lon="4.80588">
        <ele>471.7999878</ele>
        <time>2012-01-27T19:03:36Z</time>
      </trkpt>
      <trkpt lat="45.84546" lon="4.80585">
        <ele>471.7999878</ele>
        <time>2012-01-27T19:03:37Z</time>
      </trkpt>
      <trkpt lat="45.84544" lon="4.80577">
        <ele>472</ele>
        <time>2012-01-27T19:03:40Z</time>
      </trkpt>
      <trkpt lat="45.84544" lon="4.80569">
        <ele>472.6000061</ele>
        <time>2012-01-27T19:03:44Z</time>
      </trkpt>
      <trkpt lat="45.84545" lon="4.80563">
        <ele>474</ele>
        <time>2012-01-27T19:03:48Z</time>
      </trkpt>
      <trkpt lat="45.84543" lon="4.80562">
        <ele>474.6000061</ele>
        <time>2012-01-27T19:03:50Z</time>
      </trkpt>
      <trkpt lat="45.84542" lon="4.80561">
        <ele>475</ele>
        <time>2012-01-27T19:03:51Z</time>
      </trkpt>
      <trkpt lat="45.84535" lon="4.80565">
        <ele>476.3999939</ele>
        <time>2012-01-27T19:03:55Z</time>
      </trkpt>
      <trkpt lat="45.8453" lon="4.80568">
        <ele>477</ele>
        <time>2012-01-27T19:03:57Z</time>
      </trkpt>
      <trkpt lat="45.84526" lon="4.80571">
        <ele>477.6000061</ele>
        <time>2012-01-27T19:03:59Z</time>
      </trkpt>
      <trkpt lat="45.84524" lon="4.80572">
        <ele>478</ele>
        <time>2012-01-27T19:04:00Z</time>
      </trkpt>
      <trkpt lat="45.84512" lon="4.80578">
        <ele>478.7999878</ele>
        <time>2012-01-27T19:04:05Z</time>
      </trkpt>
      <trkpt lat="45.84509" lon="4.80581">
        <ele>479.3999939</ele>
        <time>2012-01-27T19:04:07Z</time>
      </trkpt>
      <trkpt lat="45.845" lon="4.80585">
        <ele>480</ele>
        <time>2012-01-27T19:04:11Z</time>
      </trkpt>
      <trkpt lat="45.8449" lon="4.80587">
        <ele>480.3999939</ele>
        <time>2012-01-27T19:04:16Z</time>
      </trkpt>
      <trkpt lat="45.84488" lon="4.80588">
        <ele>480.3999939</ele>
        <time>2012-01-27T19:04:17Z</time>
      </trkpt>
      <trkpt lat="45.84477" lon="4.80591">
        <ele>480.6000061</ele>
        <time>2012-01-27T19:04:22Z</time>
      </trkpt>
      <trkpt lat="45.84472" lon="4.80591">
        <ele>480.6000061</ele>
        <time>2012-01-27T19:04:25Z</time>
      </trkpt>
      <trkpt lat="45.84468" lon="4.8059">
        <ele>480.3999939</ele>
        <time>2012-01-27T19:04:27Z</time>
      </trkpt>
      <trkpt lat="45.84456" lon="4.80592">
        <ele>480.7999878</ele>
        <time>2012-01-27T19:04:32Z</time>
      </trkpt>
      <trkpt lat="45.84453" lon="4.80592">
        <ele>480.7999878</ele>
        <time>2012-01-27T19:04:33Z</time>
      </trkpt>
      <trkpt lat="45.84444" lon="4.8059">
        <ele>481.2000122</ele>
        <time>2012-01-27T19:04:37Z</time>
      </trkpt>
      <trkpt lat="45.84434" lon="4.80586">
        <ele>481.2000122</ele>
        <time>2012-01-27T19:04:42Z</time>
      </trkpt>
      <trkpt lat="45.84426" lon="4.8058">
        <ele>481.6000061</ele>
        <time>2012-01-27T19:04:46Z</time>
      </trkpt>
      <trkpt lat="45.84417" lon="4.80575">
        <ele>482</ele>
        <time>2012-01-27T19:04:50Z</time>
      </trkpt>
      <trkpt lat="45.84412" lon="4.80573">
        <ele>482.3999939</ele>
        <time>2012-01-27T19:04:52Z</time>
      </trkpt>
      <trkpt lat="45.84405" lon="4.8057">
        <ele>482.7999878</ele>
        <time>2012-01-27T19:04:55Z</time>
      </trkpt>
      <trkpt lat="45.84401" lon="4.80567">
        <ele>483</ele>
        <time>2012-01-27T19:04:57Z</time>
      </trkpt>
      <trkpt lat="45.84399" lon="4.80567">
        <ele>483.3999939</ele>
        <time>2012-01-27T19:04:58Z</time>
      </trkpt>
      <trkpt lat="45.84393" lon="4.80564">
        <ele>484</ele>
        <time>2012-01-27T19:05:01Z</time>
      </trkpt>
      <trkpt lat="45.84381" lon="4.80558">
        <ele>485</ele>
        <time>2012-01-27T19:05:06Z</time>
      </trkpt>
      <trkpt lat="45.8437" lon="4.80555">
        <ele>486.2000122</ele>
        <time>2012-01-27T19:05:11Z</time>
      </trkpt>
      <trkpt lat="45.84362" lon="4.80552">
        <ele>486.7999878</ele>
        <time>2012-01-27T19:05:15Z</time>
      </trkpt>
      <trkpt lat="45.84361" lon="4.80552">
        <ele>487</ele>
        <time>2012-01-27T19:05:16Z</time>
      </trkpt>
      <trkpt lat="45.84356" lon="4.8055">
        <ele>487.3999939</ele>
        <time>2012-01-27T19:05:20Z</time>
      </trkpt>
      <trkpt lat="45.84355" lon="4.80551">
        <ele>488</ele>
        <time>2012-01-27T19:05:22Z</time>
      </trkpt>
      <trkpt lat="45.84356" lon="4.80545">
        <ele>489</ele>
        <time>2012-01-27T19:05:33Z</time>
      </trkpt>
      <trkpt lat="45.84358" lon="4.80542">
        <ele>489.3999939</ele>
        <time>2012-01-27T19:05:36Z</time>
      </trkpt>
      <trkpt lat="45.84359" lon="4.80538">
        <ele>489.6000061</ele>
        <time>2012-01-27T19:05:39Z</time>
      </trkpt>
      <trkpt lat="45.8436" lon="4.80536">
        <ele>489.7999878</ele>
        <time>2012-01-27T19:05:40Z</time>
      </trkpt>
      <trkpt lat="45.84362" lon="4.80529">
        <ele>490.2000122</ele>
        <time>2012-01-27T19:05:44Z</time>
      </trkpt>
      <trkpt lat="45.84362" lon="4.80526">
        <ele>490.6000061</ele>
        <time>2012-01-27T19:05:46Z</time>
      </trkpt>
      <trkpt lat="45.84363" lon="4.80521">
        <ele>491.2000122</ele>
        <time>2012-01-27T19:05:49Z</time>
      </trkpt>
      <trkpt lat="45.84365" lon="4.8051">
        <ele>492</ele>
        <time>2012-01-27T19:05:55Z</time>
      </trkpt>
      <trkpt lat="45.84365" lon="4.80501">
        <ele>492.6000061</ele>
        <time>2012-01-27T19:06:00Z</time>
      </trkpt>
      <trkpt lat="45.84363" lon="4.80495">
        <ele>493</ele>
        <time>2012-01-27T19:06:03Z</time>
      </trkpt>
      <trkpt lat="45.84363" lon="4.80491">
        <ele>493.3999939</ele>
        <time>2012-01-27T19:06:06Z</time>
      </trkpt>
      <trkpt lat="45.84361" lon="4.80484">
        <ele>494</ele>
        <time>2012-01-27T19:06:10Z</time>
      </trkpt>
      <trkpt lat="45.84361" lon="4.80482">
        <ele>494.2000122</ele>
        <time>2012-01-27T19:06:11Z</time>
      </trkpt>
      <trkpt lat="45.8436" lon="4.80474">
        <ele>495</ele>
        <time>2012-01-27T19:06:16Z</time>
      </trkpt>
      <trkpt lat="45.84358" lon="4.80464">
        <ele>496</ele>
        <time>2012-01-27T19:06:22Z</time>
      </trkpt>
      <trkpt lat="45.84358" lon="4.80457">
        <ele>496.3999939</ele>
        <time>2012-01-27T19:06:26Z</time>
      </trkpt>
      <trkpt lat="45.84359" lon="4.80454">
        <ele>496.3999939</ele>
        <time>2012-01-27T19:06:28Z</time>
      </trkpt>
      <trkpt lat="45.84366" lon="4.80448">
        <ele>497.2000122</ele>
        <time>2012-01-27T19:06:34Z</time>
      </trkpt>
      <trkpt lat="45.84373" lon="4.80448">
        <ele>498</ele>
        <time>2012-01-27T19:06:40Z</time>
      </trkpt>
      <trkpt lat="45.84375" lon="4.80448">
        <ele>498.2000122</ele>
        <time>2012-01-27T19:06:41Z</time>
      </trkpt>
      <trkpt lat="45.84383" lon="4.80442">
        <ele>499</ele>
        <time>2012-01-27T19:06:48Z</time>
      </trkpt>
      <trkpt lat="45.84385" lon="4.80435">
        <ele>499.3999939</ele>
        <time>2012-01-27T19:06:52Z</time>
      </trkpt>
      <trkpt lat="45.84385" lon="4.80434">
        <ele>499.6000061</ele>
        <time>2012-01-27T19:06:53Z</time>
      </trkpt>
      <trkpt lat="45.84386" lon="4.80433">
        <ele>499.6000061</ele>
        <time>2012-01-27T19:06:54Z</time>
      </trkpt>
      <trkpt lat="45.84387" lon="4.80427">
        <ele>499.7999878</ele>
        <time>2012-01-27T19:06:58Z</time>
      </trkpt>
      <trkpt lat="45.8439" lon="4.80418">
        <ele>500.6000061</ele>
        <time>2012-01-27T19:07:05Z</time>
      </trkpt>
      <trkpt lat="45.84391" lon="4.80409">
        <ele>501.3999939</ele>
        <time>2012-01-27T19:07:11Z</time>
      </trkpt>
      <trkpt lat="45.8439" lon="4.80403">
        <ele>502.2000122</ele>
        <time>2012-01-27T19:07:15Z</time>
      </trkpt>
      <trkpt lat="45.8439" lon="4.80402">
        <ele>502.3999939</ele>
        <time>2012-01-27T19:07:16Z</time>
      </trkpt>
      <trkpt lat="45.8439" lon="4.80395">
        <ele>502.7999878</ele>
        <time>2012-01-27T19:07:20Z</time>
      </trkpt>
      <trkpt lat="45.8439" lon="4.80393">
        <ele>502.7999878</ele>
        <time>2012-01-27T19:07:21Z</time>
      </trkpt>
      <trkpt lat="45.84391" lon="4.80392">
        <ele>503</ele>
        <time>2012-01-27T19:07:22Z</time>
      </trkpt>
      <trkpt lat="45.84391" lon="4.80385">
        <ele>504</ele>
        <time>2012-01-27T19:07:26Z</time>
      </trkpt>
      <trkpt lat="45.84391" lon="4.80383">
        <ele>504.2000122</ele>
        <time>2012-01-27T19:07:27Z</time>
      </trkpt>
      <trkpt lat="45.84391" lon="4.8038">
        <ele>504.7999878</ele>
        <time>2012-01-27T19:07:29Z</time>
      </trkpt>
      <trkpt lat="45.84392" lon="4.80377">
        <ele>505.3999939</ele>
        <time>2012-01-27T19:07:31Z</time>
      </trkpt>
      <trkpt lat="45.84392" lon="4.80374">
        <ele>506</ele>
        <time>2012-01-27T19:07:33Z</time>
      </trkpt>
      <trkpt lat="45.84391" lon="4.80364">
        <ele>507.6000061</ele>
        <time>2012-01-27T19:07:38Z</time>
      </trkpt>
      <trkpt lat="45.8439" lon="4.80359">
        <ele>508.6000061</ele>
        <time>2012-01-27T19:07:41Z</time>
      </trkpt>
      <trkpt lat="45.8439" lon="4.80358">
        <ele>509.2000122</ele>
        <time>2012-01-27T19:07:42Z</time>
      </trkpt>
      <trkpt lat="45.8439" lon="4.80356">
        <ele>509.6000061</ele>
        <time>2012-01-27T19:07:43Z</time>
      </trkpt>
      <trkpt lat="45.84389" lon="4.80348">
        <ele>511.2000122</ele>
        <time>2012-01-27T19:07:48Z</time>
      </trkpt>
      <trkpt lat="45.8439" lon="4.80346">
        <ele>511.3999939</ele>
        <time>2012-01-27T19:07:49Z</time>
      </trkpt>
      <trkpt lat="45.84391" lon="4.80337">
        <ele>512.5999756</ele>
        <time>2012-01-27T19:07:54Z</time>
      </trkpt>
      <trkpt lat="45.84391" lon="4.80333">
        <ele>513</ele>
        <time>2012-01-27T19:07:56Z</time>
      </trkpt>
      <trkpt lat="45.84391" lon="4.80329">
        <ele>513.2000122</ele>
        <time>2012-01-27T19:07:58Z</time>
      </trkpt>
      <trkpt lat="45.84392" lon="4.80327">
        <ele>513.4000244</ele>
        <time>2012-01-27T19:07:59Z</time>
      </trkpt>
      <trkpt lat="45.84393" lon="4.80317">
        <ele>514</ele>
        <time>2012-01-27T19:08:05Z</time>
      </trkpt>
      <trkpt lat="45.84392" lon="4.8031">
        <ele>514.5999756</ele>
        <time>2012-01-27T19:08:10Z</time>
      </trkpt>
      <trkpt lat="45.84392" lon="4.80305">
        <ele>515.4000244</ele>
        <time>2012-01-27T19:08:13Z</time>
      </trkpt>
      <trkpt lat="45.84392" lon="4.80303">
        <ele>515.5999756</ele>
        <time>2012-01-27T19:08:14Z</time>
      </trkpt>
      <trkpt lat="45.84392" lon="4.803">
        <ele>516</ele>
        <time>2012-01-27T19:08:16Z</time>
      </trkpt>
      <trkpt lat="45.84394" lon="4.80293">
        <ele>516.7999878</ele>
        <time>2012-01-27T19:08:21Z</time>
      </trkpt>
      <trkpt lat="45.84394" lon="4.80286">
        <ele>518</ele>
        <time>2012-01-27T19:08:27Z</time>
      </trkpt>
      <trkpt lat="45.84395" lon="4.80283">
        <ele>518.4000244</ele>
        <time>2012-01-27T19:08:29Z</time>
      </trkpt>
      <trkpt lat="45.84396" lon="4.80277">
        <ele>519</ele>
        <time>2012-01-27T19:08:33Z</time>
      </trkpt>
      <trkpt lat="45.84396" lon="4.80275">
        <ele>519.2000122</ele>
        <time>2012-01-27T19:08:34Z</time>
      </trkpt>
      <trkpt lat="45.84396" lon="4.80273">
        <ele>519.4000244</ele>
        <time>2012-01-27T19:08:35Z</time>
      </trkpt>
      <trkpt lat="45.84396" lon="4.80262">
        <ele>520.4000244</ele>
        <time>2012-01-27T19:08:41Z</time>
      </trkpt>
      <trkpt lat="45.84394" lon="4.80256">
        <ele>521.2000122</ele>
        <time>2012-01-27T19:08:45Z</time>
      </trkpt>
      <trkpt lat="45.84392" lon="4.80252">
        <ele>522</ele>
        <time>2012-01-27T19:08:47Z</time>
      </trkpt>
      <trkpt lat="45.84383" lon="4.80241">
        <ele>524.4000244</ele>
        <time>2012-01-27T19:08:54Z</time>
      </trkpt>
      <trkpt lat="45.84379" lon="4.80238">
        <ele>527</ele>
        <time>2012-01-27T19:09:00Z</time>
      </trkpt>
      <trkpt lat="45.84379" lon="4.80237">
        <ele>527.4000244</ele>
        <time>2012-01-27T19:09:01Z</time>
      </trkpt>
      <trkpt lat="45.8438" lon="4.80234">
        <ele>528.4000244</ele>
        <time>2012-01-27T19:09:03Z</time>
      </trkpt>
      <trkpt lat="45.84381" lon="4.8023">
        <ele>529.2000122</ele>
        <time>2012-01-27T19:09:05Z</time>
      </trkpt>
      <trkpt lat="45.84384" lon="4.80222">
        <ele>531.4000244</ele>
        <time>2012-01-27T19:09:10Z</time>
      </trkpt>
      <trkpt lat="45.84384" lon="4.80221">
        <ele>531.7999878</ele>
        <time>2012-01-27T19:09:11Z</time>
      </trkpt>
      <trkpt lat="45.84385" lon="4.80212">
        <ele>533.7999878</ele>
        <time>2012-01-27T19:09:16Z</time>
      </trkpt>
      <trkpt lat="45.84384" lon="4.80209">
        <ele>534.4000244</ele>
        <time>2012-01-27T19:09:18Z</time>
      </trkpt>
      <trkpt lat="45.84383" lon="4.80206">
        <ele>535</ele>
        <time>2012-01-27T19:09:20Z</time>
      </trkpt>
      <trkpt lat="45.84381" lon="4.80202">
        <ele>535.7999878</ele>
        <time>2012-01-27T19:09:22Z</time>
      </trkpt>
      <trkpt lat="45.84378" lon="4.80194">
        <ele>537.2000122</ele>
        <time>2012-01-27T19:09:26Z</time>
      </trkpt>
      <trkpt lat="45.84377" lon="4.80192">
        <ele>537.5999756</ele>
        <time>2012-01-27T19:09:27Z</time>
      </trkpt>
      <trkpt lat="45.84374" lon="4.80186">
        <ele>538.7999878</ele>
        <time>2012-01-27T19:09:31Z</time>
      </trkpt>
      <trkpt lat="45.84373" lon="4.80185">
        <ele>539.2000122</ele>
        <time>2012-01-27T19:09:32Z</time>
      </trkpt>
      <trkpt lat="45.84368" lon="4.80177">
        <ele>540.7999878</ele>
        <time>2012-01-27T19:09:37Z</time>
      </trkpt>
      <trkpt lat="45.84364" lon="4.80167">
        <ele>542.5999756</ele>
        <time>2012-01-27T19:09:43Z</time>
      </trkpt>
      <trkpt lat="45.84363" lon="4.80164">
        <ele>543.2000122</ele>
        <time>2012-01-27T19:09:45Z</time>
      </trkpt>
      <trkpt lat="45.84362" lon="4.80162">
        <ele>543.5999756</ele>
        <time>2012-01-27T19:09:46Z</time>
      </trkpt>
      <trkpt lat="45.8436" lon="4.80158">
        <ele>544.2000122</ele>
        <time>2012-01-27T19:09:48Z</time>
      </trkpt>
      <trkpt lat="45.84356" lon="4.80146">
        <ele>546.5999756</ele>
        <time>2012-01-27T19:09:55Z</time>
      </trkpt>
      <trkpt lat="45.84354" lon="4.8014">
        <ele>547.5999756</ele>
        <time>2012-01-27T19:09:58Z</time>
      </trkpt>
      <trkpt lat="45.84352" lon="4.80133">
        <ele>548.7999878</ele>
        <time>2012-01-27T19:10:02Z</time>
      </trkpt>
      <trkpt lat="45.84347" lon="4.80118">
        <ele>551.5999756</ele>
        <time>2012-01-27T19:10:10Z</time>
      </trkpt>
      <trkpt lat="45.84346" lon="4.80116">
        <ele>552</ele>
        <time>2012-01-27T19:10:11Z</time>
      </trkpt>
      <trkpt lat="45.84343" lon="4.80109">
        <ele>553.4000244</ele>
        <time>2012-01-27T19:10:15Z</time>
      </trkpt>
      <trkpt lat="45.84338" lon="4.80097">
        <ele>556</ele>
        <time>2012-01-27T19:10:23Z</time>
      </trkpt>
      <trkpt lat="45.84336" lon="4.80092">
        <ele>556.7999878</ele>
        <time>2012-01-27T19:10:26Z</time>
      </trkpt>
      <trkpt lat="45.84334" lon="4.80084">
        <ele>558.4000244</ele>
        <time>2012-01-27T19:10:31Z</time>
      </trkpt>
      <trkpt lat="45.84331" lon="4.80073">
        <ele>560.2000122</ele>
        <time>2012-01-27T19:10:38Z</time>
      </trkpt>
      <trkpt lat="45.8433" lon="4.80071">
        <ele>560.5999756</ele>
        <time>2012-01-27T19:10:39Z</time>
      </trkpt>
      <trkpt lat="45.84328" lon="4.80067">
        <ele>561.2000122</ele>
        <time>2012-01-27T19:10:41Z</time>
      </trkpt>
      <trkpt lat="45.84327" lon="4.80064">
        <ele>561.5999756</ele>
        <time>2012-01-27T19:10:43Z</time>
      </trkpt>
      <trkpt lat="45.84323" lon="4.80055">
        <ele>563.2000122</ele>
        <time>2012-01-27T19:10:49Z</time>
      </trkpt>
      <trkpt lat="45.84321" lon="4.80045">
        <ele>564.7999878</ele>
        <time>2012-01-27T19:10:55Z</time>
      </trkpt>
      <trkpt lat="45.84321" lon="4.80044">
        <ele>565</ele>
        <time>2012-01-27T19:10:56Z</time>
      </trkpt>
      <trkpt lat="45.8432" lon="4.80042">
        <ele>565.4000244</ele>
        <time>2012-01-27T19:10:57Z</time>
      </trkpt>
      <trkpt lat="45.84317" lon="4.80033">
        <ele>566.7999878</ele>
        <time>2012-01-27T19:11:04Z</time>
      </trkpt>
      <trkpt lat="45.84307" lon="4.80028">
        <ele>568</ele>
        <time>2012-01-27T19:11:11Z</time>
      </trkpt>
      <trkpt lat="45.84299" lon="4.80024">
        <ele>568.7999878</ele>
        <time>2012-01-27T19:11:16Z</time>
      </trkpt>
      <trkpt lat="45.84293" lon="4.80017">
        <ele>569.4000244</ele>
        <time>2012-01-27T19:11:22Z</time>
      </trkpt>
      <trkpt lat="45.84293" lon="4.80015">
        <ele>569.5999756</ele>
        <time>2012-01-27T19:11:23Z</time>
      </trkpt>
      <trkpt lat="45.8429" lon="4.80005">
        <ele>570.5999756</ele>
        <time>2012-01-27T19:11:29Z</time>
      </trkpt>
      <trkpt lat="45.84288" lon="4.79997">
        <ele>571.4000244</ele>
        <time>2012-01-27T19:11:33Z</time>
      </trkpt>
      <trkpt lat="45.84285" lon="4.79994">
        <ele>571.7999878</ele>
        <time>2012-01-27T19:11:35Z</time>
      </trkpt>
      <trkpt lat="45.84284" lon="4.79992">
        <ele>572</ele>
        <time>2012-01-27T19:11:36Z</time>
      </trkpt>
      <trkpt lat="45.84282" lon="4.79991">
        <ele>572</ele>
        <time>2012-01-27T19:11:37Z</time>
      </trkpt>
      <trkpt lat="45.84281" lon="4.79986">
        <ele>572.7999878</ele>
        <time>2012-01-27T19:11:40Z</time>
      </trkpt>
      <trkpt lat="45.84277" lon="4.79975">
        <ele>574.2000122</ele>
        <time>2012-01-27T19:11:47Z</time>
      </trkpt>
      <trkpt lat="45.84276" lon="4.79968">
        <ele>575.2000122</ele>
        <time>2012-01-27T19:11:51Z</time>
      </trkpt>
      <trkpt lat="45.84275" lon="4.79966">
        <ele>575.4000244</ele>
        <time>2012-01-27T19:11:52Z</time>
      </trkpt>
      <trkpt lat="45.84267" lon="4.79951">
        <ele>577.4000244</ele>
        <time>2012-01-27T19:11:59Z</time>
      </trkpt>
      <trkpt lat="45.84266" lon="4.79946">
        <ele>578.2000122</ele>
        <time>2012-01-27T19:12:02Z</time>
      </trkpt>
      <trkpt lat="45.84262" lon="4.79941">
        <ele>579</ele>
        <time>2012-01-27T19:12:05Z</time>
      </trkpt>
      <trkpt lat="45.84261" lon="4.79939">
        <ele>579.2000122</ele>
        <time>2012-01-27T19:12:06Z</time>
      </trkpt>
      <trkpt lat="45.84258" lon="4.7993">
        <ele>580.2000122</ele>
        <time>2012-01-27T19:12:10Z</time>
      </trkpt>
      <trkpt lat="45.84255" lon="4.79923">
        <ele>581</ele>
        <time>2012-01-27T19:12:14Z</time>
      </trkpt>
      <trkpt lat="45.84253" lon="4.79919">
        <ele>581.4000244</ele>
        <time>2012-01-27T19:12:16Z</time>
      </trkpt>
      <trkpt lat="45.84249" lon="4.79907">
        <ele>582.5999756</ele>
        <time>2012-01-27T19:12:22Z</time>
      </trkpt>
      <trkpt lat="45.84247" lon="4.79899">
        <ele>583.5999756</ele>
        <time>2012-01-27T19:12:26Z</time>
      </trkpt>
      <trkpt lat="45.84247" lon="4.79895">
        <ele>584</ele>
        <time>2012-01-27T19:12:28Z</time>
      </trkpt>
      <trkpt lat="45.84246" lon="4.79891">
        <ele>584.4000244</ele>
        <time>2012-01-27T19:12:30Z</time>
      </trkpt>
      <trkpt lat="45.84246" lon="4.79885">
        <ele>585.2000122</ele>
        <time>2012-01-27T19:12:33Z</time>
      </trkpt>
      <trkpt lat="45.84245" lon="4.79882">
        <ele>585.5999756</ele>
        <time>2012-01-27T19:12:35Z</time>
      </trkpt>
      <trkpt lat="45.84242" lon="4.79872">
        <ele>586.7999878</ele>
        <time>2012-01-27T19:12:40Z</time>
      </trkpt>
      <trkpt lat="45.8424" lon="4.79866">
        <ele>587.4000244</ele>
        <time>2012-01-27T19:12:43Z</time>
      </trkpt>
      <trkpt lat="45.84238" lon="4.79862">
        <ele>587.7999878</ele>
        <time>2012-01-27T19:12:46Z</time>
      </trkpt>
      <trkpt lat="45.84236" lon="4.79859">
        <ele>588.2000122</ele>
        <time>2012-01-27T19:12:47Z</time>
      </trkpt>
      <trkpt lat="45.84231" lon="4.79853">
        <ele>588.7999878</ele>
        <time>2012-01-27T19:12:50Z</time>
      </trkpt>
      <trkpt lat="45.8423" lon="4.7985">
        <ele>589</ele>
        <time>2012-01-27T19:12:51Z</time>
      </trkpt>
      <trkpt lat="45.84226" lon="4.79836">
        <ele>589.7999878</ele>
        <time>2012-01-27T19:12:56Z</time>
      </trkpt>
      <trkpt lat="45.84223" lon="4.79828">
        <ele>590.2000122</ele>
        <time>2012-01-27T19:12:59Z</time>
      </trkpt>
      <trkpt lat="45.8422" lon="4.79816">
        <ele>590.5999756</ele>
        <time>2012-01-27T19:13:03Z</time>
      </trkpt>
      <trkpt lat="45.84218" lon="4.79812">
        <ele>591</ele>
        <time>2012-01-27T19:13:06Z</time>
      </trkpt>
      <trkpt lat="45.84217" lon="4.79809">
        <ele>591.2000122</ele>
        <time>2012-01-27T19:13:08Z</time>
      </trkpt>
      <trkpt lat="45.84217" lon="4.79809">
        <ele>591.7999878</ele>
        <time>2012-01-27T19:13:14Z</time>
      </trkpt>
      <trkpt lat="45.84217" lon="4.7981">
        <ele>592.4000244</ele>
        <time>2012-01-27T19:13:22Z</time>
      </trkpt>
      <trkpt lat="45.84217" lon="4.79809">
        <ele>594.4000244</ele>
        <time>2012-01-27T19:13:49Z</time>
      </trkpt>
      <trkpt lat="45.84217" lon="4.79809">
        <ele>594.4000244</ele>
        <time>2012-01-27T19:13:52Z</time>
      </trkpt>
      <trkpt lat="45.84218" lon="4.79809">
        <ele>594.5999756</ele>
        <time>2012-01-27T19:14:03Z</time>
      </trkpt>
      <trkpt lat="45.84217" lon="4.79809">
        <ele>594.5999756</ele>
        <time>2012-01-27T19:14:08Z</time>
      </trkpt>
      <trkpt lat="45.84216" lon="4.79809">
        <ele>595</ele>
        <time>2012-01-27T19:14:21Z</time>
      </trkpt>
      <trkpt lat="45.84218" lon="4.79809">
        <ele>595.2000122</ele>
        <time>2012-01-27T19:14:58Z</time>
      </trkpt>
      <trkpt lat="45.84217" lon="4.79812">
        <ele>595</ele>
        <time>2012-01-27T19:15:22Z</time>
      </trkpt>
      <trkpt lat="45.84218" lon="4.79813">
        <ele>594.7999878</ele>
        <time>2012-01-27T19:15:23Z</time>
      </trkpt>
      <trkpt lat="45.84218" lon="4.79813">
        <ele>594.7999878</ele>
        <time>2012-01-27T19:15:28Z</time>
      </trkpt>
      <trkpt lat="45.84218" lon="4.79812">
        <ele>594.4000244</ele>
        <time>2012-01-27T19:15:45Z</time>
      </trkpt>
      <trkpt lat="45.84219" lon="4.79812">
        <ele>594.4000244</ele>
        <time>2012-01-27T19:15:57Z</time>
      </trkpt>
      <trkpt lat="45.84219" lon="4.79813">
        <ele>594.5999756</ele>
        <time>2012-01-27T19:16:36Z</time>
      </trkpt>
      <trkpt lat="45.84221" lon="4.79815">
        <ele>594.5999756</ele>
        <time>2012-01-27T19:16:42Z</time>
      </trkpt>
      <trkpt lat="45.84224" lon="4.7982">
        <ele>594.7999878</ele>
        <time>2012-01-27T19:16:44Z</time>
      </trkpt>
      <trkpt lat="45.84229" lon="4.7983">
        <ele>594.5999756</ele>
        <time>2012-01-27T19:16:48Z</time>
      </trkpt>
      <trkpt lat="45.8423" lon="4.79832">
        <ele>594.5999756</ele>
        <time>2012-01-27T19:16:50Z</time>
      </trkpt>
      <trkpt lat="45.84232" lon="4.79836">
        <ele>594.5999756</ele>
        <time>2012-01-27T19:16:51Z</time>
      </trkpt>
      <trkpt lat="45.84234" lon="4.79843">
        <ele>594.5999756</ele>
        <time>2012-01-27T19:16:54Z</time>
      </trkpt>
      <trkpt lat="45.84235" lon="4.79845">
        <ele>594.5999756</ele>
        <time>2012-01-27T19:16:56Z</time>
      </trkpt>
      <trkpt lat="45.8424" lon="4.79858">
        <ele>594.5999756</ele>
        <time>2012-01-27T19:17:01Z</time>
      </trkpt>
      <trkpt lat="45.84245" lon="4.79861">
        <ele>594.4000244</ele>
        <time>2012-01-27T19:17:03Z</time>
      </trkpt>
      <trkpt lat="45.84252" lon="4.79867">
        <ele>594.4000244</ele>
        <time>2012-01-27T19:17:08Z</time>
      </trkpt>
      <trkpt lat="45.84257" lon="4.79872">
        <ele>594.4000244</ele>
        <time>2012-01-27T19:17:11Z</time>
      </trkpt>
      <trkpt lat="45.84262" lon="4.79878">
        <ele>594.2000122</ele>
        <time>2012-01-27T19:17:14Z</time>
      </trkpt>
      <trkpt lat="45.84272" lon="4.79889">
        <ele>594</ele>
        <time>2012-01-27T19:17:20Z</time>
      </trkpt>
      <trkpt lat="45.84274" lon="4.7989">
        <ele>594</ele>
        <time>2012-01-27T19:17:21Z</time>
      </trkpt>
      <trkpt lat="45.84284" lon="4.79903">
        <ele>593.5999756</ele>
        <time>2012-01-27T19:17:27Z</time>
      </trkpt>
      <trkpt lat="45.84288" lon="4.79906">
        <ele>593.5999756</ele>
        <time>2012-01-27T19:17:30Z</time>
      </trkpt>
      <trkpt lat="45.84296" lon="4.79916">
        <ele>593.2000122</ele>
        <time>2012-01-27T19:17:35Z</time>
      </trkpt>
      <trkpt lat="45.84302" lon="4.79923">
        <ele>593</ele>
        <time>2012-01-27T19:17:39Z</time>
      </trkpt>
      <trkpt lat="45.84307" lon="4.79928">
        <ele>592.7999878</ele>
        <time>2012-01-27T19:17:42Z</time>
      </trkpt>
      <trkpt lat="45.84318" lon="4.79939">
        <ele>592.4000244</ele>
        <time>2012-01-27T19:17:47Z</time>
      </trkpt>
      <trkpt lat="45.8432" lon="4.79941">
        <ele>592.2000122</ele>
        <time>2012-01-27T19:17:48Z</time>
      </trkpt>
      <trkpt lat="45.84325" lon="4.79951">
        <ele>592</ele>
        <time>2012-01-27T19:17:53Z</time>
      </trkpt>
      <trkpt lat="45.8433" lon="4.79961">
        <ele>591.5999756</ele>
        <time>2012-01-27T19:17:57Z</time>
      </trkpt>
      <trkpt lat="45.84335" lon="4.79967">
        <ele>591.2000122</ele>
        <time>2012-01-27T19:18:00Z</time>
      </trkpt>
      <trkpt lat="45.84345" lon="4.79979">
        <ele>590.5999756</ele>
        <time>2012-01-27T19:18:06Z</time>
      </trkpt>
      <trkpt lat="45.84351" lon="4.79993">
        <ele>590</ele>
        <time>2012-01-27T19:18:11Z</time>
      </trkpt>
      <trkpt lat="45.84353" lon="4.80002">
        <ele>589.5999756</ele>
        <time>2012-01-27T19:18:14Z</time>
      </trkpt>
      <trkpt lat="45.84354" lon="4.80009">
        <ele>589.4000244</ele>
        <time>2012-01-27T19:18:16Z</time>
      </trkpt>
      <trkpt lat="45.84358" lon="4.80028">
        <ele>588.5999756</ele>
        <time>2012-01-27T19:18:21Z</time>
      </trkpt>
      <trkpt lat="45.84364" lon="4.80041">
        <ele>587.7999878</ele>
        <time>2012-01-27T19:18:26Z</time>
      </trkpt>
      <trkpt lat="45.8437" lon="4.8005">
        <ele>587.4000244</ele>
        <time>2012-01-27T19:18:29Z</time>
      </trkpt>
      <trkpt lat="45.84373" lon="4.80056">
        <ele>587</ele>
        <time>2012-01-27T19:18:31Z</time>
      </trkpt>
      <trkpt lat="45.84384" lon="4.80066">
        <ele>586</ele>
        <time>2012-01-27T19:18:36Z</time>
      </trkpt>
      <trkpt lat="45.84396" lon="4.80074">
        <ele>584.7999878</ele>
        <time>2012-01-27T19:18:42Z</time>
      </trkpt>
      <trkpt lat="45.84401" lon="4.8008">
        <ele>584.2000122</ele>
        <time>2012-01-27T19:18:45Z</time>
      </trkpt>
      <trkpt lat="45.84404" lon="4.80085">
        <ele>583.7999878</ele>
        <time>2012-01-27T19:18:47Z</time>
      </trkpt>
      <trkpt lat="45.84413" lon="4.801">
        <ele>582.5999756</ele>
        <time>2012-01-27T19:18:53Z</time>
      </trkpt>
      <trkpt lat="45.84422" lon="4.80112">
        <ele>581.4000244</ele>
        <time>2012-01-27T19:18:58Z</time>
      </trkpt>
      <trkpt lat="45.84427" lon="4.8012">
        <ele>580.7999878</ele>
        <time>2012-01-27T19:19:01Z</time>
      </trkpt>
      <trkpt lat="45.84431" lon="4.80126">
        <ele>580.4000244</ele>
        <time>2012-01-27T19:19:03Z</time>
      </trkpt>
      <trkpt lat="45.8444" lon="4.80139">
        <ele>579.4000244</ele>
        <time>2012-01-27T19:19:08Z</time>
      </trkpt>
      <trkpt lat="45.84448" lon="4.80151">
        <ele>578.4000244</ele>
        <time>2012-01-27T19:19:13Z</time>
      </trkpt>
      <trkpt lat="45.84453" lon="4.80158">
        <ele>577.7999878</ele>
        <time>2012-01-27T19:19:15Z</time>
      </trkpt>
      <trkpt lat="45.84457" lon="4.80163">
        <ele>577.2000122</ele>
        <time>2012-01-27T19:19:18Z</time>
      </trkpt>
      <trkpt lat="45.84465" lon="4.80178">
        <ele>576.4000244</ele>
        <time>2012-01-27T19:19:23Z</time>
      </trkpt>
      <trkpt lat="45.84468" lon="4.80183">
        <ele>576</ele>
        <time>2012-01-27T19:19:25Z</time>
      </trkpt>
      <trkpt lat="45.84477" lon="4.802">
        <ele>574.7999878</ele>
        <time>2012-01-27T19:19:31Z</time>
      </trkpt>
      <trkpt lat="45.84478" lon="4.80202">
        <ele>574.5999756</ele>
        <time>2012-01-27T19:19:32Z</time>
      </trkpt>
      <trkpt lat="45.84481" lon="4.80208">
        <ele>574.2000122</ele>
        <time>2012-01-27T19:19:34Z</time>
      </trkpt>
      <trkpt lat="45.84484" lon="4.80216">
        <ele>573.5999756</ele>
        <time>2012-01-27T19:19:37Z</time>
      </trkpt>
      <trkpt lat="45.84487" lon="4.80223">
        <ele>573</ele>
        <time>2012-01-27T19:19:40Z</time>
      </trkpt>
      <trkpt lat="45.84491" lon="4.80227">
        <ele>572.4000244</ele>
        <time>2012-01-27T19:19:41Z</time>
      </trkpt>
      <trkpt lat="45.84501" lon="4.80238">
        <ele>571.5999756</ele>
        <time>2012-01-27T19:19:46Z</time>
      </trkpt>
      <trkpt lat="45.84503" lon="4.8024">
        <ele>571.4000244</ele>
        <time>2012-01-27T19:19:48Z</time>
      </trkpt>
      <trkpt lat="45.84516" lon="4.8025">
        <ele>570.2000122</ele>
        <time>2012-01-27T19:19:54Z</time>
      </trkpt>
      <trkpt lat="45.84521" lon="4.80254">
        <ele>569.7999878</ele>
        <time>2012-01-27T19:19:56Z</time>
      </trkpt>
      <trkpt lat="45.84527" lon="4.80259">
        <ele>569.2000122</ele>
        <time>2012-01-27T19:19:59Z</time>
      </trkpt>
      <trkpt lat="45.84538" lon="4.80265">
        <ele>568.4000244</ele>
        <time>2012-01-27T19:20:04Z</time>
      </trkpt>
      <trkpt lat="45.84541" lon="4.80266">
        <ele>568.2000122</ele>
        <time>2012-01-27T19:20:05Z</time>
      </trkpt>
      <trkpt lat="45.84557" lon="4.80265">
        <ele>567</ele>
        <time>2012-01-27T19:20:11Z</time>
      </trkpt>
      <trkpt lat="45.84561" lon="4.80262">
        <ele>566.5999756</ele>
        <time>2012-01-27T19:20:14Z</time>
      </trkpt>
      <trkpt lat="45.84564" lon="4.80259">
        <ele>566.2000122</ele>
        <time>2012-01-27T19:20:16Z</time>
      </trkpt>
      <trkpt lat="45.84574" lon="4.80261">
        <ele>565.5999756</ele>
        <time>2012-01-27T19:20:20Z</time>
      </trkpt>
      <trkpt lat="45.84579" lon="4.80264">
        <ele>565.2000122</ele>
        <time>2012-01-27T19:20:21Z</time>
      </trkpt>
      <trkpt lat="45.84587" lon="4.80267">
        <ele>564.5999756</ele>
        <time>2012-01-27T19:20:25Z</time>
      </trkpt>
      <trkpt lat="45.84592" lon="4.8027">
        <ele>564.2000122</ele>
        <time>2012-01-27T19:20:27Z</time>
      </trkpt>
      <trkpt lat="45.84602" lon="4.80275">
        <ele>563.5999756</ele>
        <time>2012-01-27T19:20:31Z</time>
      </trkpt>
      <trkpt lat="45.8461" lon="4.80277">
        <ele>563.2000122</ele>
        <time>2012-01-27T19:20:34Z</time>
      </trkpt>
      <trkpt lat="45.84616" lon="4.80278">
        <ele>562.7999878</ele>
        <time>2012-01-27T19:20:37Z</time>
      </trkpt>
      <trkpt lat="45.84625" lon="4.80281">
        <ele>562.2000122</ele>
        <time>2012-01-27T19:20:41Z</time>
      </trkpt>
      <trkpt lat="45.84628" lon="4.80283">
        <ele>561.7999878</ele>
        <time>2012-01-27T19:20:43Z</time>
      </trkpt>
      <trkpt lat="45.84635" lon="4.80286">
        <ele>561.4000244</ele>
        <time>2012-01-27T19:20:46Z</time>
      </trkpt>
      <trkpt lat="45.84646" lon="4.80295">
        <ele>560.4000244</ele>
        <time>2012-01-27T19:20:51Z</time>
      </trkpt>
      <trkpt lat="45.84655" lon="4.80307">
        <ele>559.5999756</ele>
        <time>2012-01-27T19:20:57Z</time>
      </trkpt>
      <trkpt lat="45.8466" lon="4.80314">
        <ele>559.2000122</ele>
        <time>2012-01-27T19:21:00Z</time>
      </trkpt>
      <trkpt lat="45.84664" lon="4.80319">
        <ele>558.7999878</ele>
        <time>2012-01-27T19:21:02Z</time>
      </trkpt>
      <trkpt lat="45.84671" lon="4.80332">
        <ele>557.7999878</ele>
        <time>2012-01-27T19:21:07Z</time>
      </trkpt>
      <trkpt lat="45.84672" lon="4.80333">
        <ele>557.5999756</ele>
        <time>2012-01-27T19:21:08Z</time>
      </trkpt>
      <trkpt lat="45.84676" lon="4.80337">
        <ele>557.2000122</ele>
        <time>2012-01-27T19:21:10Z</time>
      </trkpt>
      <trkpt lat="45.84679" lon="4.80342">
        <ele>556.7999878</ele>
        <time>2012-01-27T19:21:12Z</time>
      </trkpt>
      <trkpt lat="45.84683" lon="4.80347">
        <ele>556.4000244</ele>
        <time>2012-01-27T19:21:14Z</time>
      </trkpt>
      <trkpt lat="45.84686" lon="4.80351">
        <ele>556</ele>
        <time>2012-01-27T19:21:16Z</time>
      </trkpt>
      <trkpt lat="45.84688" lon="4.80353">
        <ele>555.7999878</ele>
        <time>2012-01-27T19:21:17Z</time>
      </trkpt>
      <trkpt lat="45.847" lon="4.80366">
        <ele>554.4000244</ele>
        <time>2012-01-27T19:21:23Z</time>
      </trkpt>
      <trkpt lat="45.84701" lon="4.80369">
        <ele>554.4000244</ele>
        <time>2012-01-27T19:21:24Z</time>
      </trkpt>
      <trkpt lat="45.84709" lon="4.80377">
        <ele>553.5999756</ele>
        <time>2012-01-27T19:21:28Z</time>
      </trkpt>
      <trkpt lat="45.84714" lon="4.80384">
        <ele>553</ele>
        <time>2012-01-27T19:21:31Z</time>
      </trkpt>
      <trkpt lat="45.84716" lon="4.80386">
        <ele>552.7999878</ele>
        <time>2012-01-27T19:21:32Z</time>
      </trkpt>
      <trkpt lat="45.84721" lon="4.80391">
        <ele>552.4000244</ele>
        <time>2012-01-27T19:21:33Z</time>
      </trkpt>
      <trkpt lat="45.8473" lon="4.80403">
        <ele>551.4000244</ele>
        <time>2012-01-27T19:21:39Z</time>
      </trkpt>
      <trkpt lat="45.8474" lon="4.80411">
        <ele>550.4000244</ele>
        <time>2012-01-27T19:21:44Z</time>
      </trkpt>
      <trkpt lat="45.84745" lon="4.80418">
        <ele>549.7999878</ele>
        <time>2012-01-27T19:21:47Z</time>
      </trkpt>
      <trkpt lat="45.84748" lon="4.8042">
        <ele>549.4000244</ele>
        <time>2012-01-27T19:21:48Z</time>
      </trkpt>
      <trkpt lat="45.84758" lon="4.80434">
        <ele>548.2000122</ele>
        <time>2012-01-27T19:21:53Z</time>
      </trkpt>
      <trkpt lat="45.8476" lon="4.80436">
        <ele>548</ele>
        <time>2012-01-27T19:21:54Z</time>
      </trkpt>
      <trkpt lat="45.84766" lon="4.80443">
        <ele>547.2000122</ele>
        <time>2012-01-27T19:21:57Z</time>
      </trkpt>
      <trkpt lat="45.84768" lon="4.80447">
        <ele>547</ele>
        <time>2012-01-27T19:21:58Z</time>
      </trkpt>
      <trkpt lat="45.84773" lon="4.80455">
        <ele>546.2000122</ele>
        <time>2012-01-27T19:22:01Z</time>
      </trkpt>
      <trkpt lat="45.84775" lon="4.80457">
        <ele>546</ele>
        <time>2012-01-27T19:22:02Z</time>
      </trkpt>
      <trkpt lat="45.84778" lon="4.80461">
        <ele>545.4000244</ele>
        <time>2012-01-27T19:22:03Z</time>
      </trkpt>
      <trkpt lat="45.8478" lon="4.80465">
        <ele>545.2000122</ele>
        <time>2012-01-27T19:22:05Z</time>
      </trkpt>
      <trkpt lat="45.84788" lon="4.80471">
        <ele>544.4000244</ele>
        <time>2012-01-27T19:22:07Z</time>
      </trkpt>
      <trkpt lat="45.8479" lon="4.80473">
        <ele>544.2000122</ele>
        <time>2012-01-27T19:22:09Z</time>
      </trkpt>
      <trkpt lat="45.848" lon="4.80481">
        <ele>543.2000122</ele>
        <time>2012-01-27T19:22:13Z</time>
      </trkpt>
      <trkpt lat="45.84806" lon="4.80485">
        <ele>542.5999756</ele>
        <time>2012-01-27T19:22:15Z</time>
      </trkpt>
      <trkpt lat="45.84812" lon="4.8049">
        <ele>541.7999878</ele>
        <time>2012-01-27T19:22:17Z</time>
      </trkpt>
      <trkpt lat="45.84821" lon="4.80499">
        <ele>540.5999756</ele>
        <time>2012-01-27T19:22:21Z</time>
      </trkpt>
      <trkpt lat="45.84823" lon="4.805">
        <ele>540.4000244</ele>
        <time>2012-01-27T19:22:23Z</time>
      </trkpt>
      <trkpt lat="45.84831" lon="4.80509">
        <ele>539.2000122</ele>
        <time>2012-01-27T19:22:27Z</time>
      </trkpt>
      <trkpt lat="45.84839" lon="4.80515">
        <ele>538.4000244</ele>
        <time>2012-01-27T19:22:30Z</time>
      </trkpt>
      <trkpt lat="45.84842" lon="4.80517">
        <ele>538.2000122</ele>
        <time>2012-01-27T19:22:31Z</time>
      </trkpt>
      <trkpt lat="45.84851" lon="4.80526">
        <ele>537</ele>
        <time>2012-01-27T19:22:35Z</time>
      </trkpt>
      <trkpt lat="45.84856" lon="4.80532">
        <ele>536.4000244</ele>
        <time>2012-01-27T19:22:37Z</time>
      </trkpt>
      <trkpt lat="45.8486" lon="4.8054">
        <ele>535.7999878</ele>
        <time>2012-01-27T19:22:39Z</time>
      </trkpt>
      <trkpt lat="45.84867" lon="4.80551">
        <ele>534.5999756</ele>
        <time>2012-01-27T19:22:43Z</time>
      </trkpt>
      <trkpt lat="45.8487" lon="4.80555">
        <ele>534.4000244</ele>
        <time>2012-01-27T19:22:44Z</time>
      </trkpt>
      <trkpt lat="45.84874" lon="4.80565">
        <ele>533.5999756</ele>
        <time>2012-01-27T19:22:47Z</time>
      </trkpt>
      <trkpt lat="45.84883" lon="4.80577">
        <ele>532.5999756</ele>
        <time>2012-01-27T19:22:51Z</time>
      </trkpt>
      <trkpt lat="45.84885" lon="4.80579">
        <ele>532.4000244</ele>
        <time>2012-01-27T19:22:52Z</time>
      </trkpt>
      <trkpt lat="45.84896" lon="4.80593">
        <ele>531.2000122</ele>
        <time>2012-01-27T19:22:57Z</time>
      </trkpt>
      <trkpt lat="45.84898" lon="4.80595">
        <ele>530.7999878</ele>
        <time>2012-01-27T19:22:58Z</time>
      </trkpt>
      <trkpt lat="45.84907" lon="4.80606">
        <ele>529.7999878</ele>
        <time>2012-01-27T19:23:02Z</time>
      </trkpt>
      <trkpt lat="45.84913" lon="4.80614">
        <ele>529.2000122</ele>
        <time>2012-01-27T19:23:05Z</time>
      </trkpt>
      <trkpt lat="45.84916" lon="4.8062">
        <ele>528.5999756</ele>
        <time>2012-01-27T19:23:07Z</time>
      </trkpt>
      <trkpt lat="45.8492" lon="4.80625">
        <ele>528.2000122</ele>
        <time>2012-01-27T19:23:09Z</time>
      </trkpt>
      <trkpt lat="45.84926" lon="4.80632">
        <ele>527.4000244</ele>
        <time>2012-01-27T19:23:12Z</time>
      </trkpt>
      <trkpt lat="45.84928" lon="4.80635">
        <ele>527</ele>
        <time>2012-01-27T19:23:13Z</time>
      </trkpt>
      <trkpt lat="45.84938" lon="4.80646">
        <ele>526.2000122</ele>
        <time>2012-01-27T19:23:17Z</time>
      </trkpt>
      <trkpt lat="45.84942" lon="4.80651">
        <ele>525.5999756</ele>
        <time>2012-01-27T19:23:19Z</time>
      </trkpt>
      <trkpt lat="45.84947" lon="4.80659">
        <ele>525</ele>
        <time>2012-01-27T19:23:22Z</time>
      </trkpt>
      <trkpt lat="45.84948" lon="4.80664">
        <ele>524.2000122</ele>
        <time>2012-01-27T19:23:25Z</time>
      </trkpt>
      <trkpt lat="45.84948" lon="4.80666">
        <ele>524</ele>
        <time>2012-01-27T19:23:26Z</time>
      </trkpt>
      <trkpt lat="45.84949" lon="4.80669">
        <ele>523.4000244</ele>
        <time>2012-01-27T19:23:29Z</time>
      </trkpt>
      <trkpt lat="45.84949" lon="4.8067">
        <ele>523.2000122</ele>
        <time>2012-01-27T19:23:30Z</time>
      </trkpt>
      <trkpt lat="45.8495" lon="4.80669">
        <ele>516.2000122</ele>
        <time>2012-01-27T19:24:13Z</time>
      </trkpt>
      <trkpt lat="45.84953" lon="4.80673">
        <ele>516</ele>
        <time>2012-01-27T19:24:15Z</time>
      </trkpt>
      <trkpt lat="45.84962" lon="4.80688">
        <ele>515.4000244</ele>
        <time>2012-01-27T19:24:20Z</time>
      </trkpt>
      <trkpt lat="45.8497" lon="4.807">
        <ele>515</ele>
        <time>2012-01-27T19:24:24Z</time>
      </trkpt>
      <trkpt lat="45.84974" lon="4.80709">
        <ele>514.7999878</ele>
        <time>2012-01-27T19:24:27Z</time>
      </trkpt>
      <trkpt lat="45.84975" lon="4.80715">
        <ele>514.5999756</ele>
        <time>2012-01-27T19:24:29Z</time>
      </trkpt>
      <trkpt lat="45.84982" lon="4.80732">
        <ele>514</ele>
        <time>2012-01-27T19:24:34Z</time>
      </trkpt>
      <trkpt lat="45.84987" lon="4.80749">
        <ele>513.4000244</ele>
        <time>2012-01-27T19:24:39Z</time>
      </trkpt>
      <trkpt lat="45.84991" lon="4.80758">
        <ele>513</ele>
        <time>2012-01-27T19:24:42Z</time>
      </trkpt>
      <trkpt lat="45.84994" lon="4.80765">
        <ele>512.7999878</ele>
        <time>2012-01-27T19:24:43Z</time>
      </trkpt>
      <trkpt lat="45.84999" lon="4.8078">
        <ele>512.2000122</ele>
        <time>2012-01-27T19:24:48Z</time>
      </trkpt>
      <trkpt lat="45.85" lon="4.80783">
        <ele>512</ele>
        <time>2012-01-27T19:24:49Z</time>
      </trkpt>
      <trkpt lat="45.85003" lon="4.80788">
        <ele>511.7999878</ele>
        <time>2012-01-27T19:24:52Z</time>
      </trkpt>
      <trkpt lat="45.85004" lon="4.8079">
        <ele>511.6000061</ele>
        <time>2012-01-27T19:24:53Z</time>
      </trkpt>
      <trkpt lat="45.85012" lon="4.80804">
        <ele>511</ele>
        <time>2012-01-27T19:24:57Z</time>
      </trkpt>
      <trkpt lat="45.85018" lon="4.80815">
        <ele>510.3999939</ele>
        <time>2012-01-27T19:25:02Z</time>
      </trkpt>
      <trkpt lat="45.85023" lon="4.80824">
        <ele>509.7999878</ele>
        <time>2012-01-27T19:25:05Z</time>
      </trkpt>
      <trkpt lat="45.85027" lon="4.80829">
        <ele>509.6000061</ele>
        <time>2012-01-27T19:25:06Z</time>
      </trkpt>
      <trkpt lat="45.85028" lon="4.80832">
        <ele>509.3999939</ele>
        <time>2012-01-27T19:25:07Z</time>
      </trkpt>
      <trkpt lat="45.85033" lon="4.80841">
        <ele>509</ele>
        <time>2012-01-27T19:25:11Z</time>
      </trkpt>
      <trkpt lat="45.85035" lon="4.80844">
        <ele>508.7999878</ele>
        <time>2012-01-27T19:25:12Z</time>
      </trkpt>
      <trkpt lat="45.8504" lon="4.80855">
        <ele>508.2000122</ele>
        <time>2012-01-27T19:25:16Z</time>
      </trkpt>
      <trkpt lat="45.85042" lon="4.80857">
        <ele>508</ele>
        <time>2012-01-27T19:25:17Z</time>
      </trkpt>
      <trkpt lat="45.85046" lon="4.80865">
        <ele>507.6000061</ele>
        <time>2012-01-27T19:25:20Z</time>
      </trkpt>
      <trkpt lat="45.85048" lon="4.80868">
        <ele>507.3999939</ele>
        <time>2012-01-27T19:25:21Z</time>
      </trkpt>
      <trkpt lat="45.85054" lon="4.80877">
        <ele>507</ele>
        <time>2012-01-27T19:25:23Z</time>
      </trkpt>
      <trkpt lat="45.85059" lon="4.80885">
        <ele>506.6000061</ele>
        <time>2012-01-27T19:25:27Z</time>
      </trkpt>
      <trkpt lat="45.85063" lon="4.80894">
        <ele>506.2000122</ele>
        <time>2012-01-27T19:25:30Z</time>
      </trkpt>
      <trkpt lat="45.85071" lon="4.80907">
        <ele>505.3999939</ele>
        <time>2012-01-27T19:25:35Z</time>
      </trkpt>
      <trkpt lat="45.85076" lon="4.80912">
        <ele>505</ele>
        <time>2012-01-27T19:25:37Z</time>
      </trkpt>
      <trkpt lat="45.85083" lon="4.80921">
        <ele>504.3999939</ele>
        <time>2012-01-27T19:25:40Z</time>
      </trkpt>
      <trkpt lat="45.85086" lon="4.80923">
        <ele>504.3999939</ele>
        <time>2012-01-27T19:25:42Z</time>
      </trkpt>
      <trkpt lat="45.85094" lon="4.80934">
        <ele>503.6000061</ele>
        <time>2012-01-27T19:25:46Z</time>
      </trkpt>
      <trkpt lat="45.851" lon="4.80942">
        <ele>503.2000122</ele>
        <time>2012-01-27T19:25:49Z</time>
      </trkpt>
      <trkpt lat="45.85107" lon="4.80949">
        <ele>502.7999878</ele>
        <time>2012-01-27T19:25:52Z</time>
      </trkpt>
      <trkpt lat="45.85114" lon="4.8096">
        <ele>502.2000122</ele>
        <time>2012-01-27T19:25:57Z</time>
      </trkpt>
      <trkpt lat="45.85123" lon="4.80975">
        <ele>501.2000122</ele>
        <time>2012-01-27T19:26:03Z</time>
      </trkpt>
      <trkpt lat="45.85127" lon="4.80981">
        <ele>501</ele>
        <time>2012-01-27T19:26:05Z</time>
      </trkpt>
      <trkpt lat="45.85132" lon="4.80985">
        <ele>500.6000061</ele>
        <time>2012-01-27T19:26:07Z</time>
      </trkpt>
      <trkpt lat="45.85145" lon="4.80991">
        <ele>500</ele>
        <time>2012-01-27T19:26:12Z</time>
      </trkpt>
      <trkpt lat="45.85155" lon="4.81003">
        <ele>499.2000122</ele>
        <time>2012-01-27T19:26:17Z</time>
      </trkpt>
      <trkpt lat="45.8516" lon="4.81011">
        <ele>499</ele>
        <time>2012-01-27T19:26:20Z</time>
      </trkpt>
      <trkpt lat="45.85165" lon="4.81021">
        <ele>498.3999939</ele>
        <time>2012-01-27T19:26:23Z</time>
      </trkpt>
      <trkpt lat="45.8517" lon="4.81033">
        <ele>498</ele>
        <time>2012-01-27T19:26:27Z</time>
      </trkpt>
      <trkpt lat="45.85178" lon="4.81046">
        <ele>497</ele>
        <time>2012-01-27T19:26:31Z</time>
      </trkpt>
      <trkpt lat="45.85182" lon="4.8105">
        <ele>496.6000061</ele>
        <time>2012-01-27T19:26:34Z</time>
      </trkpt>
      <trkpt lat="45.85186" lon="4.81054">
        <ele>496.2000122</ele>
        <time>2012-01-27T19:26:35Z</time>
      </trkpt>
      <trkpt lat="45.85197" lon="4.81069">
        <ele>494.7999878</ele>
        <time>2012-01-27T19:26:41Z</time>
      </trkpt>
      <trkpt lat="45.85199" lon="4.81073">
        <ele>494.6000061</ele>
        <time>2012-01-27T19:26:42Z</time>
      </trkpt>
      <trkpt lat="45.85211" lon="4.81089">
        <ele>492.7999878</ele>
        <time>2012-01-27T19:26:47Z</time>
      </trkpt>
      <trkpt lat="45.85224" lon="4.811">
        <ele>491.6000061</ele>
        <time>2012-01-27T19:26:53Z</time>
      </trkpt>
      <trkpt lat="45.85229" lon="4.81104">
        <ele>491.2000122</ele>
        <time>2012-01-27T19:26:55Z</time>
      </trkpt>
      <trkpt lat="45.85235" lon="4.8111">
        <ele>490.6000061</ele>
        <time>2012-01-27T19:26:57Z</time>
      </trkpt>
      <trkpt lat="45.85246" lon="4.81121">
        <ele>489.3999939</ele>
        <time>2012-01-27T19:27:03Z</time>
      </trkpt>
      <trkpt lat="45.85249" lon="4.81123">
        <ele>489.2000122</ele>
        <time>2012-01-27T19:27:04Z</time>
      </trkpt>
      <trkpt lat="45.85254" lon="4.81128">
        <ele>488.6000061</ele>
        <time>2012-01-27T19:27:07Z</time>
      </trkpt>
      <trkpt lat="45.85255" lon="4.8113">
        <ele>488.3999939</ele>
        <time>2012-01-27T19:27:08Z</time>
      </trkpt>
      <trkpt lat="45.85254" lon="4.81134">
        <ele>487.6000061</ele>
        <time>2012-01-27T19:27:12Z</time>
      </trkpt>
      <trkpt lat="45.85253" lon="4.81137">
        <ele>486.2000122</ele>
        <time>2012-01-27T19:27:20Z</time>
      </trkpt>
      <trkpt lat="45.85254" lon="4.81134">
        <ele>485.6000061</ele>
        <time>2012-01-27T19:27:23Z</time>
      </trkpt>
      <trkpt lat="45.85255" lon="4.81132">
        <ele>485.3999939</ele>
        <time>2012-01-27T19:27:25Z</time>
      </trkpt>
      <trkpt lat="45.85261" lon="4.81136">
        <ele>484.3999939</ele>
        <time>2012-01-27T19:27:31Z</time>
      </trkpt>
      <trkpt lat="45.85263" lon="4.81137">
        <ele>484.3999939</ele>
        <time>2012-01-27T19:27:32Z</time>
      </trkpt>
      <trkpt lat="45.85268" lon="4.81145">
        <ele>484</ele>
        <time>2012-01-27T19:27:35Z</time>
      </trkpt>
      <trkpt lat="45.8527" lon="4.81147">
        <ele>483.7999878</ele>
        <time>2012-01-27T19:27:36Z</time>
      </trkpt>
      <trkpt lat="45.85274" lon="4.81155">
        <ele>483.2000122</ele>
        <time>2012-01-27T19:27:38Z</time>
      </trkpt>
      <trkpt lat="45.85282" lon="4.81167">
        <ele>482.7999878</ele>
        <time>2012-01-27T19:27:43Z</time>
      </trkpt>
      <trkpt lat="45.8529" lon="4.81178">
        <ele>482</ele>
        <time>2012-01-27T19:27:48Z</time>
      </trkpt>
      <trkpt lat="45.85298" lon="4.81185">
        <ele>481.6000061</ele>
        <time>2012-01-27T19:27:52Z</time>
      </trkpt>
      <trkpt lat="45.853" lon="4.81187">
        <ele>481.3999939</ele>
        <time>2012-01-27T19:27:53Z</time>
      </trkpt>
      <trkpt lat="45.85312" lon="4.81194">
        <ele>480.7999878</ele>
        <time>2012-01-27T19:27:58Z</time>
      </trkpt>
      <trkpt lat="45.85315" lon="4.81195">
        <ele>480.6000061</ele>
        <time>2012-01-27T19:27:59Z</time>
      </trkpt>
      <trkpt lat="45.85327" lon="4.81203">
        <ele>480</ele>
        <time>2012-01-27T19:28:04Z</time>
      </trkpt>
      <trkpt lat="45.85333" lon="4.81209">
        <ele>479.6000061</ele>
        <time>2012-01-27T19:28:07Z</time>
      </trkpt>
      <trkpt lat="45.85338" lon="4.81213">
        <ele>479.2000122</ele>
        <time>2012-01-27T19:28:09Z</time>
      </trkpt>
      <trkpt lat="45.85349" lon="4.81224">
        <ele>478.6000061</ele>
        <time>2012-01-27T19:28:14Z</time>
      </trkpt>
      <trkpt lat="45.85352" lon="4.81226">
        <ele>478.6000061</ele>
        <time>2012-01-27T19:28:15Z</time>
      </trkpt>
      <trkpt lat="45.85363" lon="4.81235">
        <ele>477.7999878</ele>
        <time>2012-01-27T19:28:20Z</time>
      </trkpt>
      <trkpt lat="45.85365" lon="4.81237">
        <ele>477.6000061</ele>
        <time>2012-01-27T19:28:21Z</time>
      </trkpt>
      <trkpt lat="45.85366" lon="4.81239">
        <ele>477.3999939</ele>
        <time>2012-01-27T19:28:22Z</time>
      </trkpt>
      <trkpt lat="45.85373" lon="4.81243">
        <ele>477</ele>
        <time>2012-01-27T19:28:25Z</time>
      </trkpt>
      <trkpt lat="45.85376" lon="4.81244">
        <ele>476.7999878</ele>
        <time>2012-01-27T19:28:26Z</time>
      </trkpt>
      <trkpt lat="45.85384" lon="4.81249">
        <ele>476.3999939</ele>
        <time>2012-01-27T19:28:29Z</time>
      </trkpt>
      <trkpt lat="45.85386" lon="4.81251">
        <ele>476.2000122</ele>
        <time>2012-01-27T19:28:30Z</time>
      </trkpt>
      <trkpt lat="45.8539" lon="4.81253">
        <ele>476</ele>
        <time>2012-01-27T19:28:32Z</time>
      </trkpt>
      <trkpt lat="45.85397" lon="4.81258">
        <ele>475.3999939</ele>
        <time>2012-01-27T19:28:36Z</time>
      </trkpt>
      <trkpt lat="45.854" lon="4.81261">
        <ele>475</ele>
        <time>2012-01-27T19:28:38Z</time>
      </trkpt>
      <trkpt lat="45.85402" lon="4.81262">
        <ele>475</ele>
        <time>2012-01-27T19:28:39Z</time>
      </trkpt>
      <trkpt lat="45.85405" lon="4.81265">
        <ele>474.6000061</ele>
        <time>2012-01-27T19:28:41Z</time>
      </trkpt>
      <trkpt lat="45.85416" lon="4.81269">
        <ele>473.6000061</ele>
        <time>2012-01-27T19:28:46Z</time>
      </trkpt>
      <trkpt lat="45.8542" lon="4.8127">
        <ele>473.2000122</ele>
        <time>2012-01-27T19:28:48Z</time>
      </trkpt>
      <trkpt lat="45.85427" lon="4.81273">
        <ele>472.6000061</ele>
        <time>2012-01-27T19:28:51Z</time>
      </trkpt>
      <trkpt lat="45.85438" lon="4.81275">
        <ele>471.3999939</ele>
        <time>2012-01-27T19:28:55Z</time>
      </trkpt>
      <trkpt lat="45.8544" lon="4.81275">
        <ele>471.2000122</ele>
        <time>2012-01-27T19:28:57Z</time>
      </trkpt>
      <trkpt lat="45.85449" lon="4.81276">
        <ele>470.3999939</ele>
        <time>2012-01-27T19:29:01Z</time>
      </trkpt>
      <trkpt lat="45.85458" lon="4.81276">
        <ele>469.3999939</ele>
        <time>2012-01-27T19:29:05Z</time>
      </trkpt>
      <trkpt lat="45.8546" lon="4.81277">
        <ele>469.2000122</ele>
        <time>2012-01-27T19:29:06Z</time>
      </trkpt>
      <trkpt lat="45.85461" lon="4.81277">
        <ele>469</ele>
        <time>2012-01-27T19:29:07Z</time>
      </trkpt>
      <trkpt lat="45.85465" lon="4.81278">
        <ele>468.3999939</ele>
        <time>2012-01-27T19:29:09Z</time>
      </trkpt>
      <trkpt lat="45.85474" lon="4.81281">
        <ele>467.2000122</ele>
        <time>2012-01-27T19:29:13Z</time>
      </trkpt>
      <trkpt lat="45.85478" lon="4.81285">
        <ele>466.2000122</ele>
        <time>2012-01-27T19:29:18Z</time>
      </trkpt>
      <trkpt lat="45.8548" lon="4.81285">
        <ele>465.7999878</ele>
        <time>2012-01-27T19:29:19Z</time>
      </trkpt>
      <trkpt lat="45.85485" lon="4.81285">
        <ele>464.2000122</ele>
        <time>2012-01-27T19:29:25Z</time>
      </trkpt>
      <trkpt lat="45.85492" lon="4.81286">
        <ele>463</ele>
        <time>2012-01-27T19:29:31Z</time>
      </trkpt>
      <trkpt lat="45.85492" lon="4.81287">
        <ele>462.7999878</ele>
        <time>2012-01-27T19:29:32Z</time>
      </trkpt>
      <trkpt lat="45.85493" lon="4.81287">
        <ele>462.2000122</ele>
        <time>2012-01-27T19:29:34Z</time>
      </trkpt>
      <trkpt lat="45.85496" lon="4.81288">
        <ele>461.3999939</ele>
        <time>2012-01-27T19:29:38Z</time>
      </trkpt>
      <trkpt lat="45.85495" lon="4.81288">
        <ele>461.2000122</ele>
        <time>2012-01-27T19:29:39Z</time>
      </trkpt>
      <trkpt lat="45.85493" lon="4.81289">
        <ele>459.7999878</ele>
        <time>2012-01-27T19:29:46Z</time>
      </trkpt>
      <trkpt lat="45.85495" lon="4.81293">
        <ele>458.7999878</ele>
        <time>2012-01-27T19:29:51Z</time>
      </trkpt>
      <trkpt lat="45.85491" lon="4.81305">
        <ele>458</ele>
        <time>2012-01-27T19:29:56Z</time>
      </trkpt>
      <trkpt lat="45.85489" lon="4.81308">
        <ele>457.7999878</ele>
        <time>2012-01-27T19:29:57Z</time>
      </trkpt>
      <trkpt lat="45.85481" lon="4.81318">
        <ele>456.7999878</ele>
        <time>2012-01-27T19:30:02Z</time>
      </trkpt>
      <trkpt lat="45.85475" lon="4.81328">
        <ele>456</ele>
        <time>2012-01-27T19:30:06Z</time>
      </trkpt>
      <trkpt lat="45.85467" lon="4.81349">
        <ele>454.7999878</ele>
        <time>2012-01-27T19:30:12Z</time>
      </trkpt>
      <trkpt lat="45.85466" lon="4.81353">
        <ele>454.6000061</ele>
        <time>2012-01-27T19:30:13Z</time>
      </trkpt>
      <trkpt lat="45.85463" lon="4.81373">
        <ele>453.6000061</ele>
        <time>2012-01-27T19:30:18Z</time>
      </trkpt>
      <trkpt lat="45.85463" lon="4.81381">
        <ele>453.2000122</ele>
        <time>2012-01-27T19:30:20Z</time>
      </trkpt>
      <trkpt lat="45.85464" lon="4.81398">
        <ele>452.3999939</ele>
        <time>2012-01-27T19:30:24Z</time>
      </trkpt>
      <trkpt lat="45.85466" lon="4.81406">
        <ele>452</ele>
        <time>2012-01-27T19:30:26Z</time>
      </trkpt>
      <trkpt lat="45.85468" lon="4.81418">
        <ele>451.6000061</ele>
        <time>2012-01-27T19:30:29Z</time>
      </trkpt>
      <trkpt lat="45.85471" lon="4.81434">
        <ele>450.7999878</ele>
        <time>2012-01-27T19:30:33Z</time>
      </trkpt>
      <trkpt lat="45.85473" lon="4.81441">
        <ele>450.6000061</ele>
        <time>2012-01-27T19:30:35Z</time>
      </trkpt>
      <trkpt lat="45.85472" lon="4.81463">
        <ele>449.7999878</ele>
        <time>2012-01-27T19:30:40Z</time>
      </trkpt>
      <trkpt lat="45.85471" lon="4.81481">
        <ele>449</ele>
        <time>2012-01-27T19:30:44Z</time>
      </trkpt>
      <trkpt lat="45.85471" lon="4.81489">
        <ele>448.6000061</ele>
        <time>2012-01-27T19:30:46Z</time>
      </trkpt>
      <trkpt lat="45.85472" lon="4.81504">
        <ele>448</ele>
        <time>2012-01-27T19:30:50Z</time>
      </trkpt>
      <trkpt lat="45.85471" lon="4.81517">
        <ele>447.3999939</ele>
        <time>2012-01-27T19:30:53Z</time>
      </trkpt>
      <trkpt lat="45.85471" lon="4.81522">
        <ele>447.2000122</ele>
        <time>2012-01-27T19:30:54Z</time>
      </trkpt>
      <trkpt lat="45.85468" lon="4.8154">
        <ele>446.2000122</ele>
        <time>2012-01-27T19:30:58Z</time>
      </trkpt>
      <trkpt lat="45.85467" lon="4.81543">
        <ele>446</ele>
        <time>2012-01-27T19:31:00Z</time>
      </trkpt>
      <trkpt lat="45.85465" lon="4.81545">
        <ele>445.6000061</ele>
        <time>2012-01-27T19:31:02Z</time>
      </trkpt>
      <trkpt lat="45.85462" lon="4.81547">
        <ele>445.3999939</ele>
        <time>2012-01-27T19:31:03Z</time>
      </trkpt>
      <trkpt lat="45.85458" lon="4.81552">
        <ele>444.6000061</ele>
        <time>2012-01-27T19:31:10Z</time>
      </trkpt>
      <trkpt lat="45.85455" lon="4.81562">
        <ele>444</ele>
        <time>2012-01-27T19:31:13Z</time>
      </trkpt>
      <trkpt lat="45.85454" lon="4.81564">
        <ele>443.7999878</ele>
        <time>2012-01-27T19:31:15Z</time>
      </trkpt>
      <trkpt lat="45.85452" lon="4.81572">
        <ele>443.2000122</ele>
        <time>2012-01-27T19:31:17Z</time>
      </trkpt>
      <trkpt lat="45.8545" lon="4.81579">
        <ele>443</ele>
        <time>2012-01-27T19:31:20Z</time>
      </trkpt>
      <trkpt lat="45.85448" lon="4.81586">
        <ele>442.6000061</ele>
        <time>2012-01-27T19:31:22Z</time>
      </trkpt>
      <trkpt lat="45.85444" lon="4.81594">
        <ele>442.2000122</ele>
        <time>2012-01-27T19:31:25Z</time>
      </trkpt>
      <trkpt lat="45.85435" lon="4.81602">
        <ele>441.2000122</ele>
        <time>2012-01-27T19:31:30Z</time>
      </trkpt>
      <trkpt lat="45.85433" lon="4.81604">
        <ele>441.2000122</ele>
        <time>2012-01-27T19:31:31Z</time>
      </trkpt>
      <trkpt lat="45.8543" lon="4.81616">
        <ele>440.3999939</ele>
        <time>2012-01-27T19:31:35Z</time>
      </trkpt>
      <trkpt lat="45.85427" lon="4.81629">
        <ele>439.7999878</ele>
        <time>2012-01-27T19:31:39Z</time>
      </trkpt>
      <trkpt lat="45.85425" lon="4.81632">
        <ele>439.7999878</ele>
        <time>2012-01-27T19:31:40Z</time>
      </trkpt>
      <trkpt lat="45.85424" lon="4.81634">
        <ele>439.6000061</ele>
        <time>2012-01-27T19:31:41Z</time>
      </trkpt>
      <trkpt lat="45.85418" lon="4.81646">
        <ele>438.7999878</ele>
        <time>2012-01-27T19:31:46Z</time>
      </trkpt>
      <trkpt lat="45.85417" lon="4.81652">
        <ele>438.3999939</ele>
        <time>2012-01-27T19:31:48Z</time>
      </trkpt>
      <trkpt lat="45.85417" lon="4.81655">
        <ele>438.3999939</ele>
        <time>2012-01-27T19:31:49Z</time>
      </trkpt>
      <trkpt lat="45.85418" lon="4.8166">
        <ele>438</ele>
        <time>2012-01-27T19:31:51Z</time>
      </trkpt>
      <trkpt lat="45.85422" lon="4.81667">
        <ele>437.3999939</ele>
        <time>2012-01-27T19:31:55Z</time>
      </trkpt>
      <trkpt lat="45.85422" lon="4.81675">
        <ele>437</ele>
        <time>2012-01-27T19:31:58Z</time>
      </trkpt>
      <trkpt lat="45.85422" lon="4.81677">
        <ele>436.7999878</ele>
        <time>2012-01-27T19:31:59Z</time>
      </trkpt>
      <trkpt lat="45.85415" lon="4.81692">
        <ele>435.7999878</ele>
        <time>2012-01-27T19:32:05Z</time>
      </trkpt>
      <trkpt lat="45.85414" lon="4.81697">
        <ele>435.6000061</ele>
        <time>2012-01-27T19:32:07Z</time>
      </trkpt>
      <trkpt lat="45.85411" lon="4.81706">
        <ele>435</ele>
        <time>2012-01-27T19:32:10Z</time>
      </trkpt>
      <trkpt lat="45.85406" lon="4.81718">
        <ele>434.2000122</ele>
        <time>2012-01-27T19:32:15Z</time>
      </trkpt>
      <trkpt lat="45.85404" lon="4.81721">
        <ele>434</ele>
        <time>2012-01-27T19:32:16Z</time>
      </trkpt>
      <trkpt lat="45.85402" lon="4.81729">
        <ele>433.3999939</ele>
        <time>2012-01-27T19:32:19Z</time>
      </trkpt>
      <trkpt lat="45.85401" lon="4.81731">
        <ele>433.2000122</ele>
        <time>2012-01-27T19:32:20Z</time>
      </trkpt>
      <trkpt lat="45.85399" lon="4.81734">
        <ele>432.6000061</ele>
        <time>2012-01-27T19:32:23Z</time>
      </trkpt>
      <trkpt lat="45.85398" lon="4.81735">
        <ele>432.3999939</ele>
        <time>2012-01-27T19:32:24Z</time>
      </trkpt>
      <trkpt lat="45.85391" lon="4.81738">
        <ele>431.7999878</ele>
        <time>2012-01-27T19:32:27Z</time>
      </trkpt>
      <trkpt lat="45.8538" lon="4.81739">
        <ele>430.6000061</ele>
        <time>2012-01-27T19:32:33Z</time>
      </trkpt>
      <trkpt lat="45.85372" lon="4.81741">
        <ele>429.7999878</ele>
        <time>2012-01-27T19:32:37Z</time>
      </trkpt>
      <trkpt lat="45.85368" lon="4.81743">
        <ele>429.3999939</ele>
        <time>2012-01-27T19:32:39Z</time>
      </trkpt>
      <trkpt lat="45.85356" lon="4.81743">
        <ele>428</ele>
        <time>2012-01-27T19:32:46Z</time>
      </trkpt>
      <trkpt lat="45.85354" lon="4.81743">
        <ele>427.6000061</ele>
        <time>2012-01-27T19:32:48Z</time>
      </trkpt>
      <trkpt lat="45.85349" lon="4.81744">
        <ele>427</ele>
        <time>2012-01-27T19:32:50Z</time>
      </trkpt>
      <trkpt lat="45.85343" lon="4.81744">
        <ele>426.2000122</ele>
        <time>2012-01-27T19:32:54Z</time>
      </trkpt>
      <trkpt lat="45.8534" lon="4.81745">
        <ele>426</ele>
        <time>2012-01-27T19:32:56Z</time>
      </trkpt>
      <trkpt lat="45.85335" lon="4.81748">
        <ele>425.6000061</ele>
        <time>2012-01-27T19:32:58Z</time>
      </trkpt>
      <trkpt lat="45.85329" lon="4.81748">
        <ele>425</ele>
        <time>2012-01-27T19:33:02Z</time>
      </trkpt>
      <trkpt lat="45.85327" lon="4.81747">
        <ele>424.6000061</ele>
        <time>2012-01-27T19:33:03Z</time>
      </trkpt>
      <trkpt lat="45.85324" lon="4.81751">
        <ele>424</ele>
        <time>2012-01-27T19:33:07Z</time>
      </trkpt>
      <trkpt lat="45.8532" lon="4.81754">
        <ele>423</ele>
        <time>2012-01-27T19:33:12Z</time>
      </trkpt>
      <trkpt lat="45.85318" lon="4.81754">
        <ele>422.7999878</ele>
        <time>2012-01-27T19:33:13Z</time>
      </trkpt>
      <trkpt lat="45.85315" lon="4.81754">
        <ele>422</ele>
        <time>2012-01-27T19:33:15Z</time>
      </trkpt>
      <trkpt lat="45.85314" lon="4.81754">
        <ele>421.7999878</ele>
        <time>2012-01-27T19:33:17Z</time>
      </trkpt>
      <trkpt lat="45.85317" lon="4.81758">
        <ele>420.6000061</ele>
        <time>2012-01-27T19:33:22Z</time>
      </trkpt>
      <trkpt lat="45.85317" lon="4.81762">
        <ele>419.7999878</ele>
        <time>2012-01-27T19:33:25Z</time>
      </trkpt>
      <trkpt lat="45.85315" lon="4.81764">
        <ele>419.6000061</ele>
        <time>2012-01-27T19:33:26Z</time>
      </trkpt>
      <trkpt lat="45.85311" lon="4.81766">
        <ele>419</ele>
        <time>2012-01-27T19:33:28Z</time>
      </trkpt>
      <trkpt lat="45.85305" lon="4.81768">
        <ele>418</ele>
        <time>2012-01-27T19:33:31Z</time>
      </trkpt>
      <trkpt lat="45.85303" lon="4.81769">
        <ele>417.6000061</ele>
        <time>2012-01-27T19:33:34Z</time>
      </trkpt>
      <trkpt lat="45.85301" lon="4.8177">
        <ele>416.6000061</ele>
        <time>2012-01-27T19:33:37Z</time>
      </trkpt>
      <trkpt lat="45.85298" lon="4.81772">
        <ele>416</ele>
        <time>2012-01-27T19:33:39Z</time>
      </trkpt>
      <trkpt lat="45.85295" lon="4.81774">
        <ele>415.2000122</ele>
        <time>2012-01-27T19:33:42Z</time>
      </trkpt>
      <trkpt lat="45.85291" lon="4.81775">
        <ele>414.7999878</ele>
        <time>2012-01-27T19:33:44Z</time>
      </trkpt>
      <trkpt lat="45.85288" lon="4.81778">
        <ele>413.7999878</ele>
        <time>2012-01-27T19:33:48Z</time>
      </trkpt>
      <trkpt lat="45.85282" lon="4.81782">
        <ele>412.3999939</ele>
        <time>2012-01-27T19:33:53Z</time>
      </trkpt>
      <trkpt lat="45.85281" lon="4.81793">
        <ele>411.6000061</ele>
        <time>2012-01-27T19:33:57Z</time>
      </trkpt>
      <trkpt lat="45.85278" lon="4.81812">
        <ele>410.6000061</ele>
        <time>2012-01-27T19:34:03Z</time>
      </trkpt>
      <trkpt lat="45.85276" lon="4.81819">
        <ele>410.2000122</ele>
        <time>2012-01-27T19:34:05Z</time>
      </trkpt>
      <trkpt lat="45.85271" lon="4.8183">
        <ele>409.3999939</ele>
        <time>2012-01-27T19:34:09Z</time>
      </trkpt>
      <trkpt lat="45.85269" lon="4.81836">
        <ele>408.7999878</ele>
        <time>2012-01-27T19:34:13Z</time>
      </trkpt>
      <trkpt lat="45.85265" lon="4.81836">
        <ele>407.3999939</ele>
        <time>2012-01-27T19:34:20Z</time>
      </trkpt>
      <trkpt lat="45.85266" lon="4.81842">
        <ele>405.3999939</ele>
        <time>2012-01-27T19:34:31Z</time>
      </trkpt>
      <trkpt lat="45.85265" lon="4.81855">
        <ele>404.6000061</ele>
        <time>2012-01-27T19:34:37Z</time>
      </trkpt>
      <trkpt lat="45.85268" lon="4.81871">
        <ele>404</ele>
        <time>2012-01-27T19:34:43Z</time>
      </trkpt>
      <trkpt lat="45.85271" lon="4.81892">
        <ele>403.3999939</ele>
        <time>2012-01-27T19:34:47Z</time>
      </trkpt>
      <trkpt lat="45.8527" lon="4.81896">
        <ele>403.3999939</ele>
        <time>2012-01-27T19:34:49Z</time>
      </trkpt>
      <trkpt lat="45.85266" lon="4.81906">
        <ele>402.7999878</ele>
        <time>2012-01-27T19:34:52Z</time>
      </trkpt>
      <trkpt lat="45.85267" lon="4.81908">
        <ele>402.7999878</ele>
        <time>2012-01-27T19:34:53Z</time>
      </trkpt>
      <trkpt lat="45.85266" lon="4.81922">
        <ele>402.2000122</ele>
        <time>2012-01-27T19:34:57Z</time>
      </trkpt>
      <trkpt lat="45.85268" lon="4.81941">
        <ele>401.6000061</ele>
        <time>2012-01-27T19:35:02Z</time>
      </trkpt>
      <trkpt lat="45.85266" lon="4.81948">
        <ele>401.2000122</ele>
        <time>2012-01-27T19:35:04Z</time>
      </trkpt>
      <trkpt lat="45.85265" lon="4.81959">
        <ele>400.7999878</ele>
        <time>2012-01-27T19:35:08Z</time>
      </trkpt>
      <trkpt lat="45.85266" lon="4.81961">
        <ele>400.6000061</ele>
        <time>2012-01-27T19:35:09Z</time>
      </trkpt>
      <trkpt lat="45.85266" lon="4.81971">
        <ele>400</ele>
        <time>2012-01-27T19:35:13Z</time>
      </trkpt>
      <trkpt lat="45.85266" lon="4.81974">
        <ele>399.7999878</ele>
        <time>2012-01-27T19:35:14Z</time>
      </trkpt>
      <trkpt lat="45.85265" lon="4.81987">
        <ele>399</ele>
        <time>2012-01-27T19:35:18Z</time>
      </trkpt>
      <trkpt lat="45.85259" lon="4.82001">
        <ele>398</ele>
        <time>2012-01-27T19:35:23Z</time>
      </trkpt>
      <trkpt lat="45.85251" lon="4.82011">
        <ele>396.6000061</ele>
        <time>2012-01-27T19:35:28Z</time>
      </trkpt>
      <trkpt lat="45.85246" lon="4.82022">
        <ele>395.2000122</ele>
        <time>2012-01-27T19:35:33Z</time>
      </trkpt>
      <trkpt lat="45.85244" lon="4.82025">
        <ele>395</ele>
        <time>2012-01-27T19:35:34Z</time>
      </trkpt>
      <trkpt lat="45.85238" lon="4.82033">
        <ele>394</ele>
        <time>2012-01-27T19:35:38Z</time>
      </trkpt>
      <trkpt lat="45.85233" lon="4.82043">
        <ele>392.7999878</ele>
        <time>2012-01-27T19:35:42Z</time>
      </trkpt>
      <trkpt lat="45.85231" lon="4.82045">
        <ele>392.6000061</ele>
        <time>2012-01-27T19:35:43Z</time>
      </trkpt>
      <trkpt lat="45.8523" lon="4.82047">
        <ele>392.3999939</ele>
        <time>2012-01-27T19:35:44Z</time>
      </trkpt>
      <trkpt lat="45.85224" lon="4.82058">
        <ele>391.3999939</ele>
        <time>2012-01-27T19:35:48Z</time>
      </trkpt>
      <trkpt lat="45.85219" lon="4.82062">
        <ele>390.6000061</ele>
        <time>2012-01-27T19:35:50Z</time>
      </trkpt>
      <trkpt lat="45.85217" lon="4.82064">
        <ele>390.2000122</ele>
        <time>2012-01-27T19:35:52Z</time>
      </trkpt>
      <trkpt lat="45.85214" lon="4.82069">
        <ele>389.6000061</ele>
        <time>2012-01-27T19:35:54Z</time>
      </trkpt>
      <trkpt lat="45.85206" lon="4.82081">
        <ele>388.3999939</ele>
        <time>2012-01-27T19:35:59Z</time>
      </trkpt>
      <trkpt lat="45.852" lon="4.82091">
        <ele>387.3999939</ele>
        <time>2012-01-27T19:36:04Z</time>
      </trkpt>
      <trkpt lat="45.85193" lon="4.82099">
        <ele>386.6000061</ele>
        <time>2012-01-27T19:36:08Z</time>
      </trkpt>
      <trkpt lat="45.85192" lon="4.82103">
        <ele>386.2000122</ele>
        <time>2012-01-27T19:36:10Z</time>
      </trkpt>
      <trkpt lat="45.85186" lon="4.82114">
        <ele>385.3999939</ele>
        <time>2012-01-27T19:36:15Z</time>
      </trkpt>
      <trkpt lat="45.8518" lon="4.8212">
        <ele>384.7999878</ele>
        <time>2012-01-27T19:36:18Z</time>
      </trkpt>
      <trkpt lat="45.85176" lon="4.82126">
        <ele>384.2000122</ele>
        <time>2012-01-27T19:36:21Z</time>
      </trkpt>
      <trkpt lat="45.85172" lon="4.82144">
        <ele>383.2000122</ele>
        <time>2012-01-27T19:36:27Z</time>
      </trkpt>
      <trkpt lat="45.85167" lon="4.82156">
        <ele>382.2000122</ele>
        <time>2012-01-27T19:36:32Z</time>
      </trkpt>
      <trkpt lat="45.85164" lon="4.82168">
        <ele>381.3999939</ele>
        <time>2012-01-27T19:36:36Z</time>
      </trkpt>
      <trkpt lat="45.85164" lon="4.8217">
        <ele>381.2000122</ele>
        <time>2012-01-27T19:36:37Z</time>
      </trkpt>
      <trkpt lat="45.85163" lon="4.82172">
        <ele>380.7999878</ele>
        <time>2012-01-27T19:36:38Z</time>
      </trkpt>
      <trkpt lat="45.85157" lon="4.82178">
        <ele>380</ele>
        <time>2012-01-27T19:36:41Z</time>
      </trkpt>
      <trkpt lat="45.85154" lon="4.82186">
        <ele>379.3999939</ele>
        <time>2012-01-27T19:36:44Z</time>
      </trkpt>
      <trkpt lat="45.85153" lon="4.82189">
        <ele>379</ele>
        <time>2012-01-27T19:36:45Z</time>
      </trkpt>
      <trkpt lat="45.85152" lon="4.82191">
        <ele>378.7999878</ele>
        <time>2012-01-27T19:36:46Z</time>
      </trkpt>
      <trkpt lat="45.85148" lon="4.82204">
        <ele>378</ele>
        <time>2012-01-27T19:36:50Z</time>
      </trkpt>
      <trkpt lat="45.85144" lon="4.82214">
        <ele>377.2000122</ele>
        <time>2012-01-27T19:36:53Z</time>
      </trkpt>
      <trkpt lat="45.85142" lon="4.82223">
        <ele>376.6000061</ele>
        <time>2012-01-27T19:36:56Z</time>
      </trkpt>
      <trkpt lat="45.85137" lon="4.8224">
        <ele>375.3999939</ele>
        <time>2012-01-27T19:37:01Z</time>
      </trkpt>
      <trkpt lat="45.85137" lon="4.82242">
        <ele>375.2000122</ele>
        <time>2012-01-27T19:37:02Z</time>
      </trkpt>
      <trkpt lat="45.85134" lon="4.82254">
        <ele>374.3999939</ele>
        <time>2012-01-27T19:37:06Z</time>
      </trkpt>
      <trkpt lat="45.85132" lon="4.82257">
        <ele>374</ele>
        <time>2012-01-27T19:37:07Z</time>
      </trkpt>
      <trkpt lat="45.85128" lon="4.82262">
        <ele>373.6000061</ele>
        <time>2012-01-27T19:37:09Z</time>
      </trkpt>
      <trkpt lat="45.85124" lon="4.82267">
        <ele>373</ele>
        <time>2012-01-27T19:37:11Z</time>
      </trkpt>
      <trkpt lat="45.85122" lon="4.82272">
        <ele>372.6000061</ele>
        <time>2012-01-27T19:37:13Z</time>
      </trkpt>
      <trkpt lat="45.85118" lon="4.82283">
        <ele>371.3999939</ele>
        <time>2012-01-27T19:37:18Z</time>
      </trkpt>
      <trkpt lat="45.85117" lon="4.82286">
        <ele>371.2000122</ele>
        <time>2012-01-27T19:37:19Z</time>
      </trkpt>
      <trkpt lat="45.85115" lon="4.82289">
        <ele>371</ele>
        <time>2012-01-27T19:37:20Z</time>
      </trkpt>
      <trkpt lat="45.85113" lon="4.82292">
        <ele>370.3999939</ele>
        <time>2012-01-27T19:37:22Z</time>
      </trkpt>
      <trkpt lat="45.85112" lon="4.82303">
        <ele>369.2000122</ele>
        <time>2012-01-27T19:37:27Z</time>
      </trkpt>
      <trkpt lat="45.8511" lon="4.82311">
        <ele>368.2000122</ele>
        <time>2012-01-27T19:37:32Z</time>
      </trkpt>
      <trkpt lat="45.85112" lon="4.82316">
        <ele>367.3999939</ele>
        <time>2012-01-27T19:37:36Z</time>
      </trkpt>
      <trkpt lat="45.85112" lon="4.82317">
        <ele>367.2000122</ele>
        <time>2012-01-27T19:37:37Z</time>
      </trkpt>
      <trkpt lat="45.85112" lon="4.82317">
        <ele>367</ele>
        <time>2012-01-27T19:37:38Z</time>
      </trkpt>
      <trkpt lat="45.85114" lon="4.82323">
        <ele>366.2000122</ele>
        <time>2012-01-27T19:37:42Z</time>
      </trkpt>
      <trkpt lat="45.85114" lon="4.82328">
        <ele>365.2000122</ele>
        <time>2012-01-27T19:37:47Z</time>
      </trkpt>
      <trkpt lat="45.85114" lon="4.8233">
        <ele>363.7999878</ele>
        <time>2012-01-27T19:37:54Z</time>
      </trkpt>
      <trkpt lat="45.85113" lon="4.82333">
        <ele>362.7999878</ele>
        <time>2012-01-27T19:38:00Z</time>
      </trkpt>
      <trkpt lat="45.85112" lon="4.82336">
        <ele>362.2000122</ele>
        <time>2012-01-27T19:38:03Z</time>
      </trkpt>
      <trkpt lat="45.8511" lon="4.82343">
        <ele>361.3999939</ele>
        <time>2012-01-27T19:38:08Z</time>
      </trkpt>
      <trkpt lat="45.85102" lon="4.82355">
        <ele>360</ele>
        <time>2012-01-27T19:38:14Z</time>
      </trkpt>
      <trkpt lat="45.85101" lon="4.82356">
        <ele>359.7999878</ele>
        <time>2012-01-27T19:38:15Z</time>
      </trkpt>
      <trkpt lat="45.85095" lon="4.82371">
        <ele>358.2000122</ele>
        <time>2012-01-27T19:38:21Z</time>
      </trkpt>
      <trkpt lat="45.8509" lon="4.82378">
        <ele>357.3999939</ele>
        <time>2012-01-27T19:38:24Z</time>
      </trkpt>
      <trkpt lat="45.85086" lon="4.82384">
        <ele>356.6000061</ele>
        <time>2012-01-27T19:38:27Z</time>
      </trkpt>
      <trkpt lat="45.85076" lon="4.82396">
        <ele>354.7999878</ele>
        <time>2012-01-27T19:38:33Z</time>
      </trkpt>
      <trkpt lat="45.85068" lon="4.82404">
        <ele>353.3999939</ele>
        <time>2012-01-27T19:38:38Z</time>
      </trkpt>
      <trkpt lat="45.85061" lon="4.82411">
        <ele>351.7999878</ele>
        <time>2012-01-27T19:38:43Z</time>
      </trkpt>
      <trkpt lat="45.85059" lon="4.82412">
        <ele>351.3999939</ele>
        <time>2012-01-27T19:38:44Z</time>
      </trkpt>
      <trkpt lat="45.85052" lon="4.82418">
        <ele>350</ele>
        <time>2012-01-27T19:38:49Z</time>
      </trkpt>
      <trkpt lat="45.85042" lon="4.82426">
        <ele>348.3999939</ele>
        <time>2012-01-27T19:38:54Z</time>
      </trkpt>
      <trkpt lat="45.8504" lon="4.82427">
        <ele>348</ele>
        <time>2012-01-27T19:38:55Z</time>
      </trkpt>
      <trkpt lat="45.85027" lon="4.82432">
        <ele>346.3999939</ele>
        <time>2012-01-27T19:39:00Z</time>
      </trkpt>
      <trkpt lat="45.85024" lon="4.82431">
        <ele>345.6000061</ele>
        <time>2012-01-27T19:39:02Z</time>
      </trkpt>
      <trkpt lat="45.85012" lon="4.82434">
        <ele>343.7999878</ele>
        <time>2012-01-27T19:39:07Z</time>
      </trkpt>
      <trkpt lat="45.85004" lon="4.82436">
        <ele>342.7999878</ele>
        <time>2012-01-27T19:39:10Z</time>
      </trkpt>
      <trkpt lat="45.84999" lon="4.82438">
        <ele>341.7999878</ele>
        <time>2012-01-27T19:39:13Z</time>
      </trkpt>
      <trkpt lat="45.84986" lon="4.82441">
        <ele>339.7999878</ele>
        <time>2012-01-27T19:39:18Z</time>
      </trkpt>
      <trkpt lat="45.84984" lon="4.8244">
        <ele>339.3999939</ele>
        <time>2012-01-27T19:39:19Z</time>
      </trkpt>
      <trkpt lat="45.84978" lon="4.82441">
        <ele>338.2000122</ele>
        <time>2012-01-27T19:39:22Z</time>
      </trkpt>
      <trkpt lat="45.84976" lon="4.82441">
        <ele>337.7999878</ele>
        <time>2012-01-27T19:39:23Z</time>
      </trkpt>
      <trkpt lat="45.84967" lon="4.82445">
        <ele>336</ele>
        <time>2012-01-27T19:39:27Z</time>
      </trkpt>
      <trkpt lat="45.84958" lon="4.82451">
        <ele>334.2000122</ele>
        <time>2012-01-27T19:39:31Z</time>
      </trkpt>
      <trkpt lat="45.84955" lon="4.82454">
        <ele>333.7999878</ele>
        <time>2012-01-27T19:39:32Z</time>
      </trkpt>
      <trkpt lat="45.84951" lon="4.82456">
        <ele>333</ele>
        <time>2012-01-27T19:39:34Z</time>
      </trkpt>
      <trkpt lat="45.84946" lon="4.82459">
        <ele>332.2000122</ele>
        <time>2012-01-27T19:39:36Z</time>
      </trkpt>
      <trkpt lat="45.84938" lon="4.82462">
        <ele>330.6000061</ele>
        <time>2012-01-27T19:39:40Z</time>
      </trkpt>
      <trkpt lat="45.84934" lon="4.82464">
        <ele>330</ele>
        <time>2012-01-27T19:39:42Z</time>
      </trkpt>
      <trkpt lat="45.84927" lon="4.82468">
        <ele>328.7999878</ele>
        <time>2012-01-27T19:39:45Z</time>
      </trkpt>
      <trkpt lat="45.84915" lon="4.82474">
        <ele>327</ele>
        <time>2012-01-27T19:39:50Z</time>
      </trkpt>
      <trkpt lat="45.84904" lon="4.82475">
        <ele>325.2000122</ele>
        <time>2012-01-27T19:39:55Z</time>
      </trkpt>
      <trkpt lat="45.84897" lon="4.82479">
        <ele>324.2000122</ele>
        <time>2012-01-27T19:39:58Z</time>
      </trkpt>
      <trkpt lat="45.84893" lon="4.8248">
        <ele>323.3999939</ele>
        <time>2012-01-27T19:40:00Z</time>
      </trkpt>
      <trkpt lat="45.84891" lon="4.82481">
        <ele>322.7999878</ele>
        <time>2012-01-27T19:40:02Z</time>
      </trkpt>
      <trkpt lat="45.84886" lon="4.82484">
        <ele>321.7999878</ele>
        <time>2012-01-27T19:40:05Z</time>
      </trkpt>
      <trkpt lat="45.8488" lon="4.82485">
        <ele>320.3999939</ele>
        <time>2012-01-27T19:40:09Z</time>
      </trkpt>
      <trkpt lat="45.84878" lon="4.82484">
        <ele>320</ele>
        <time>2012-01-27T19:40:10Z</time>
      </trkpt>
      <trkpt lat="45.84872" lon="4.82485">
        <ele>318.7999878</ele>
        <time>2012-01-27T19:40:14Z</time>
      </trkpt>
      <trkpt lat="45.8487" lon="4.82484">
        <ele>318.3999939</ele>
        <time>2012-01-27T19:40:15Z</time>
      </trkpt>
      <trkpt lat="45.84864" lon="4.82484">
        <ele>317</ele>
        <time>2012-01-27T19:40:19Z</time>
      </trkpt>
      <trkpt lat="45.84861" lon="4.82484">
        <ele>316.3999939</ele>
        <time>2012-01-27T19:40:21Z</time>
      </trkpt>
      <trkpt lat="45.84854" lon="4.82486">
        <ele>315.3999939</ele>
        <time>2012-01-27T19:40:24Z</time>
      </trkpt>
      <trkpt lat="45.84847" lon="4.82483">
        <ele>314</ele>
        <time>2012-01-27T19:40:28Z</time>
      </trkpt>
      <trkpt lat="45.84844" lon="4.82482">
        <ele>313.3999939</ele>
        <time>2012-01-27T19:40:30Z</time>
      </trkpt>
      <trkpt lat="45.84842" lon="4.82482">
        <ele>313</ele>
        <time>2012-01-27T19:40:31Z</time>
      </trkpt>
      <trkpt lat="45.84838" lon="4.82482">
        <ele>312.3999939</ele>
        <time>2012-01-27T19:40:33Z</time>
      </trkpt>
      <trkpt lat="45.84833" lon="4.82484">
        <ele>311.7999878</ele>
        <time>2012-01-27T19:40:35Z</time>
      </trkpt>
      <trkpt lat="45.84825" lon="4.82487">
        <ele>310.7999878</ele>
        <time>2012-01-27T19:40:38Z</time>
      </trkpt>
      <trkpt lat="45.84822" lon="4.82488">
        <ele>310.6000061</ele>
        <time>2012-01-27T19:40:39Z</time>
      </trkpt>
      <trkpt lat="45.84814" lon="4.82491">
        <ele>309.6000061</ele>
        <time>2012-01-27T19:40:42Z</time>
      </trkpt>
      <trkpt lat="45.84806" lon="4.82493">
        <ele>308.3999939</ele>
        <time>2012-01-27T19:40:46Z</time>
      </trkpt>
      <trkpt lat="45.84805" lon="4.82493">
        <ele>308</ele>
        <time>2012-01-27T19:40:47Z</time>
      </trkpt>
      <trkpt lat="45.84802" lon="4.82493">
        <ele>307.6000061</ele>
        <time>2012-01-27T19:40:48Z</time>
      </trkpt>
      <trkpt lat="45.84797" lon="4.82495">
        <ele>306.7999878</ele>
        <time>2012-01-27T19:40:51Z</time>
      </trkpt>
      <trkpt lat="45.84795" lon="4.82496">
        <ele>306.3999939</ele>
        <time>2012-01-27T19:40:52Z</time>
      </trkpt>
      <trkpt lat="45.84788" lon="4.82498">
        <ele>305.3999939</ele>
        <time>2012-01-27T19:40:55Z</time>
      </trkpt>
      <trkpt lat="45.84785" lon="4.82498">
        <ele>304.6000061</ele>
        <time>2012-01-27T19:40:57Z</time>
      </trkpt>
      <trkpt lat="45.84784" lon="4.82499">
        <ele>304.3999939</ele>
        <time>2012-01-27T19:40:58Z</time>
      </trkpt>
      <trkpt lat="45.8478" lon="4.825">
        <ele>303.2000122</ele>
        <time>2012-01-27T19:41:01Z</time>
      </trkpt>
      <trkpt lat="45.84777" lon="4.825">
        <ele>302.6000061</ele>
        <time>2012-01-27T19:41:03Z</time>
      </trkpt>
      <trkpt lat="45.84773" lon="4.825">
        <ele>301.3999939</ele>
        <time>2012-01-27T19:41:06Z</time>
      </trkpt>
      <trkpt lat="45.84767" lon="4.825">
        <ele>300</ele>
        <time>2012-01-27T19:41:10Z</time>
      </trkpt>
      <trkpt lat="45.84765" lon="4.82501">
        <ele>299.6000061</ele>
        <time>2012-01-27T19:41:11Z</time>
      </trkpt>
      <trkpt lat="45.84756" lon="4.82504">
        <ele>297.7999878</ele>
        <time>2012-01-27T19:41:16Z</time>
      </trkpt>
      <trkpt lat="45.84751" lon="4.82505">
        <ele>295.6000061</ele>
        <time>2012-01-27T19:41:21Z</time>
      </trkpt>
      <trkpt lat="45.84746" lon="4.82506">
        <ele>295</ele>
        <time>2012-01-27T19:41:23Z</time>
      </trkpt>
      <trkpt lat="45.84742" lon="4.82506">
        <ele>294</ele>
        <time>2012-01-27T19:41:26Z</time>
      </trkpt>
      <trkpt lat="45.8473" lon="4.8251">
        <ele>291.2000122</ele>
        <time>2012-01-27T19:41:33Z</time>
      </trkpt>
      <trkpt lat="45.84728" lon="4.82511">
        <ele>290.7999878</ele>
        <time>2012-01-27T19:41:34Z</time>
      </trkpt>
      <trkpt lat="45.8472" lon="4.82512">
        <ele>288.7999878</ele>
        <time>2012-01-27T19:41:39Z</time>
      </trkpt>
      <trkpt lat="45.84718" lon="4.82511">
        <ele>288</ele>
        <time>2012-01-27T19:41:41Z</time>
      </trkpt>
      <trkpt lat="45.84716" lon="4.82513">
        <ele>286.7999878</ele>
        <time>2012-01-27T19:41:44Z</time>
      </trkpt>
      <trkpt lat="45.84713" lon="4.82518">
        <ele>285.6000061</ele>
        <time>2012-01-27T19:41:47Z</time>
      </trkpt>
      <trkpt lat="45.84711" lon="4.82519">
        <ele>284.7999878</ele>
        <time>2012-01-27T19:41:49Z</time>
      </trkpt>
      <trkpt lat="45.84711" lon="4.8252">
        <ele>284.3999939</ele>
        <time>2012-01-27T19:41:50Z</time>
      </trkpt>
      <trkpt lat="45.84705" lon="4.8253">
        <ele>282.3999939</ele>
        <time>2012-01-27T19:41:55Z</time>
      </trkpt>
      <trkpt lat="45.84704" lon="4.82533">
        <ele>281.6000061</ele>
        <time>2012-01-27T19:41:57Z</time>
      </trkpt>
      <trkpt lat="45.84702" lon="4.82539">
        <ele>280.3999939</ele>
        <time>2012-01-27T19:42:00Z</time>
      </trkpt>
      <trkpt lat="45.84701" lon="4.82541">
        <ele>280</ele>
        <time>2012-01-27T19:42:01Z</time>
      </trkpt>
      <trkpt lat="45.84699" lon="4.82543">
        <ele>279.6000061</ele>
        <time>2012-01-27T19:42:02Z</time>
      </trkpt>
      <trkpt lat="45.84692" lon="4.82548">
        <ele>277.6000061</ele>
        <time>2012-01-27T19:42:07Z</time>
      </trkpt>
      <trkpt lat="45.84688" lon="4.82546">
        <ele>276</ele>
        <time>2012-01-27T19:42:11Z</time>
      </trkpt>
      <trkpt lat="45.84688" lon="4.82547">
        <ele>275.6000061</ele>
        <time>2012-01-27T19:42:12Z</time>
      </trkpt>
      <trkpt lat="45.84685" lon="4.82548">
        <ele>274.6000061</ele>
        <time>2012-01-27T19:42:15Z</time>
      </trkpt>
      <trkpt lat="45.84683" lon="4.82548">
        <ele>274.2000122</ele>
        <time>2012-01-27T19:42:16Z</time>
      </trkpt>
      <trkpt lat="45.84669" lon="4.82547">
        <ele>270.6000061</ele>
        <time>2012-01-27T19:42:25Z</time>
      </trkpt>
      <trkpt lat="45.84666" lon="4.82544">
        <ele>269.3999939</ele>
        <time>2012-01-27T19:42:28Z</time>
      </trkpt>
      <trkpt lat="45.84665" lon="4.82543">
        <ele>268.2000122</ele>
        <time>2012-01-27T19:42:31Z</time>
      </trkpt>
      <trkpt lat="45.84658" lon="4.82542">
        <ele>254.8000031</ele>
        <time>2012-01-27T19:43:22Z</time>
      </trkpt>
      <trkpt lat="45.84649" lon="4.82541">
        <ele>253.1999969</ele>
        <time>2012-01-27T19:43:30Z</time>
      </trkpt>
      <trkpt lat="45.84648" lon="4.8254">
        <ele>253</ele>
        <time>2012-01-27T19:43:31Z</time>
      </trkpt>
      <trkpt lat="45.84641" lon="4.82536">
        <ele>251.3999939</ele>
        <time>2012-01-27T19:43:38Z</time>
      </trkpt>
      <trkpt lat="45.8464" lon="4.82536">
        <ele>249.6000061</ele>
        <time>2012-01-27T19:43:48Z</time>
      </trkpt>
      <trkpt lat="45.84641" lon="4.82532">
        <ele>248.8000031</ele>
        <time>2012-01-27T19:43:53Z</time>
      </trkpt>
      <trkpt lat="45.84638" lon="4.82533">
        <ele>247.1999969</ele>
        <time>2012-01-27T19:44:03Z</time>
      </trkpt>
      <trkpt lat="45.84638" lon="4.82535">
        <ele>247</ele>
        <time>2012-01-27T19:44:05Z</time>
      </trkpt>
      <trkpt lat="45.84639" lon="4.82537">
        <ele>246.1999969</ele>
        <time>2012-01-27T19:44:10Z</time>
      </trkpt>
      <trkpt lat="45.84638" lon="4.82539">
        <ele>239.3999939</ele>
        <time>2012-01-27T19:45:13Z</time>
      </trkpt>
      <trkpt lat="45.84638" lon="4.82537">
        <ele>238.8000031</ele>
        <time>2012-01-27T19:45:22Z</time>
      </trkpt>
      <trkpt lat="45.84639" lon="4.82536">
        <ele>237.8000031</ele>
        <time>2012-01-27T19:45:39Z</time>
      </trkpt>
      <trkpt lat="45.84638" lon="4.82538">
        <ele>237</ele>
        <time>2012-01-27T19:45:50Z</time>
      </trkpt>
      <trkpt lat="45.84636" lon="4.82543">
        <ele>236.3999939</ele>
        <time>2012-01-27T19:45:59Z</time>
      </trkpt>
      <trkpt lat="45.84635" lon="4.82555">
        <ele>235.8000031</ele>
        <time>2012-01-27T19:46:06Z</time>
      </trkpt>
      <trkpt lat="45.84631" lon="4.82565">
        <ele>235.1999969</ele>
        <time>2012-01-27T19:46:12Z</time>
      </trkpt>
      <trkpt lat="45.8463" lon="4.82566">
        <ele>235</ele>
        <time>2012-01-27T19:46:13Z</time>
      </trkpt>
      <trkpt lat="45.84624" lon="4.82568">
        <ele>234.3999939</ele>
        <time>2012-01-27T19:46:17Z</time>
      </trkpt>
      <trkpt lat="45.84619" lon="4.82572">
        <ele>233.8000031</ele>
        <time>2012-01-27T19:46:22Z</time>
      </trkpt>
      <trkpt lat="45.84613" lon="4.82572">
        <ele>233</ele>
        <time>2012-01-27T19:46:28Z</time>
      </trkpt>
      <trkpt lat="45.84611" lon="4.82571">
        <ele>232.8000031</ele>
        <time>2012-01-27T19:46:29Z</time>
      </trkpt>
      <trkpt lat="45.84607" lon="4.8257">
        <ele>232.1999969</ele>
        <time>2012-01-27T19:46:33Z</time>
      </trkpt>
      <trkpt lat="45.84604" lon="4.8257">
        <ele>232</ele>
        <time>2012-01-27T19:46:35Z</time>
      </trkpt>
      <trkpt lat="45.84602" lon="4.8257">
        <ele>231.6000061</ele>
        <time>2012-01-27T19:46:37Z</time>
      </trkpt>
      <trkpt lat="45.84598" lon="4.8257">
        <ele>231.1999969</ele>
        <time>2012-01-27T19:46:40Z</time>
      </trkpt>
      <trkpt lat="45.84598" lon="4.8257">
        <ele>231</ele>
        <time>2012-01-27T19:46:42Z</time>
      </trkpt>
      <trkpt lat="45.84595" lon="4.82572">
        <ele>230.6000061</ele>
        <time>2012-01-27T19:46:44Z</time>
      </trkpt>
      <trkpt lat="45.84583" lon="4.82571">
        <ele>229.8000031</ele>
        <time>2012-01-27T19:46:50Z</time>
      </trkpt>
      <trkpt lat="45.84577" lon="4.82575">
        <ele>228.8000031</ele>
        <time>2012-01-27T19:46:55Z</time>
      </trkpt>
      <trkpt lat="45.84567" lon="4.82585">
        <ele>227.8000031</ele>
        <time>2012-01-27T19:47:01Z</time>
      </trkpt>
      <trkpt lat="45.84565" lon="4.82593">
        <ele>226.8000031</ele>
        <time>2012-01-27T19:47:06Z</time>
      </trkpt>
      <trkpt lat="45.84563" lon="4.8261">
        <ele>226</ele>
        <time>2012-01-27T19:47:11Z</time>
      </trkpt>
      <trkpt lat="45.84561" lon="4.82621">
        <ele>225.3999939</ele>
        <time>2012-01-27T19:47:14Z</time>
      </trkpt>
      <trkpt lat="45.8456" lon="4.82628">
        <ele>225</ele>
        <time>2012-01-27T19:47:16Z</time>
      </trkpt>
      <trkpt lat="45.84559" lon="4.82646">
        <ele>224.1999969</ele>
        <time>2012-01-27T19:47:21Z</time>
      </trkpt>
      <trkpt lat="45.84559" lon="4.8265">
        <ele>224</ele>
        <time>2012-01-27T19:47:22Z</time>
      </trkpt>
      <trkpt lat="45.84557" lon="4.82664">
        <ele>223.1999969</ele>
        <time>2012-01-27T19:47:26Z</time>
      </trkpt>
      <trkpt lat="45.84557" lon="4.82668">
        <ele>223</ele>
        <time>2012-01-27T19:47:27Z</time>
      </trkpt>
      <trkpt lat="45.84556" lon="4.82676">
        <ele>222.6000061</ele>
        <time>2012-01-27T19:47:29Z</time>
      </trkpt>
      <trkpt lat="45.84557" lon="4.82679">
        <ele>222.3999939</ele>
        <time>2012-01-27T19:47:30Z</time>
      </trkpt>
      <trkpt lat="45.84557" lon="4.82683">
        <ele>222.1999969</ele>
        <time>2012-01-27T19:47:31Z</time>
      </trkpt>
      <trkpt lat="45.84556" lon="4.82702">
        <ele>221.1999969</ele>
        <time>2012-01-27T19:47:36Z</time>
      </trkpt>
      <trkpt lat="45.8456" lon="4.82724">
        <ele>220</ele>
        <time>2012-01-27T19:47:42Z</time>
      </trkpt>
      <trkpt lat="45.8456" lon="4.82729">
        <ele>219.8000031</ele>
        <time>2012-01-27T19:47:43Z</time>
      </trkpt>
      <trkpt lat="45.84559" lon="4.82739">
        <ele>219.1999969</ele>
        <time>2012-01-27T19:47:46Z</time>
      </trkpt>
      <trkpt lat="45.84558" lon="4.82756">
        <ele>218.1999969</ele>
        <time>2012-01-27T19:47:51Z</time>
      </trkpt>
      <trkpt lat="45.84556" lon="4.82776">
        <ele>217.1999969</ele>
        <time>2012-01-27T19:47:56Z</time>
      </trkpt>
      <trkpt lat="45.84555" lon="4.82784">
        <ele>216.8000031</ele>
        <time>2012-01-27T19:47:58Z</time>
      </trkpt>
      <trkpt lat="45.84553" lon="4.82794">
        <ele>216.1999969</ele>
        <time>2012-01-27T19:48:01Z</time>
      </trkpt>
      <trkpt lat="45.84549" lon="4.82808">
        <ele>215.1999969</ele>
        <time>2012-01-27T19:48:05Z</time>
      </trkpt>
      <trkpt lat="45.84547" lon="4.82815">
        <ele>214.8000031</ele>
        <time>2012-01-27T19:48:07Z</time>
      </trkpt>
      <trkpt lat="45.84544" lon="4.82829">
        <ele>213.6000061</ele>
        <time>2012-01-27T19:48:12Z</time>
      </trkpt>
      <trkpt lat="45.84543" lon="4.82834">
        <ele>213</ele>
        <time>2012-01-27T19:48:14Z</time>
      </trkpt>
      <trkpt lat="45.84541" lon="4.82844">
        <ele>212.1999969</ele>
        <time>2012-01-27T19:48:17Z</time>
      </trkpt>
      <trkpt lat="45.84539" lon="4.82858">
        <ele>210.8000031</ele>
        <time>2012-01-27T19:48:23Z</time>
      </trkpt>
      <trkpt lat="45.84539" lon="4.8286">
        <ele>210.6000061</ele>
        <time>2012-01-27T19:48:24Z</time>
      </trkpt>
      <trkpt lat="45.84539" lon="4.82861">
        <ele>210.3999939</ele>
        <time>2012-01-27T19:48:25Z</time>
      </trkpt>
      <trkpt lat="45.84545" lon="4.82862">
        <ele>209.6000061</ele>
        <time>2012-01-27T19:48:28Z</time>
      </trkpt>
      <trkpt lat="45.84554" lon="4.82869">
        <ele>208.6000061</ele>
        <time>2012-01-27T19:48:33Z</time>
      </trkpt>
      <trkpt lat="45.84555" lon="4.82872">
        <ele>208.1999969</ele>
        <time>2012-01-27T19:48:34Z</time>
      </trkpt>
      <trkpt lat="45.8456" lon="4.82887">
        <ele>207.1999969</ele>
        <time>2012-01-27T19:48:39Z</time>
      </trkpt>
      <trkpt lat="45.84566" lon="4.82889">
        <ele>206.8000031</ele>
        <time>2012-01-27T19:48:41Z</time>
      </trkpt>
      <trkpt lat="45.84571" lon="4.82892">
        <ele>206.3999939</ele>
        <time>2012-01-27T19:48:43Z</time>
      </trkpt>
      <trkpt lat="45.84577" lon="4.82904">
        <ele>205.6000061</ele>
        <time>2012-01-27T19:48:47Z</time>
      </trkpt>
      <trkpt lat="45.84578" lon="4.82907">
        <ele>205.6000061</ele>
        <time>2012-01-27T19:48:48Z</time>
      </trkpt>
      <trkpt lat="45.84582" lon="4.82914">
        <ele>204.8000031</ele>
        <time>2012-01-27T19:48:52Z</time>
      </trkpt>
      <trkpt lat="45.84582" lon="4.82917">
        <ele>204</ele>
        <time>2012-01-27T19:48:56Z</time>
      </trkpt>
      <trkpt lat="45.84583" lon="4.82919">
        <ele>203.8000031</ele>
        <time>2012-01-27T19:48:57Z</time>
      </trkpt>
      <trkpt lat="45.84581" lon="4.82929">
        <ele>202.6000061</ele>
        <time>2012-01-27T19:49:03Z</time>
      </trkpt>
      <trkpt lat="45.84579" lon="4.82934">
        <ele>202.1999969</ele>
        <time>2012-01-27T19:49:05Z</time>
      </trkpt>
      <trkpt lat="45.84576" lon="4.82939">
        <ele>201.8000031</ele>
        <time>2012-01-27T19:49:07Z</time>
      </trkpt>
      <trkpt lat="45.84575" lon="4.82944">
        <ele>201.3999939</ele>
        <time>2012-01-27T19:49:09Z</time>
      </trkpt>
      <trkpt lat="45.84574" lon="4.82957">
        <ele>200.6000061</ele>
        <time>2012-01-27T19:49:13Z</time>
      </trkpt>
      <trkpt lat="45.84574" lon="4.82961">
        <ele>200.3999939</ele>
        <time>2012-01-27T19:49:14Z</time>
      </trkpt>
      <trkpt lat="45.84572" lon="4.82978">
        <ele>199.3999939</ele>
        <time>2012-01-27T19:49:19Z</time>
      </trkpt>
      <trkpt lat="45.84573" lon="4.8298">
        <ele>199.1999969</ele>
        <time>2012-01-27T19:49:20Z</time>
      </trkpt>
      <trkpt lat="45.84577" lon="4.82985">
        <ele>198.8000031</ele>
        <time>2012-01-27T19:49:22Z</time>
      </trkpt>
      <trkpt lat="45.84578" lon="4.82987">
        <ele>198.6000061</ele>
        <time>2012-01-27T19:49:23Z</time>
      </trkpt>
      <trkpt lat="45.84581" lon="4.83002">
        <ele>197.6000061</ele>
        <time>2012-01-27T19:49:27Z</time>
      </trkpt>
      <trkpt lat="45.84581" lon="4.8301">
        <ele>197.1999969</ele>
        <time>2012-01-27T19:49:29Z</time>
      </trkpt>
      <trkpt lat="45.84581" lon="4.83017">
        <ele>196.3999939</ele>
        <time>2012-01-27T19:49:32Z</time>
      </trkpt>
      <trkpt lat="45.84581" lon="4.83019">
        <ele>196.1999969</ele>
        <time>2012-01-27T19:49:33Z</time>
      </trkpt>
      <trkpt lat="45.84578" lon="4.8302">
        <ele>195.8000031</ele>
        <time>2012-01-27T19:49:35Z</time>
      </trkpt>
      <trkpt lat="45.8457" lon="4.83021">
        <ele>194.8000031</ele>
        <time>2012-01-27T19:49:39Z</time>
      </trkpt>
      <trkpt lat="45.84565" lon="4.83021">
        <ele>194.3999939</ele>
        <time>2012-01-27T19:49:41Z</time>
      </trkpt>
      <trkpt lat="45.84553" lon="4.83027">
        <ele>193.3999939</ele>
        <time>2012-01-27T19:49:46Z</time>
      </trkpt>
      <trkpt lat="45.8455" lon="4.83029">
        <ele>193.1999969</ele>
        <time>2012-01-27T19:49:47Z</time>
      </trkpt>
      <trkpt lat="45.84545" lon="4.83033">
        <ele>192.3999939</ele>
        <time>2012-01-27T19:49:50Z</time>
      </trkpt>
    </trkseg>
  </trk>
</gpx>